[[{"header":{"parameterUnit":"m.s-1","parameterCategory":1,"la1":31.0,"la2":29.5877,"lo1":-88.7671,"lo2":-86.6584,"dx":0.0162,"dy":0.0185,"nx":115,"ny":88,"refTime":"2023-01-05T18:00:00:Z","depth":0,"parameterNumber":2,"parameterNumberName":"U-component_of_WINDS"},"data":[0.0,0.0,0.0,0.0,0.0,0.0,0.0,0.0,0.0,0.0,0.0,0.0,0.0,0.0,0.0,0.0,0.0,0.0,0.0,0.0,0.0,0.0,0.0,0.0,0.0,0.0,0.0,0.0,0.0,0.0,0.0,0.0,0.0,0.0,0.0,0.0,0.0,0.0,0.0,0.0,0.0,0.0,0.0,0.0,0.0,0.0,0.0,0.0,0.0,0.0,0.0,0.0,0.0,0.0,0.0,0.0,0.0,0.0,0.0,0.0,0.0,0.0,0.0,0.0,0.0,0.0,0.0,0.0,0.0,0.0,0.0,0.0,0.0,0.0,0.0,0.0,0.0,0.0,0.0,0.0,0.0,0.0,0.0,0.0,0.0,0.0,0.0,0.0,0.0,0.0,0.0,0.0,0.0,0.0,0.0,0.0,0.0,0.0,0.0,0.0,0.0,0.0,0.0,0.0,0.0,0.0,0.0,0.0,0.0,0.0,0.0,0.0,0.0,0.0,0.0,0.0,0.0,0.0,0.0,0.0,0.0,0.0,0.0,0.0,0.0,0.0,0.0,0.0,0.0,0.0,0.0,0.0,0.0,0.0,0.0,0.0,0.0,0.0,0.0,0.0,0.0,0.0,0.0,0.0,0.0,0.0,0.0,0.0,0.0,0.0,0.0,0.0,0.0,0.0,0.0,0.0,0.0,0.0,0.0,0.0,0.0,0.0,0.0,0.0,0.0,0.0,0.0,0.0,0.0,0.0,0.0,0.0,0.0,0.0,0.0,0.0,0.0,0.0,0.0,0.0,0.0,0.0,0.0,0.0,0.0,0.0,0.0,0.0,0.0,0.0,0.0,0.0,0.0,0.0,0.0,0.0,0.0,0.0,0.0,0.0,0.0,0.0,0.0,0.0,0.0,0.0,0.0,0.0,0.0,0.0,0.0,0.0,0.0,0.0,0.0,0.0,0.0,0.0,0.0,0.0,0.0,0.0,0.0,0.0,0.0,0.0,0.0,0.0,0.0,0.0,0.0,0.0,0.0,0.0,0.0,0.0,0.0,0.0,0.0,0.0,0.0,0.0,0.0,0.0,0.0,0.0,0.0,0.0,0.0,0.0,0.0,0.0,0.0,0.0,0.0,0.0,0.0,0.0,0.0,0.0,0.0,0.0,0.0,0.0,0.0,0.0,0.0,0.0,0.0,0.0,0.0,0.0,0.0,0.0,0.0,0.0,0.0,0.0,0.0,0.0,0.0,0.0,0.0,0.0,0.0,0.0,0.0,0.0,0.0,0.0,0.0,0.0,0.0,0.0,0.0,0.0,0.0,0.0,0.0,0.0,0.0,0.0,0.0,0.0,0.0,0.0,0.0,0.0,0.0,0.0,0.0,0.0,0.0,0.0,0.0,0.0,0.0,0.0,0.0,0.0,0.0,0.0,0.0,0.0,0.0,0.0,0.0,0.0,0.0,0.0,0.0,0.0,0.0,0.0,0.0,0.0,0.0,0.0,0.0,0.0,0.0,0.0,0.0,0.0,0.0,0.0,0.0,0.0,0.0,0.0,0.0,0.0,0.0,0.0,0.0,0.0,0.0,0.0,0.0,0.0,0.0,0.0,0.0,0.0,0.0,0.0,0.0,0.0,0.0,0.0,0.0,0.0,0.0,0.0,0.0,0.0,0.0,0.0,0.0,0.0,0.0,0.0,0.0,0.0,0.0,0.0,0.0,0.0,0.0,0.0,0.0,0.0,0.0,0.0,0.0,0.0,0.0,0.0,0.0,0.0,0.0,0.0,0.0,0.0,0.0,0.0,0.0,0.0,0.0,0.0,0.0,0.0,0.0,0.0,0.0,0.0,0.0,0.0,0.0,0.0,0.0,0.0,0.0,0.0,0.0,0.0,0.0,0.0,0.0,0.0,0.0,0.0,0.0,0.0,0.0,0.0,0.0,0.0,0.0,0.0,0.0,0.0,0.0,0.0,0.0,0.0,0.0,0.0,0.0,0.0,0.0,0.0,0.0,0.0,0.0,0.0,0.0,0.0,0.0,0.0,0.0,0.0,0.0,0.0,0.0,0.0,0.0,0.0,0.0,0.0,0.0,0.0,0.0,0.0,0.0,0.0,0.0,0.0,0.0,0.0,0.0,0.0,0.0,0.0,0.0,0.0,0.0,0.0,0.0,0.0,0.0,0.0,0.0,0.0,0.0,0.0,0.0,0.0,0.0,0.0,0.0,0.0,0.0,0.0,0.0,0.0,0.0,0.0,0.0,0.0,0.0,0.0,0.0,0.0,0.0,0.0,0.0,0.0,0.0,0.0,0.0,0.0,0.0,0.0,0.0,0.0,0.0,0.0,0.0,0.0,0.0,0.0,0.0,0.0,0.0,0.0,0.0,0.0,0.0,0.0,0.0,0.0,0.0,0.0,0.0,0.0,0.0,0.0,0.0,0.0,0.0,0.0,0.0,0.0,0.0,0.0,0.0,0.0,0.0,0.0,0.0,0.0,0.0,0.0,0.0,0.0,0.0,0.0,0.0,0.0,0.0,0.0,0.0,0.0,0.0,0.0,0.0,0.0,0.0,0.0,0.0,0.0,0.0,0.0,0.0,0.0,0.0,0.0,0.0,0.0,0.0,0.0,0.0,0.0,0.0,0.0,0.0,0.0,0.0,0.0,0.0,0.0,0.0,0.0,0.0,0.0,0.0,0.0,0.0,0.0,0.0,0.0,0.0,0.0,0.0,0.0,0.0,0.0,0.0,0.0,0.0,0.0,0.0,0.0,0.0,0.0,0.0,0.0,0.0,0.0,0.0,0.0,0.0,0.0,0.0,0.0,0.0,0.0,0.0,0.0,0.0,0.0,0.0,0.0,0.0,0.0,0.0,0.0,0.0,0.0,0.0,0.0,0.0,0.0,0.0,0.0,0.0,0.0,0.0,0.0,0.0,0.0,0.0,0.0,0.0,0.0,0.0,0.0,0.0,0.0,0.0,0.0,0.0,0.0,0.0,0.0,0.0,0.0,0.0,0.0,0.0,0.0,0.0,0.0,0.0,0.0,0.0,0.0,0.0,0.0,0.0,0.0,0.0,0.0,0.0,0.0,0.0,0.0,0.0,0.0,0.0,0.0,0.0,0.0,0.0,0.0,0.0,0.0,0.0,0.0,0.0,0.0,0.0,0.0,0.0,0.0,0.0,0.0,0.0,0.0,0.0,0.0,0.0,0.0,0.0,0.0,0.0,0.0,0.0,0.0,0.0,0.0,0.0,0.0,0.0,0.0,0.0,0.0,0.0,0.0,0.0,0.0,0.0,0.0,0.0,0.0,0.0,0.0,0.0,0.0,0.0,0.0,0.0,0.0,0.0,0.0,0.0,0.0,0.0,0.0,0.0,0.0,0.0,0.0,0.0,0.0,0.0,0.0,0.0,0.0,0.0,0.0,0.0,0.0,0.0,0.0,0.0,0.0,0.0,0.0,0.0,0.0,0.0,0.0,0.0,0.0,0.0,0.0,0.0,0.0,0.0,0.0,0.0,0.0,0.0,0.0,0.0,0.0,0.0,0.0,0.0,0.0,0.0,0.0,0.0,0.0,0.0,0.0,0.0,0.0,0.0,0.0,0.0,0.0,0.0,0.0,0.0,0.0,0.0,0.0,0.0,0.0,0.0,0.0,0.0,0.0,0.0,0.0,0.0,0.0,0.0,0.0,0.0,0.0,0.0,0.0,0.0,0.0,0.0,0.0,0.0,0.0,0.0,0.0,0.0,0.0,0.0,0.0,0.0,0.0,0.0,0.0,0.0,0.0,0.0,0.0,0.0,0.0,0.0,0.0,0.0,0.0,0.0,0.0,0.0,0.0,0.0,0.0,0.0,0.0,0.0,0.0,0.0,0.0,0.0,0.0,0.0,0.0,0.0,0.0,0.0,0.0,0.0,0.0,0.0,0.0,0.0,0.0,0.0,0.0,0.0,0.0,0.0,0.0,0.0,0.0,0.0,0.0,0.0,0.0,0.0,0.0,0.0,0.0,0.0,0.0,0.0,0.0,0.0,0.0,0.0,0.0,0.0,0.0,0.0,0.0,0.0,0.0,0.0,0.0,0.0,0.0,0.0,0.0,0.0,0.0,0.0,0.0,0.0,0.0,0.0,0.0,0.0,0.0,0.0,0.0,0.0,0.0,0.0,0.0,0.0,0.0,0.0,0.0,0.0,0.0,0.0,0.0,0.0,0.0,0.0,0.0,0.0,0.0,0.0,0.0,0.0,0.0,0.0,0.0,0.0,0.0,1.6748,0.0,0.0,0.0,1.6672,0.0,0.0,0.0,0.0,0.0,0.0,0.0,0.0,0.0,0.0,0.0,0.0,0.0,0.0,0.0,0.0,0.0,0.0,0.0,0.0,0.0,0.0,0.0,0.0,0.0,0.0,0.0,0.0,0.0,0.0,0.0,0.0,0.0,0.0,0.0,0.0,0.0,0.0,0.0,0.0,0.0,0.0,0.0,0.0,0.0,0.0,0.0,0.0,0.0,0.0,0.0,0.0,0.0,0.0,0.0,0.0,0.0,0.0,0.0,0.0,0.0,0.0,0.0,0.0,0.0,0.0,0.0,0.0,0.0,0.0,0.0,0.0,0.0,0.0,0.0,0.0,0.0,0.0,0.0,0.0,0.0,0.0,0.0,0.0,0.0,0.0,0.0,0.0,0.0,0.0,0.0,0.0,0.0,0.0,0.0,0.0,0.0,0.0,0.0,0.0,0.0,0.0,0.0,0.0,0.0,0.0,0.0,0.0,0.0,0.0,1.6974,1.6195,1.7225,1.7426,1.6572,0.0,0.0,0.0,0.0,0.0,0.0,0.0,0.0,0.0,0.0,0.0,0.0,0.0,0.0,0.0,0.0,0.0,0.0,0.0,0.0,0.0,0.0,0.0,0.0,0.0,0.0,0.0,0.0,0.0,0.0,0.0,0.0,0.0,0.0,0.0,0.0,0.0,0.0,0.0,0.0,0.0,0.0,0.0,0.0,0.0,0.0,0.0,0.0,0.0,0.0,0.0,0.0,0.0,0.0,0.0,0.0,0.0,0.0,0.0,0.0,0.0,0.0,0.0,0.0,0.0,0.0,0.0,0.0,0.0,0.0,0.0,0.0,0.0,0.0,0.0,0.0,0.0,0.0,0.0,0.0,0.0,0.0,0.0,0.0,0.0,0.0,0.0,0.0,0.0,0.0,0.0,0.0,0.0,0.0,0.0,0.0,0.0,0.0,0.0,0.0,0.0,0.0,0.0,0.0,0.0,0.0,0.0,0.0,0.0,0.0,0.0,0.0,1.7551,1.7626,1.6748,0.0,0.0,0.0,0.0,0.0,0.0,0.0,0.0,0.0,0.0,0.0,0.0,0.0,0.0,0.0,0.0,0.0,0.0,0.0,0.0,0.0,0.0,0.0,0.0,0.0,0.0,0.0,0.0,0.0,0.0,0.0,0.0,0.0,0.0,0.0,0.0,0.0,0.0,0.0,0.0,0.0,0.0,0.0,0.0,0.0,0.0,0.0,0.0,0.0,0.0,0.0,0.0,0.0,0.0,0.0,0.0,0.0,0.0,0.0,0.0,0.0,0.0,0.0,0.0,0.0,0.0,0.0,0.0,0.0,0.0,0.0,0.0,0.0,0.0,0.0,0.0,0.0,0.0,0.0,0.0,0.0,0.0,0.0,0.0,0.0,0.0,0.0,0.0,0.0,0.0,0.0,0.0,0.0,0.0,0.0,0.0,0.0,0.0,0.0,0.0,0.0,0.0,0.0,0.0,0.0,0.0,0.0,0.0,0.0,0.0,1.6823,1.73,1.74,0.0,1.7275,0.0,0.0,0.0,0.0,0.0,0.0,0.0,0.0,0.0,0.0,0.0,0.0,0.0,0.0,0.0,0.0,0.0,0.0,0.0,0.0,0.0,0.0,0.0,0.0,0.0,0.0,0.0,0.0,0.0,0.0,0.0,0.0,0.0,0.0,0.0,0.0,0.0,0.0,0.0,0.0,0.0,0.0,0.0,0.0,0.0,0.0,0.0,0.0,0.0,0.0,0.0,0.0,0.0,0.0,0.0,0.0,0.0,0.0,0.0,0.0,0.0,0.0,0.0,0.0,0.0,0.0,0.0,0.0,0.0,0.0,0.0,0.0,0.0,0.0,0.0,0.0,0.0,0.0,0.0,0.0,0.0,0.0,0.0,0.0,0.0,0.0,0.0,0.0,0.0,0.0,0.0,0.0,0.0,0.0,0.0,0.0,0.0,0.0,0.0,0.0,0.0,0.0,0.0,0.0,0.0,0.0,0.0,0.0,0.0,0.0,1.6798,1.7375,1.7375,1.7225,0.0,0.0,0.0,0.0,0.0,0.0,0.0,0.0,0.0,0.0,0.0,0.0,0.0,0.0,0.0,0.0,0.0,0.0,0.0,0.0,0.0,0.0,0.0,0.0,0.0,0.0,0.0,0.0,0.0,0.0,0.0,0.0,0.0,0.0,0.0,0.0,0.0,0.0,0.0,0.0,0.0,0.0,0.0,0.0,0.0,0.0,0.0,0.0,0.0,0.0,0.0,0.0,0.0,0.0,0.0,0.0,0.0,0.0,0.0,0.0,0.0,0.0,0.0,0.0,0.0,0.0,0.0,0.0,0.0,0.0,0.0,0.0,0.0,0.0,0.0,0.0,0.0,0.0,0.0,0.0,0.0,0.0,0.0,0.0,0.0,0.0,0.0,0.0,0.0,0.0,0.0,0.0,0.0,0.0,0.0,0.0,0.0,0.0,0.0,0.0,0.0,0.0,0.0,0.0,0.0,0.0,0.0,0.0,0.0,0.0,1.6848,1.7024,1.7551,1.73,1.6999,1.6791,0.0,0.0,0.0,0.0,0.0,0.0,0.0,0.0,0.0,0.0,0.0,0.0,0.0,0.0,0.0,0.0,0.0,0.0,0.0,0.0,0.0,0.0,0.0,0.0,0.0,0.0,0.0,0.0,0.0,0.0,0.0,0.0,0.0,0.0,0.0,0.0,0.0,0.0,0.0,0.0,0.0,0.0,0.0,0.0,0.0,0.0,0.0,0.0,0.0,0.0,0.0,0.0,0.0,0.0,0.0,0.0,0.0,0.0,0.0,0.0,0.0,0.0,0.0,0.0,0.0,0.0,0.0,0.0,0.0,0.0,0.0,0.0,0.0,0.0,0.0,0.0,0.0,0.0,0.0,0.0,0.0,0.0,0.0,0.0,0.0,0.0,0.0,0.0,0.0,0.0,0.0,0.0,0.0,0.0,0.0,0.0,0.0,0.0,0.0,0.0,0.0,0.0,0.0,0.0,0.0,0.0,0.0,0.0,1.8028,1.7601,1.7601,1.8129,1.7124,1.6841,0.0,0.0,0.0,0.0,0.0,0.0,0.0,0.0,0.0,0.0,0.0,0.0,0.0,0.0,0.0,0.0,0.0,0.0,0.0,0.0,0.0,0.0,0.0,0.0,0.0,0.0,0.0,0.0,0.0,0.0,0.0,0.0,0.0,0.0,0.0,0.0,0.0,0.0,0.0,0.0,0.0,0.0,0.0,0.0,0.0,0.0,0.0,0.0,0.0,0.0,0.0,0.0,0.0,0.0,0.0,0.0,0.0,0.0,0.0,0.0,0.0,0.0,0.0,0.0,0.0,0.0,0.0,0.0,0.0,0.0,0.0,0.0,0.0,0.0,0.0,0.0,0.0,0.0,0.0,0.0,0.0,0.0,0.0,0.0,0.0,0.0,0.0,0.0,0.0,0.0,0.0,0.0,0.0,0.0,0.0,0.0,0.0,0.0,0.0,0.0,0.0,0.0,0.0,0.0,0.0,0.0,0.0,0.0,0.0,1.7099,1.7275,1.7652,1.8154,1.7476,1.737,0.0,0.0,0.0,0.0,0.0,0.0,0.0,0.0,0.0,0.0,0.0,0.0,0.0,0.0,0.0,0.0,0.0,0.0,0.0,0.0,0.0,0.0,0.0,0.0,0.0,0.0,0.0,0.0,0.0,0.0,0.0,0.0,0.0,0.0,0.0,0.0,0.0,0.0,0.0,0.0,0.0,0.0,0.0,0.0,0.0,0.0,0.0,0.0,0.0,0.0,0.0,0.0,0.0,0.0,0.0,0.0,0.0,0.0,0.0,0.0,0.0,0.0,0.0,0.0,0.0,0.0,0.0,0.0,0.0,0.0,0.0,0.0,0.0,0.0,0.0,0.0,0.0,0.0,0.0,0.0,0.0,0.0,0.0,0.0,0.0,0.0,0.0,0.0,0.0,0.0,0.0,0.0,0.0,0.0,0.0,0.0,0.0,0.0,0.0,0.0,0.0,0.0,0.0,0.0,0.0,0.0,0.0,0.0,0.0,1.815,1.8812,1.9231,1.953,1.8967,1.8598,0.0,0.0,0.0,0.0,0.0,0.0,0.0,0.0,0.0,0.0,0.0,0.0,0.0,0.0,0.0,0.0,0.0,0.0,0.0,0.0,0.0,0.0,0.0,0.0,0.0,0.0,0.0,0.0,0.0,0.0,0.0,0.0,0.0,0.0,0.0,0.0,0.0,0.0,0.0,0.0,0.0,0.0,0.0,0.0,0.0,0.0,0.0,0.0,0.0,0.0,0.0,0.0,0.0,0.0,0.0,0.0,0.0,0.0,0.0,0.0,0.0,0.0,0.0,0.0,0.0,0.0,0.0,0.0,0.0,0.0,0.0,0.0,0.0,0.0,0.0,0.0,0.0,0.0,0.0,0.0,0.0,0.0,0.0,0.0,0.0,0.0,0.0,0.0,0.0,0.0,0.0,0.0,0.0,0.0,0.0,0.0,0.0,0.0,0.0,0.0,0.0,0.0,0.0,0.0,0.0,0.0,0.0,0.0,1.881,2.1506,2.2269,2.2464,2.2511,2.1527,2.0488,0.0,0.0,0.0,0.0,0.0,0.0,0.0,0.0,0.0,0.0,0.0,0.0,0.0,0.0,0.0,0.0,0.0,0.0,0.0,0.0,0.0,0.0,0.0,0.0,0.0,0.0,0.0,0.0,0.0,0.0,0.0,0.0,0.0,0.0,0.0,0.0,0.0,0.0,0.0,0.0,0.0,0.0,0.0,0.0,0.0,0.0,0.0,0.0,0.0,0.0,0.0,0.0,0.0,0.0,0.0,0.0,0.0,0.0,0.0,0.0,0.0,0.0,0.0,0.0,0.0,0.0,0.0,0.0,0.0,0.0,0.0,0.0,0.0,0.0,0.0,0.0,0.0,0.0,0.0,0.0,0.0,0.0,0.0,0.0,0.0,0.0,0.0,0.0,0.0,0.0,0.0,0.0,0.0,0.0,0.0,0.0,0.0,0.0,0.0,0.0,0.0,0.0,0.0,0.0,0.0,0.0,0.0,0.0,0.0,2.1057,2.2501,2.3434,2.3689,2.233,2.1572,0.0,0.0,0.0,0.0,0.0,0.0,0.0,0.0,0.0,0.0,0.0,0.0,0.0,0.0,0.0,0.0,0.0,0.0,0.0,0.0,0.0,0.0,0.0,0.0,0.0,0.0,0.0,0.0,0.0,0.0,0.0,0.0,0.0,0.0,0.0,0.0,0.0,0.0,0.0,0.0,0.0,0.0,0.0,0.0,0.0,0.0,0.0,0.0,0.0,0.0,0.0,0.0,0.0,0.0,0.0,0.0,0.0,0.0,0.0,0.0,0.0,0.0,0.0,0.0,0.0,0.0,0.0,0.0,0.0,0.0,0.0,0.0,0.0,0.0,0.0,0.0,0.0,0.0,0.0,0.0,0.0,0.0,0.0,0.0,0.0,0.0,0.0,0.0,0.0,0.0,0.0,0.0,0.0,0.0,0.0,0.0,0.0,0.0,0.0,0.0,0.0,0.0,0.0,0.0,0.0,0.0,0.0,0.0,0.0,2.3575,2.4643,2.552,2.6022,2.4481,2.353,2.3301,0.0,0.0,0.0,0.0,0.0,0.0,0.0,0.0,0.0,0.0,0.0,0.0,0.0,0.0,0.0,0.0,0.0,0.0,0.0,0.0,0.0,0.0,0.0,0.0,0.0,0.0,0.0,0.0,0.0,0.0,0.0,0.0,0.0,0.0,0.0,0.0,0.0,0.0,0.0,0.0,0.0,0.0,0.0,0.0,0.0,0.0,0.0,0.0,0.0,0.0,0.0,0.0,0.0,0.0,0.0,0.0,0.0,0.0,0.0,0.0,0.0,0.0,0.0,0.0,0.0,0.0,0.0,0.0,0.0,0.0,0.0,0.0,0.0,0.0,0.0,0.0,0.0,0.0,0.0,0.0,0.0,0.0,0.0,0.0,0.0,0.0,0.0,0.0,0.0,0.0,0.0,0.0,0.0,0.0,0.0,0.0,0.0,0.0,0.0,0.0,0.0,0.0,0.0,0.0,0.0,0.0,0.0,0.0,2.8237,2.8222,2.8453,2.8966,2.746,2.6071,0.0,0.0,0.0,0.0,0.0,0.0,0.0,0.0,0.0,0.0,0.0,0.0,0.0,0.0,0.0,0.0,0.0,0.0,0.0,0.0,0.0,0.0,0.0,0.0,0.0,0.0,0.0,0.0,0.0,0.0,0.0,0.0,0.0,0.0,0.0,0.0,0.0,0.0,0.0,0.0,0.0,0.0,0.0,0.0,0.0,0.0,0.0,0.0,0.0,0.0,0.0,0.0,0.0,0.0,0.0,0.0,0.0,0.0,0.0,0.0,0.0,0.0,0.0,0.0,0.0,0.0,0.0,0.0,0.0,0.0,0.0,0.0,0.0,0.0,0.0,0.0,0.0,0.0,0.0,0.0,0.0,0.0,0.0,0.0,0.0,0.0,0.0,0.0,0.0,0.0,0.0,0.0,0.0,0.0,0.0,0.0,0.0,0.0,0.0,0.0,0.0,0.0,0.0,0.0,0.0,0.0,0.0,0.0,0.0,2.8971,2.9464,2.9753,2.9754,2.8557,2.7246,0.0,0.0,0.0,0.0,0.0,0.0,0.0,0.0,0.0,0.0,0.0,0.0,0.0,0.0,0.0,0.0,0.0,0.0,0.0,0.0,0.0,0.0,0.0,0.0,0.0,0.0,0.0,0.0,0.0,0.0,0.0,0.0,0.0,0.0,0.0,0.0,0.0,0.0,0.0,0.0,0.0,0.0,0.0,0.0,0.0,0.0,0.0,0.0,0.0,0.0,0.0,0.0,0.0,0.0,0.0,0.0,0.0,0.0,0.0,0.0,0.0,0.0,0.0,0.0,0.0,0.0,0.0,0.0,0.0,0.0,0.0,0.0,0.0,0.0,0.0,0.0,0.0,0.0,0.0,0.0,0.0,0.0,0.0,0.0,0.0,0.0,0.0,0.0,0.0,0.0,0.0,0.0,0.0,0.0,0.0,0.0,0.0,0.0,0.0,0.0,0.0,0.0,0.0,0.0,0.0,0.0,0.0,0.0,2.9042,3.0592,3.1309,3.1455,3.1129,2.964,2.8383,0.0,0.0,0.0,0.0,0.0,0.0,0.0,0.0,0.0,0.0,0.0,0.0,0.0,0.0,0.0,0.0,0.0,0.0,0.0,0.0,0.0,0.0,0.0,0.0,0.0,0.0,0.0,0.0,0.0,0.0,0.0,0.0,0.0,0.0,0.0,0.0,0.0,0.0,0.0,0.0,0.0,0.0,0.0,0.0,0.0,0.0,0.0,0.0,0.0,0.0,0.0,0.0,0.0,0.0,0.0,0.0,0.0,0.0,0.0,0.0,0.0,0.0,0.0,0.0,0.0,0.0,0.0,0.0,0.0,0.0,0.0,0.0,0.0,0.0,0.0,0.0,0.0,0.0,0.0,0.0,0.0,0.0,0.0,0.0,0.0,0.0,0.0,0.0,0.0,0.0,0.0,0.0,0.0,0.0,0.0,0.0,0.0,0.0,0.0,0.0,0.0,0.0,0.0,0.0,0.0,0.0,0.0,0.0,3.0702,3.2557,3.3185,3.3215,3.2587,3.0791,2.9385,0.0,0.0,0.0,0.0,0.0,0.0,0.0,0.0,0.0,0.0,0.0,0.0,0.0,0.0,0.0,0.0,0.0,0.0,0.0,0.0,0.0,0.0,0.0,0.0,0.0,0.0,0.0,0.0,0.0,0.0,0.0,0.0,0.0,0.0,0.0,0.0,0.0,0.0,0.0,0.0,0.0,0.0,0.0,0.0,0.0,0.0,0.0,0.0,0.0,0.0,0.0,0.0,0.0,0.0,0.0,0.0,0.0,0.0,0.0,0.0,0.0,0.0,0.0,0.0,0.0,0.0,0.0,0.0,0.0,0.0,0.0,0.0,0.0,0.0,0.0,0.0,0.0,0.0,0.0,0.0,0.0,0.0,0.0,0.0,0.0,0.0,0.0,0.0,0.0,0.0,0.0,0.0,0.0,0.0,0.0,0.0,0.0,0.0,0.0,0.0,0.0,0.0,0.0,0.0,0.0,0.0,0.0,0.0,3.1809,3.3245,3.3425,3.3425,3.3305,3.1898,3.0128,0.0,0.0,0.0,0.0,0.0,0.0,0.0,0.0,0.0,0.0,0.0,0.0,0.0,0.0,0.0,0.0,0.0,0.0,0.0,0.0,0.0,0.0,0.0,0.0,0.0,0.0,0.0,0.0,0.0,0.0,0.0,0.0,0.0,0.0,0.0,0.0,0.0,0.0,0.0,0.0,0.0,0.0,0.0,0.0,0.0,0.0,0.0,0.0,2.0273,0.0,0.0,0.0,0.0,0.0,0.0,0.0,0.0,0.0,0.0,0.0,0.0,0.0,0.0,0.0,0.0,0.0,0.0,0.0,0.0,0.0,0.0,0.0,0.0,0.0,0.0,0.0,0.0,0.0,0.0,0.0,0.0,0.0,0.0,0.0,0.0,0.0,0.0,0.0,0.0,0.0,0.0,0.0,0.0,0.0,0.0,0.0,0.0,0.0,0.0,0.0,0.0,0.0,0.0,0.0,0.0,0.0,0.0,0.0,3.2946,3.3933,3.4262,3.4292,3.3933,3.3275,3.1659,0.0,0.0,0.0,0.0,0.0,0.0,0.0,0.0,0.0,0.0,0.0,0.0,0.0,0.0,0.0,0.0,0.0,0.0,0.0,0.0,0.0,0.0,0.0,0.0,0.0,0.0,0.0,0.0,0.0,0.0,0.0,0.0,0.0,0.0,0.0,0.0,0.0,0.0,0.0,0.0,0.0,0.0,0.0,0.0,0.0,0.0,0.0,0.0,0.0,0.0,0.0,0.0,0.0,0.0,0.0,0.0,0.0,0.0,0.0,0.0,0.0,0.0,0.0,0.0,0.0,0.0,0.0,0.0,0.0,0.0,0.0,0.0,0.0,0.0,0.0,0.0,0.0,0.0,0.0,0.0,0.0,0.0,0.0,0.0,0.0,0.0,0.0,0.0,0.0,0.0,0.0,0.0,0.0,0.0,0.0,0.0,0.0,0.0,0.0,0.0,0.0,0.0,0.0,0.0,0.0,0.0,0.0,3.2587,3.3844,3.4655,3.5254,3.5284,3.4778,3.4658,3.3396,3.0818,0.0,0.0,0.0,0.0,0.0,0.0,0.0,0.0,0.0,0.0,0.0,0.0,0.0,0.0,0.0,0.0,0.0,0.0,0.0,0.0,0.0,0.0,0.0,0.0,0.0,0.0,0.0,0.0,0.0,0.0,0.0,0.0,0.0,0.0,0.0,0.0,0.0,0.0,1.7712,1.9368,0.0,0.0,0.0,0.0,0.0,0.0,0.0,0.0,2.2246,0.0,0.0,0.0,0.0,0.0,0.0,0.0,0.0,0.0,0.0,0.0,0.0,0.0,0.0,0.0,0.0,0.0,0.0,0.0,0.0,0.0,0.0,0.0,0.0,0.0,0.0,0.0,0.0,0.0,0.0,0.0,0.0,0.0,0.0,0.0,0.0,0.0,0.0,0.0,0.0,0.0,0.0,0.0,0.0,0.0,0.0,0.0,0.0,0.0,0.0,0.0,0.0,0.0,0.0,0.0,0.0,3.2138,3.3066,3.4145,3.5507,3.5657,3.5721,3.5728,3.5213,3.391,3.1849,0.0,0.0,0.0,0.0,0.0,0.0,0.0,0.0,0.0,0.0,0.0,0.0,0.0,0.0,0.0,0.0,0.0,0.0,0.0,0.0,0.0,0.0,0.0,0.0,0.0,0.0,0.0,0.0,0.0,0.0,0.0,0.0,0.0,0.0,0.0,0.0,0.0,0.0,0.0,2.0968,2.2073,0.0,0.0,0.0,0.0,0.0,0.0,0.0,0.0,2.3171,0.0,0.0,0.0,0.0,0.0,0.0,0.0,0.0,0.0,0.0,0.0,0.0,0.0,0.0,0.0,0.0,0.0,0.0,0.0,0.0,0.0,0.0,0.0,0.0,0.0,0.0,0.0,0.0,0.0,0.0,0.0,0.0,0.0,0.0,0.0,0.0,0.0,0.0,0.0,0.0,0.0,0.0,0.0,0.0,0.0,0.0,0.0,0.0,0.0,0.0,0.0,0.0,0.0,0.0,0.0,3.2586,3.4422,3.5631,3.633,3.6693,3.6758,3.652,3.6186,3.482,0.0,0.0,0.0,0.0,0.0,0.0,0.0,0.0,0.0,0.0,0.0,0.0,0.0,0.0,0.0,0.0,0.0,0.0,0.0,0.0,0.0,0.0,0.0,0.0,0.0,0.0,0.0,0.0,0.0,0.0,0.0,0.0,0.0,0.0,0.0,0.0,0.0,0.0,0.0,0.0,2.2665,2.4031,2.6357,0.0,0.0,0.0,0.0,0.0,0.0,2.604,2.4695,0.0,0.0,0.0,0.0,0.0,0.0,0.0,0.0,0.0,0.0,0.0,0.0,0.0,0.0,0.0,0.0,0.0,0.0,0.0,0.0,0.0,0.0,0.0,0.0,0.0,0.0,0.0,0.0,0.0,0.0,0.0,0.0,0.0,0.0,0.0,0.0,0.0,0.0,0.0,0.0,0.0,0.0,0.0,0.0,0.0,0.0,0.0,0.0,0.0,0.0,0.0,0.0,0.0,0.0,0.0,3.3005,3.5637,3.7036,3.7253,3.777,3.7867,3.7319,3.7197,3.5705,0.0,0.0,0.0,0.0,0.0,0.0,0.0,0.0,0.0,0.0,0.0,0.0,0.0,0.0,0.0,0.0,0.0,0.0,0.0,0.0,0.0,0.0,0.0,0.0,0.0,0.0,0.0,0.0,0.0,0.0,0.0,0.0,0.0,0.0,0.0,0.0,0.0,0.0,0.0,0.0,0.0,2.5939,2.8212,2.9139,0.0,0.0,0.0,0.0,2.8768,2.7561,0.0,0.0,0.0,0.0,0.0,0.0,0.0,0.0,0.0,0.0,0.0,0.0,0.0,0.0,0.0,0.0,0.0,0.0,0.0,0.0,0.0,0.0,0.0,0.0,0.0,0.0,0.0,0.0,0.0,0.0,0.0,0.0,0.0,0.0,0.0,0.0,0.0,0.0,0.0,0.0,0.0,0.0,0.0,0.0,0.0,0.0,0.0,0.0,0.0,0.0,0.0,0.0,0.0,0.0,0.0,0.0,3.3638,3.5721,3.7182,3.8121,3.8213,3.8279,3.8319,3.7735,3.6414,0.0,0.0,0.0,0.0,0.0,0.0,0.0,0.0,0.0,0.0,0.0,0.0,0.0,0.0,0.0,0.0,0.0,0.0,0.0,0.0,0.0,0.0,0.0,0.0,0.0,0.0,0.0,0.0,0.0,0.0,0.0,0.0,0.0,0.0,0.0,0.0,0.0,0.0,0.0,0.0,0.0,2.6919,2.7762,2.8858,2.9588,0.0,0.0,3.0311,3.0255,2.9666,0.0,0.0,0.0,0.0,0.0,0.0,0.0,0.0,0.0,0.0,0.0,0.0,0.0,0.0,0.0,0.0,0.0,0.0,0.0,0.0,0.0,0.0,0.0,0.0,0.0,0.0,0.0,0.0,0.0,0.0,0.0,0.0,0.0,0.0,0.0,0.0,0.0,0.0,0.0,0.0,0.0,0.0,0.0,0.0,0.0,0.0,0.0,0.0,0.0,0.0,0.0,0.0,0.0,0.0,0.0,3.3178,3.5185,3.7227,3.8702,3.9511,3.9542,3.9425,3.9093,3.8785,3.7523,0.0,0.0,0.0,0.0,0.0,0.0,0.0,0.0,0.0,0.0,0.0,0.0,0.0,0.0,0.0,0.0,0.0,0.0,0.0,0.0,0.0,0.0,0.0,0.0,0.0,0.0,0.0,0.0,0.0,0.0,0.0,0.0,0.0,0.0,0.0,0.0,0.0,0.0,0.0,0.0,0.0,0.0,2.9139,3.0403,0.0,0.0,0.0,3.1864,3.119,0.0,0.0,0.0,0.0,0.0,0.0,0.0,0.0,0.0,0.0,0.0,0.0,0.0,0.0,0.0,0.0,0.0,0.0,0.0,0.0,0.0,0.0,0.0,0.0,0.0,0.0,0.0,0.0,0.0,0.0,0.0,0.0,0.0,0.0,0.0,0.0,0.0,0.0,0.0,0.0,0.0,0.0,0.0,0.0,0.0,0.0,0.0,0.0,0.0,0.0,0.0,0.0,0.0,0.0,0.0,0.0,0.0,3.6595,3.8959,4.0378,4.0786,4.0786,4.0478,3.9801,3.9616,0.0,0.0,0.0,0.0,0.0,0.0,0.0,0.0,0.0,0.0,0.0,0.0,0.0,0.0,0.0,0.0,0.0,0.0,0.0,0.0,0.0,0.0,0.0,0.0,0.0,0.0,0.0,1.7413,0.0,0.0,0.0,0.0,0.0,0.0,0.0,0.0,0.0,0.0,0.0,0.0,0.0,0.0,2.8858,3.0544,3.1696,3.2426,0.0,0.0,3.2764,3.1864,3.1724,3.1555,0.0,0.0,0.0,0.0,0.0,0.0,0.0,0.0,0.0,0.0,0.0,0.0,0.0,0.0,0.0,0.0,0.0,0.0,0.0,0.0,0.0,0.0,0.0,0.0,0.0,0.0,0.0,0.0,0.0,0.0,0.0,0.0,0.0,0.0,0.0,0.0,0.0,0.0,0.0,0.0,0.0,0.0,0.0,0.0,0.0,0.0,0.0,0.0,0.0,0.0,0.0,0.0,0.0,0.0,3.644,3.733,4.0484,4.1935,4.1555,4.1524,4.1186,4.0478,3.9862,3.9154,0.0,0.0,0.0,0.0,0.0,0.0,0.0,0.0,0.0,0.0,0.0,0.0,0.0,0.0,0.0,0.0,0.0,0.0,0.0,0.0,0.0,0.0,0.0,0.0,0.0,0.0,0.0,0.0,0.0,0.0,0.0,0.0,0.0,0.0,0.0,0.0,0.0,0.0,0.0,0.0,0.0,2.9954,3.1246,3.1977,3.2426,0.0,3.2426,3.2426,3.237,3.2342,3.2314,3.2286,0.0,0.0,0.0,0.0,0.0,0.0,0.0,0.0,0.0,0.0,0.0,0.0,0.0,0.0,0.0,0.0,0.0,0.0,0.0,0.0,0.0,0.0,0.0,0.0,0.0,0.0,0.0,0.0,0.0,0.0,0.0,0.0,0.0,0.0,0.0,0.0,0.0,0.0,0.0,0.0,0.0,0.0,0.0,0.0,0.0,0.0,0.0,0.0,0.0,0.0,0.0,0.0,0.0,3.7732,3.9235,4.1352,4.259,4.2786,4.2417,4.1894,4.1217,4.134,4.0909,0.0,0.0,0.0,0.0,0.0,0.0,0.0,0.0,0.0,0.0,0.0,0.0,0.0,0.0,0.0,0.0,0.0,0.0,0.0,0.0,0.0,0.0,0.0,0.0,0.0,0.0,0.0,0.0,2.0646,2.0696,2.1209,0.0,0.0,0.0,0.0,0.0,0.0,0.0,0.0,0.0,0.0,3.164,3.2483,3.3157,0.0,0.0,3.3607,3.3972,3.3578,3.3831,3.4084,3.4084,3.4112,0.0,0.0,0.0,0.0,0.0,0.0,0.0,0.0,0.0,0.0,0.0,0.0,0.0,0.0,0.0,0.0,0.0,0.0,0.0,0.0,0.0,0.0,0.0,0.0,0.0,0.0,0.0,0.0,0.0,0.0,0.0,0.0,0.0,0.0,0.0,0.0,0.0,0.0,0.0,0.0,0.0,0.0,0.0,0.0,0.0,0.0,0.0,0.0,0.0,0.0,0.0,0.0,3.9216,4.0847,4.2386,4.331,4.3556,4.3125,4.2571,4.1955,4.2355,4.214,0.0,0.0,0.0,0.0,0.0,0.0,0.0,0.0,0.0,0.0,0.0,0.0,0.0,0.0,0.0,0.0,0.0,0.0,0.0,0.0,0.0,0.0,0.0,0.0,0.0,0.0,0.0,0.0,2.2192,2.2403,2.2724,0.0,0.0,0.0,0.0,0.0,0.0,0.0,0.0,0.0,0.0,3.3185,3.3775,3.4225,3.4365,3.3916,3.4759,3.5264,3.4843,3.5293,3.577,3.5939,0.0,0.0,0.0,0.0,0.0,0.0,0.0,0.0,0.0,0.0,0.0,0.0,0.0,0.0,0.0,0.0,0.0,0.0,0.0,0.0,0.0,0.0,0.0,0.0,0.0,0.0,0.0,2.1695,0.0,0.0,2.2724,0.0,0.0,0.0,0.0,0.0,0.0,0.0,0.0,0.0,0.0,0.0,0.0,0.0,0.0,0.0,0.0,0.0,0.0,0.0,0.0,0.0,0.0,4.0847,4.1586,4.3494,4.4202,4.3618,4.3556,4.3248,4.2633,4.2602,4.2602,4.254,0.0,0.0,0.0,0.0,0.0,0.0,0.0,0.0,0.0,0.0,0.0,0.0,0.0,0.0,0.0,0.0,0.0,0.0,0.0,0.0,0.0,0.0,0.0,0.0,0.0,0.0,2.1578,2.3014,2.4163,0.0,0.0,0.0,0.0,0.0,0.0,0.0,0.0,0.0,3.4775,3.4562,3.445,3.504,3.5226,3.518,3.5198,3.5733,3.6079,3.6051,3.6557,3.7147,0.0,0.0,0.0,0.0,0.0,0.0,0.0,0.0,0.0,0.0,0.0,0.0,0.0,0.0,0.0,0.0,0.0,0.0,0.0,0.0,0.0,0.0,0.0,0.0,0.0,0.0,0.0,2.5854,2.6273,0.0,0.0,0.0,0.0,0.0,0.0,0.0,0.0,0.0,0.0,0.0,3.5309,3.6259,0.0,0.0,0.0,0.0,0.0,0.0,0.0,0.0,0.0,0.0,0.0,0.0,4.2232,4.294,4.4018,4.4449,4.4264,4.4264,4.3925,4.3279,4.3975,4.4153,4.3687,0.0,0.0,0.0,0.0,0.0,0.0,0.0,0.0,0.0,0.0,0.0,0.0,0.0,0.0,0.0,0.0,0.0,0.0,0.0,0.0,0.0,0.0,0.0,0.0,0.0,2.3427,0.0,0.0,0.0,0.0,0.0,0.0,0.0,0.0,0.0,0.0,3.2792,3.4393,3.5677,3.5939,3.6276,3.6894,3.6978,3.6838,0.0,0.0,0.0,0.0,0.0,0.0,0.0,0.0,0.0,0.0,0.0,0.0,0.0,3.6716,3.5398,3.3246,3.2752,3.2488,3.201,0.0,0.0,0.0,0.0,0.0,0.0,0.0,0.0,0.0,0.0,0.0,0.0,0.0,0.0,2.9205,2.9594,2.9624,0.0,0.0,0.0,0.0,0.0,0.0,0.0,0.0,3.6624,3.7759,3.8433,3.9456,3.9924,3.9924,3.9708,3.7984,0.0,0.0,0.0,0.0,0.0,0.0,0.0,0.0,4.3248,4.3925,4.4603,4.4941,4.4941,4.5157,4.5064,4.4633,4.5122,4.5055,4.4371,4.3458,4.2422,0.0,0.0,0.0,0.0,0.0,0.0,0.0,0.0,0.0,0.0,0.0,0.0,0.0,0.0,0.0,0.0,0.0,0.0,0.0,0.0,0.0,0.0,0.0,2.6266,0.0,0.0,0.0,0.0,0.0,0.0,0.0,0.0,0.0,3.2904,3.4607,3.6023,3.6613,3.7259,3.785,3.8468,0.0,0.0,0.0,0.0,0.0,0.0,0.0,4.0603,4.021,4.0294,4.021,3.9592,3.9507,3.9507,3.9507,0.0,0.0,3.6184,3.5562,3.5292,3.4843,3.4266,3.4218,3.5641,3.5719,3.6101,0.0,0.0,0.0,0.0,3.1599,0.0,0.0,0.0,3.1691,3.1779,0.0,3.1839,0.0,0.0,0.0,0.0,3.5462,3.6429,0.0,0.0,4.0913,4.1709,4.2291,4.2498,4.2633,4.2633,4.1986,4.1648,4.1494,3.9647,0.0,0.0,0.0,0.0,0.0,0.0,4.3956,4.4603,4.528,4.5618,4.5649,4.6234,4.6652,4.6621,4.6035,4.5357,4.4678,4.4069,4.3106,4.1688,3.9092,0.0,0.0,0.0,0.0,0.0,0.0,0.0,0.0,0.0,0.0,0.0,0.0,0.0,0.0,0.0,0.0,0.0,0.0,0.0,0.0,2.927,0.0,0.0,0.0,0.0,0.0,0.0,0.0,0.0,0.0,3.5883,3.5423,3.6276,3.7259,3.7906,0.0,0.0,0.0,0.0,4.0069,4.0631,4.125,4.1615,4.1587,4.2177,4.257,4.2542,0.0,0.0,4.0856,4.0744,4.0772,4.0744,4.0744,4.0378,3.9226,3.8532,3.8145,3.8022,3.8003,3.8199,3.8081,3.8835,3.9732,3.5729,0.0,0.0,0.0,0.0,3.4861,3.513,3.5729,3.5729,3.6064,3.6646,3.6646,0.0,0.0,0.0,0.0,0.0,0.0,3.9986,4.1208,4.1991,4.2638,4.3279,4.3831,4.4081,4.3987,4.3802,4.3741,4.371,4.3125,4.2448,4.1771,0.0,0.0,0.0,0.0,4.5095,4.5311,4.5957,4.6296,4.6296,4.6826,4.7387,4.7921,4.7731,4.7245,4.6222,4.5961,4.4912,4.2683,4.1224,0.0,0.0,0.0,0.0,0.0,0.0,0.0,0.0,0.0,0.0,0.0,0.0,0.0,0.0,0.0,0.0,0.0,0.0,0.0,3.2198,3.4339,3.5353,0.0,0.0,0.0,0.0,0.0,0.0,0.0,0.0,0.0,3.7765,3.7709,3.8187,0.0,0.0,4.0575,4.1615,4.1783,4.184,4.2008,4.2205,0.0,4.2289,4.2823,4.3076,4.2654,4.243,4.2233,4.2064,4.2036,4.2036,4.2036,4.2036,4.1924,4.1559,4.0658,3.9984,3.9957,3.9957,4.0096,4.0519,4.0884,4.1362,3.8862,3.9113,3.7803,3.7404,3.7674,3.7982,3.8532,3.9133,3.9204,3.9485,4.002,3.9949,3.9838,3.9745,3.9364,0.0,0.0,0.0,4.2045,4.3261,4.3724,4.4063,4.4413,4.4591,4.4818,4.4941,4.4695,4.4849,4.5372,4.5095,4.4849,4.4572,0.0,4.4295,4.4972,4.5372,4.5711,4.6018,4.6665,4.7004,4.7004,4.7521,4.7949,4.8103,4.8148,4.768,4.6792,4.678,4.5908,4.4068,4.3034,4.2077,0.0,0.0,0.0,0.0,0.0,0.0,0.0,0.0,0.0,0.0,0.0,2.9489,2.9243,0.0,0.0,0.0,3.3938,3.5353,3.638,3.7984,0.0,0.0,0.0,0.0,0.0,0.0,0.0,3.6585,3.7737,3.8889,3.9507,3.9479,3.9704,4.0575,4.1137,4.1896,4.3132,0.0,4.3469,4.3975,4.4059,4.4059,4.4059,4.4369,4.4481,4.4116,4.4059,4.4059,4.4059,4.4059,4.4059,4.4059,4.4059,4.4144,4.4369,4.3778,4.2907,4.2008,4.1812,4.2008,4.2598,4.2907,4.3385,4.1261,4.1832,3.9655,3.9182,3.9841,4.0588,4.1338,4.1912,4.2061,4.2136,4.2136,4.1987,4.1654,4.1195,4.0444,0.0,4.2505,4.3127,4.4172,4.5687,4.5823,4.5782,4.5709,4.5148,4.5141,4.5649,4.511,4.5449,4.6511,4.6113,4.6453,4.7527,4.5696,4.511,4.5711,4.5865,4.6172,4.6665,4.7404,4.7742,4.7793,4.8399,4.8399,4.7862,4.7893,4.7614,4.6854,4.6993,4.6617,4.5773,4.4538,4.3647,4.3189,0.0,0.0,0.0,0.0,0.0,0.0,0.0,0.0,0.0,0.0,0.0,0.0,0.0,0.0,3.5922,3.8409,0.0,4.0991,4.0664,0.0,0.0,0.0,4.143,4.1702,4.1284,4.0718,4.0069,0.0,0.0,4.0772,4.1418,4.1643,4.1137,4.2036,4.3188,4.4397,4.4565,4.4987,4.6083,4.6335,4.6364,4.6307,4.6364,4.6364,4.6335,4.6448,4.6364,4.6364,4.6364,4.642,4.6364,4.642,4.656,4.715,4.7038,4.6588,4.4397,4.3947,4.4059,4.465,4.5155,4.5689,4.1758,4.1984,4.194,4.2259,4.2864,4.3122,4.3273,4.3425,4.3502,4.3579,4.3731,4.3579,4.3411,4.3335,4.3797,4.3994,4.3884,4.5247,4.5728,4.5725,4.6755,4.6899,4.6423,4.6778,4.6795,4.6405,4.6841,4.6934,4.6652,4.7668,4.794,4.7546,4.6716,4.6591,4.7127,4.8173,4.8266,4.7373,4.8573,4.9275,4.9362,4.9331,4.9356,4.9501,5.0089,4.9873,4.8866,4.9061,4.8544,4.6936,4.5787,4.5077,4.5001,4.2971,0.0,0.0,0.0,0.0,0.0,0.0,0.0,0.0,0.0,3.6538,3.5861,0.0,3.9493,0.0,4.1321,4.275,4.2908,4.3701,0.0,0.0,4.4338,4.4488,4.2705,4.2731,4.2702,4.2136,4.1511,4.1418,4.2064,4.3076,4.3863,4.4172,4.4059,4.4425,4.5633,4.5858,4.6111,4.6841,4.7066,4.715,4.7656,4.7684,4.7712,4.7684,4.7684,4.7684,4.7684,4.7684,4.7684,4.7684,4.7684,4.7769,4.7937,4.7909,4.7965,4.7684,4.7347,4.7066,4.7235,4.7347,4.7628,4.3548,4.3685,4.4327,4.4847,4.5153,4.4464,4.4143,4.4143,4.4143,4.422,4.4297,4.4291,4.4437,4.4789,4.5309,4.5387,4.5292,4.6421,4.6837,4.6562,4.7366,4.7707,4.7599,4.7675,4.8098,4.859,4.8413,4.837,4.8636,4.8817,4.8849,4.8639,4.8275,4.8278,4.8555,4.8399,4.8512,4.8974,4.9127,4.9254,4.9291,4.9205,4.9773,5.1057,5.0422,5.0311,5.077,4.9694,4.8765,4.8215,4.7355,4.7153,4.7632,4.6083,4.5541,0.0,0.0,0.0,0.0,0.0,0.0,0.0,0.0,0.0,0.0,0.0,4.2448,4.2756,4.4079,4.491,4.491,4.5865,4.6162,4.5514,4.6607,4.6659,4.4645,4.4763,4.4763,4.45,4.3953,4.4104,4.5096,4.5723,4.6307,4.6897,4.6701,4.6729,4.7347,4.7516,4.774,4.8331,4.8668,4.9061,4.9651,4.9764,4.9764,4.9764,4.9764,4.9764,4.9764,4.9764,4.9764,4.9764,4.9764,4.9848,5.0101,5.0157,5.0297,5.0494,5.041,4.9876,4.9117,4.8949,4.9117,4.5554,4.5772,4.6357,4.6603,4.6511,4.5186,4.4618,4.4618,4.4618,4.4618,4.4572,4.4728,4.5173,4.5716,4.591,4.6042,4.6364,4.7185,4.7603,4.768,4.8022,4.8402,4.8973,4.852,4.9341,5.108,4.9953,4.9913,5.108,4.988,4.9475,5.0005,4.9833,4.9852,5.0056,4.7867,4.7989,5.0513,4.9519,4.9016,4.9099,4.8955,5.0092,5.2335,5.0175,4.9937,5.2125,4.9726,4.8607,4.9296,4.8758,4.8713,4.9634,4.8649,4.7867,0.0,4.5988,0.0,0.0,0.0,0.0,0.0,0.0,0.0,0.0,4.3371,4.5126,4.5772,4.6388,4.6788,4.6973,4.7527,4.7896,4.7855,4.8444,4.838,4.7229,4.7044,4.7085,4.7079,4.6842,4.719,4.8075,4.8226,4.8471,4.9061,4.9258,4.9426,4.9595,4.9426,4.9454,5.0185,5.0831,5.1337,5.1787,5.1983,5.1983,5.1983,5.1955,5.204,5.1955,5.1983,5.2012,5.1983,5.1955,5.2152,5.2742,5.277,5.277,5.2686,5.263,5.2096,5.0663,5.0213,5.0382,4.6419,4.6419,4.6542,4.6603,4.6573,4.6326,4.6124,4.6124,4.6124,4.6076,4.5917,4.5959,4.592,4.5961,4.67,4.6779,4.6395,4.7809,4.8169,4.7676,4.9487,5.0105,4.9833,5.0807,5.1286,5.1145,5.1474,5.1507,5.1145,5.1474,5.1336,5.0676,4.9567,4.9752,5.1141,0.0,0.0,0.0,5.0452,5.1163,5.1836,5.0925,5.1232,5.2714,5.1115,0.0,5.1366,5.1037,5.0532,4.99,4.8403,0.0,0.0,0.0,0.0,0.0,0.0,0.0,0.0,0.0,0.0,0.0,4.5434,4.5126,4.3987,4.528,4.6511,4.7157,4.7342,4.7865,4.8974,4.922,4.9328,4.93,4.9865,5.0171,4.9824,4.9824,4.9819,4.9698,4.9107,4.8538,4.8424,4.8573,4.9314,5.0488,5.0944,5.1674,5.2602,5.145,5.1,5.1983,5.2658,5.3135,5.3276,5.3304,5.3332,5.3332,5.3332,5.3332,5.3388,5.336,5.3332,5.336,5.3304,5.336,5.3529,5.3501,5.3585,5.3501,5.3501,5.3079,5.1759,5.145,5.1478,4.7588,4.7588,4.7588,4.7588,0.0,4.7588,4.7588,4.7558,4.68,4.6548,4.661,4.661,4.6793,4.718,4.7639,4.7935,4.7947,4.8488,4.8916,4.9259,5.0056,5.0689,5.1102,5.1834,5.2474,5.2771,5.2075,5.191,5.2241,5.1545,5.1119,5.0962,4.9876,4.9804,5.0726,4.9037,4.845,4.9158,4.9718,5.0289,5.0992,5.0434,5.1152,5.3142,5.1261,0.0,0.0,0.0,0.0,0.0,0.0,0.0,0.0,4.9048,0.0,4.8488,4.8258,4.8102,4.7911,4.7942,4.7756,4.7446,4.7905,4.7527,4.6172,4.7342,4.8266,4.8604,4.8943,4.9435,5.0112,5.079,5.1138,5.1178,5.2088,5.255,5.215,5.2118,5.2201,5.239,5.1857,5.1366,5.1626,5.1452,5.1839,5.2721,5.282,5.3246,5.4345,5.3385,5.263,5.3473,5.3866,5.4231,5.4512,5.4569,5.4709,5.4934,5.5018,5.5159,5.5468,5.5496,5.5496,5.5524,5.5496,5.5496,5.5496,5.5496,5.5412,5.5131,5.5046,5.4737,5.3782,5.3164,5.2714,4.882,4.882,4.9066,4.9004,4.882,4.8912,4.885,4.8543,4.7272,0.0,0.0,4.7463,4.7821,4.8722,4.8477,4.8775,4.9435,4.8881,4.9377,5.0721,5.0438,5.0972,5.2307,5.2582,5.3268,5.4261,5.2466,5.2198,5.3349,5.1289,5.0472,5.0999,5.0163,4.9623,4.9599,4.8934,4.8749,4.9037,4.8995,4.9306,4.9927,4.984,5.1096,5.3922,5.1423,5.1152,5.3294,5.1083,5.0282,5.1293,5.1057,5.1186,5.1885,5.1566,5.0993,5.0203,4.9158,4.8607,4.8732,4.8684,4.8622,4.8528,4.9316,4.9374,4.8235,4.922,4.9959,5.0205,5.0728,5.1128,5.1374,5.239,5.3067,5.3067,5.4052,5.4449,5.4097,5.4152,5.4328,5.4767,5.428,5.4215,5.5054,5.4371,5.4259,5.4748,5.4251,5.4372,5.5332,5.4657,5.4119,5.4597,5.4709,5.4906,5.5327,5.544,5.5749,5.617,5.6226,5.6535,5.7154,5.7294,5.7266,5.7154,5.7378,5.7294,5.7322,5.721,5.7182,5.6704,5.6592,5.6451,5.5889,5.5046,5.4316,4.9528,4.962,5.079,5.0605,4.9589,5.0174,4.9712,4.8635,4.8419,4.9289,5.0918,4.9166,4.9105,5.0359,4.9074,4.8696,4.8758,4.8666,4.9128,5.0137,5.1289,5.2062,5.2373,5.3679,5.4092,5.3687,5.3281,5.3247,5.3315,5.1756,5.096,5.0876,4.9521,4.8841,4.8769,4.8687,4.9295,5.0623,5.0505,5.1174,5.2681,5.1853,5.2597,5.4996,5.2348,5.1232,5.2308,5.148,5.0876,5.0621,5.0089,4.9649,4.9487,4.9947,5.0058,5.0041,5.0799,5.1083,5.0529,5.0497,5.0165,4.9291,5.0027,5.0451,5.0297,5.0451,5.1036,5.2113,5.2298,5.2914,5.3991,5.4237,5.4299,5.4391,5.4607,5.4851,5.5279,5.5831,5.6219,5.6104,5.6006,5.5824,5.5866,5.4934,5.4446,5.4909,5.5097,5.508,5.5209,5.5197,5.5215,5.5355,5.5383,5.5412,5.5468,5.5496,5.5777,5.6339,5.6002,5.6142,5.721,5.7013,5.6901,5.7294,5.7378,5.7378,5.7378,5.7378,5.7322,5.7182,5.7154,5.7126,5.6985,5.676,5.6395,4.9097,4.9189,4.9774,4.9682,4.9127,4.9435,4.9435,4.9158,4.8789,4.9127,4.9897,4.9004,4.8974,4.9497,4.8881,4.882,4.9189,4.9284,4.9899,5.1083,5.1922,5.2494,5.297,5.3686,5.3822,5.3518,5.3041,5.3041,5.3348,5.1915,5.107,5.1027,4.9846,4.9625,5.0434,5.0434,5.1083,5.214,5.1335,5.1575,5.2892,5.2403,5.2758,5.3961,5.2525,5.2157,5.2819,5.2495,5.2256,5.1991,5.1701,5.1463,5.1307,5.1595,5.1438,5.0929,5.1598,5.1821,5.1296,5.1751,5.202,5.2121,5.2113,5.23,5.2559,5.23,5.2286,5.2637,5.2877,5.3183,5.3591,5.396,5.4176,5.4206,5.4791,5.5345,5.5715,5.633,5.6757,5.6671,5.6546,5.6444,5.6392,5.5768,5.5617,5.6179,5.6297,5.6084,5.5926,5.5651,5.5355,5.5131,5.5299,5.5496,5.5496,5.5496,5.5777,5.6311,5.6198,5.6395,5.721,5.7069,5.7097,5.7294,5.7378,5.7378,5.7378,5.7378,5.7378,5.7378,5.7378,5.7378,5.7378,5.7378,5.7154,4.9004,4.885,4.9189,4.922,4.9035,4.8727,4.8943,4.9374,4.885,4.8604,4.8604,4.8604,4.8789,4.9035,4.8758,4.8995,4.9729,4.9833,5.0671,5.201,5.2251,5.259,5.3212,5.3212,5.3144,5.2937,5.2473,5.2539,5.2927,5.1834,5.1173,5.1005,5.0505,5.0819,5.1954,5.22,5.2893,5.3909,5.2669,5.2284,5.2958,5.2957,5.3067,5.3259,5.3209,5.3373,5.3857,5.3808,5.3725,5.3596,5.3563,5.3499,5.3337,5.3304,5.2889,5.2138,5.2308,5.2308,5.2059,5.2422,5.308,5.3946,5.364,5.342,5.371,5.3821,5.3627,5.3183,5.3303,5.3427,5.362,5.3929,5.4237,5.4422,5.5284,5.593,5.5992,5.6546,5.6977,5.7008,5.7002,5.6976,5.688,5.6606,5.6492,5.6972,5.6894,5.6508,5.6304,5.5736,5.519,5.4878,5.5102,5.5468,5.5496,5.5496,5.5777,5.6311,5.6254,5.6535,5.7041,5.7294,5.7266,5.7294,5.7378,5.7378,5.7378,5.7378,5.7378,5.7378,5.7378,5.7378,5.7378,5.7547,5.7519,5.0112,4.9805,5.079,5.1067,5.0266,4.9127,4.8666,4.8727,4.8635,4.8604,4.8604,4.8604,4.9312,5.0236,4.9158,4.9078,4.9867,4.99,5.0755,5.2119,5.2269,5.2378,5.2483,5.2483,5.1987,5.1573,5.1902,5.227,5.2378,5.2029,5.1517,5.0909,5.1445,5.1922,5.215,5.2877,5.4248,5.6272,5.5455,5.4649,5.4083,5.3975,5.4359,5.5251,5.4971,5.5089,5.5505,5.5325,5.4956,5.4373,5.4341,5.4017,5.3466,5.3337,5.3304,5.3161,5.3207,5.3161,5.3082,5.2426,5.2435,5.2794,5.3133,5.3112,5.2856,5.4096,5.4757,5.4313,5.3895,5.4175,5.5222,5.5376,5.553,5.5961,5.6361,5.6669,5.6638,5.7254,5.7685,5.7685,5.7434,5.7637,5.7962,5.7223,5.6474,5.6775,5.6084,5.5545,5.5526,5.514,5.485,5.4765,5.5131,5.5468,5.5496,5.5496,5.5749,5.6198,5.5945,5.617,5.676,5.6816,5.6648,5.6929,5.721,5.7182,5.7238,5.7378,5.7294,5.7097,5.7154,5.7322,5.7435,5.7716,5.7856,4.9928,4.9712,4.9835,4.9712,4.9374,4.882,4.8604,4.8604,4.8604,4.8604,4.8604,4.8604,4.8943,4.9435,4.9396,4.9309,4.9228,5.0151,5.0919,5.1623,5.2092,5.2506,5.2904,5.2904,5.2663,5.23,5.2547,5.2676,5.2741,5.2684,5.2226,5.1568,5.2638,5.376,5.4581,5.5455,5.6846,5.8648,5.8374,5.7668,5.6705,5.5675,5.5279,5.5474,5.5359,5.5626,5.6326,5.6296,5.6208,5.6284,5.6284,5.596,5.5247,5.5183,5.4826,5.4049,5.3952,5.4067,5.4163,5.3834,5.3637,5.3585,5.4221,5.4603,5.4464,5.5525,5.601,5.548,5.5031,5.4823,5.5068,5.513,5.5253,5.5561,5.5899,5.6146,5.6146,5.6761,5.7161,5.7192,5.7082,5.7167,5.7426,5.6959,5.6817,5.7213,5.6447,5.5584,5.5846,5.5509,5.519,5.5159,5.5355,5.5468,5.5496,5.5496,5.5636,5.5749,5.5693,5.5861,5.6058,5.6114,5.6002,5.6283,5.6395,5.6395,5.6198,5.6283,5.6283,5.6395,5.6339,5.6367,5.6732,5.7322,5.7631,4.9712,4.9343,4.882,4.8604,4.8604,4.8604,4.8727,4.885,4.8696,4.882,4.9158,4.9004,4.9035,4.9211,4.9634,4.9622,4.9459,5.0706,5.1424,5.1653,5.2286,5.2622,5.2931,5.2888,5.2767,5.2509,5.2603,5.2957,5.3246,5.3391,5.3191,5.2995,5.4405,5.5749,5.6743,5.776,5.8997,6.0275,6.0001,5.9315,5.8551,5.7064,5.6027,5.5813,5.5906,5.6273,5.6994,5.726,5.7428,5.77,5.7785,5.7547,5.6834,5.6802,5.6316,5.5409,5.5166,5.5228,5.5577,5.5601,5.5559,5.542,5.6125,5.6499,5.6509,5.6965,5.6899,5.6325,5.6309,5.6029,5.5131,5.5007,5.5068,5.5284,5.5745,5.5992,5.6053,5.6484,5.6792,5.6761,5.6854,5.6726,5.6708,5.688,5.7376,5.7676,5.6874,5.6246,5.6593,5.602,5.5468,5.5496,5.5496,5.5496,5.5496,5.5496,5.5496,5.5496,5.5496,5.5496,5.5496,5.5524,5.5524,5.5861,5.5721,5.5833,5.617,5.6002,5.6058,5.603,5.6058,5.6198,5.676,5.7238,5.7856,4.9866,4.8789,4.8635,4.8696,4.8635,4.8666,4.9035,4.9589,4.8974,4.9374,5.0328,4.9897,4.9989,5.0482,5.0013,5.0123,5.0781,5.148,5.2188,5.2792,5.2902,5.2605,5.1973,5.1973,5.1623,5.1313,5.1754,5.2566,5.384,5.402,5.4421,5.5117,5.6704,5.7574,5.7873,5.9175,6.0376,6.0974,5.963,5.8831,5.925,5.7714,5.6769,5.6738,5.7086,5.7277,5.7527,5.8391,5.8556,5.7916,5.8323,5.8259,5.7611,5.7514,5.7417,5.732,5.7013,5.6959,5.7312,5.7538,5.7836,5.8162,5.8281,5.8291,5.7973,5.8133,5.7895,5.6714,5.7897,5.7886,5.621,5.5899,5.6084,5.6607,5.67,5.6761,5.673,5.6823,5.6761,5.6823,5.6792,5.6874,5.6627,5.76,5.7723,5.7498,5.6979,5.6651,5.6566,5.5933,5.5613,5.5496,5.5496,5.5496,5.5496,5.5496,5.5496,5.5496,5.5496,5.5552,5.5524,5.5496,5.5524,5.5693,5.6114,5.6367,5.6479,5.6704,5.6985,5.7069,5.7013,5.7154,5.7463,5.7912,5.8559,5.082,4.9959,4.9959,4.9928,4.9928,4.9959,5.0112,5.0297,5.0082,5.0205,5.0605,5.042,5.0482,5.0728,5.0913,5.0901,5.0838,5.1528,5.2086,5.2331,5.2331,5.239,5.2586,5.2534,5.2394,5.2048,5.2236,5.2953,5.4008,5.4984,5.5712,5.6336,5.8163,5.9265,5.9418,6.0303,6.1231,6.1829,6.0671,5.9932,5.9499,5.8363,5.7401,5.6858,5.6923,5.7211,5.7495,5.8119,5.8483,5.862,5.9065,5.9004,5.8324,5.7806,5.7547,5.7579,5.7409,5.7603,5.8109,5.8313,5.8494,5.8856,5.9306,5.9441,5.9479,5.9717,5.985,5.9662,5.9823,5.9537,5.8518,5.785,5.7746,5.7993,5.8054,5.7993,5.7962,5.7685,5.7408,5.7346,5.7069,5.7218,5.8075,5.8183,5.7858,5.7774,5.7241,5.668,5.6049,5.5729,5.5496,5.5496,5.5496,5.5496,5.5496,5.5496,5.5496,5.5496,5.5552,5.5805,5.5861,5.6058,5.6114,5.6507,5.6873,5.7069,5.7182,5.7294,5.7603,5.7575,5.7547,5.7969,5.8418,5.8699,5.943,5.1251,5.1005,5.079,5.0697,5.0697,5.0697,5.082,5.0974,5.079,5.0913,5.1251,5.1128,5.1128,5.1405,5.1836,5.1805,5.1462,5.1919,5.2144,5.2144,5.2113,5.2394,5.277,5.2833,5.2822,5.2757,5.3272,5.3922,5.49,5.6431,5.738,5.8115,5.999,6.0964,6.1207,6.1975,6.2651,6.2864,6.185,6.0881,6.0178,5.9029,5.8026,5.7325,5.71,5.7236,5.7495,5.7933,5.8395,5.9004,5.9452,5.949,5.9004,5.8518,5.8259,5.8292,5.8518,5.881,5.9328,5.9749,6.0057,6.0024,6.0596,6.0885,6.0825,6.1148,6.1276,6.1212,6.1186,6.0832,6.0156,5.9587,5.9255,5.8916,5.8793,5.8793,5.8762,5.8362,5.8116,5.8085,5.7993,5.8385,5.9001,5.8546,5.8308,5.8246,5.7611,5.6936,5.6509,5.6049,5.5933,5.5845,5.5613,5.5496,5.5608,5.5721,5.5636,5.5636,5.5917,5.6142,5.6395,5.6564,5.6873,5.7294,5.7575,5.7744,5.7884,5.794,5.794,5.7912,5.8165,5.8531,5.898,5.9373,5.9851,5.1159,5.159,5.0974,5.0851,5.0882,5.0913,5.1159,5.1559,5.1067,5.1528,5.2298,5.1959,5.2021,5.2513,5.2575,5.2637,5.2544,5.2572,5.2572,5.2603,5.2634,5.2634,5.2695,5.2695,5.2815,5.3001,5.4386,5.5506,5.6496,5.7953,5.9452,6.0998,6.1829,6.2539,6.3383,6.389,6.441,6.3967,6.2475,6.162,6.1386,5.9724,5.843,5.7839,5.7715,5.77,5.7558,5.7965,5.8395,5.8882,5.9419,5.9716,5.9619,5.9555,5.9652,5.9716,6.0299,6.0688,6.0915,6.1886,6.2252,6.2073,6.2514,6.2482,6.2201,6.2076,6.179,6.1502,6.1466,6.134,6.0771,6.0648,6.028,5.9101,5.9039,5.9039,5.8947,5.8824,5.8793,5.8824,5.907,5.9348,5.894,5.9047,5.9061,5.8515,5.8305,5.7974,5.764,5.6936,5.6822,5.6509,5.5961,5.5524,5.5749,5.5945,5.5861,5.5833,5.6254,5.6564,5.6901,5.7126,5.7463,5.7856,5.8165,5.8362,5.8587,5.8643,5.8727,5.8783,5.898,5.9036,5.9402,5.9711,5.9767,5.2206,5.2359,5.2175,5.2082,5.2082,5.2082,5.2236,5.239,5.2144,5.2329,5.2637,5.2483,5.2513,5.2667,5.2729,5.2729,5.2729,5.2729,5.2729,5.2729,5.2729,5.2729,5.2729,5.2729,5.3272,5.4354,5.5496,5.6723,5.7937,5.9117,6.0445,6.1886,6.2787,6.3531,6.416,6.4478,6.4334,6.3482,6.232,6.1418,6.0676,5.9425,5.867,5.8454,5.8023,5.7917,5.8182,5.7934,5.7965,5.8487,5.8972,5.9363,5.9628,5.9716,5.9943,6.0397,6.0656,6.1303,6.2145,6.2599,6.2991,6.3191,6.3226,6.3258,6.3258,6.2684,6.2364,6.2365,6.2358,6.1859,6.1464,6.1325,6.0958,6.0209,6.0178,6.0086,5.9993,5.9747,5.9501,5.9439,5.9255,5.9399,5.9838,6.001,5.95,5.9087,5.8931,5.8714,5.7499,5.7049,5.648,5.6049,5.5641,5.5608,5.5861,5.6198,5.6339,5.6423,5.6732,5.7097,5.7407,5.7772,5.8109,5.8362,5.8671,5.8896,5.9121,5.9205,5.9205,5.9205,5.9121,5.9345,5.9711,5.9823,5.9795,5.2729,5.2729,5.2729,5.2729,5.2729,5.2729,5.2729,5.2729,5.2729,5.2729,5.2729,5.2698,5.2729,5.2729,5.2729,5.2729,5.2729,5.2729,5.2729,5.2729,5.2729,5.2729,5.276,5.3006,5.3523,5.4674,5.5994,5.7345,5.8567,5.9479,6.0621,6.2,6.2616,6.313,6.3881,6.4181,6.3935,6.3284,6.2409,6.1662,6.0927,6.0073,5.9408,5.9131,5.8516,5.8319,5.8397,5.7839,5.7778,5.8427,5.8972,5.9452,5.9661,5.9976,6.0243,6.0451,6.0806,6.1289,6.2095,6.2128,6.2385,6.2711,6.2775,6.2649,6.2775,6.2205,6.2173,6.2652,6.2265,6.1901,6.1621,6.1582,6.1379,6.0897,6.0732,6.0794,6.0732,6.0424,6.0209,6.0086,5.9839,6.0024,6.0393,6.0517,5.9784,5.9302,5.9255,5.8822,5.7387,5.6822,5.6394,5.5961,5.5729,5.581,5.6002,5.6367,5.6816,5.7041,5.7294,5.7659,5.7997,5.839,5.8727,5.8812,5.9036,5.9036,5.9205,5.9205,5.9205,5.9205,5.9205,5.9345,5.9542,5.9598,5.9598,5.2729,5.2729,5.2729,5.2729,5.2729,5.2729,5.2729,5.2729,5.2729,5.2729,5.2729,5.2729,5.276,5.279,5.2883,5.2883,5.279,5.2852,5.279,5.2729,5.2729,5.276,5.2914,5.3526,5.4078,5.4572,5.6262,5.7661,5.8722,5.9346,6.0299,6.167,6.1833,6.2107,6.2906,6.3469,6.3822,6.3382,6.265,6.2161,6.1995,6.1184,6.0455,5.9839,5.9193,5.8746,5.8487,5.7932,5.7965,5.8792,5.9152,5.9331,5.9637,6.0308,6.0451,6.028,6.0825,6.1238,6.1274,6.1431,6.1399,6.1463,6.1773,6.1639,6.137,6.1278,6.1249,6.1695,6.1405,6.1235,6.1208,6.12,6.1029,6.0805,6.0732,6.0763,6.0794,6.0763,6.0671,6.0701,6.0763,6.0794,6.0794,6.0628,5.9895,5.9039,5.8931,5.8386,5.7387,5.6822,5.6766,5.6594,5.6181,5.6739,5.7182,5.7716,5.8165,5.8559,5.8531,5.8474,5.8531,5.8783,5.9064,5.9149,5.9317,5.9289,5.9233,5.9233,5.9233,5.9205,5.9205,5.9205,5.9289,5.9402,5.9598,5.2729,5.2729,5.2729,5.2729,5.2729,5.2729,5.2729,5.2729,5.2729,5.2729,5.2729,5.2729,5.3037,5.3437,5.3437,5.3468,5.3406,5.3406,5.3129,5.276,5.2729,5.3037,5.3557,5.4313,5.5207,5.6144,5.7248,5.8727,5.982,5.9581,6.0243,6.166,6.1477,6.1924,6.2761,6.3282,6.3387,6.2778,6.2516,6.1853,6.1277,6.0969,6.0732,6.0517,5.9839,5.9263,5.8752,5.7928,5.7778,5.8303,5.815,5.8243,5.8765,5.9767,6.0468,6.0857,6.1326,6.1865,6.2156,6.1741,6.1607,6.1607,6.1477,6.1607,6.1145,6.0677,6.0487,6.0292,5.9835,5.9501,5.9587,5.968,5.9664,6.0126,6.0393,6.0671,6.0732,6.0794,6.0794,6.0794,6.0732,6.0671,6.0567,6.0119,5.9622,5.9087,5.8515,5.8225,5.7107,5.6738,5.6738,5.7184,5.7246,5.7912,5.8587,5.9121,5.9654,6.016,6.002,5.9458,5.9233,5.898,5.9121,5.9205,5.9542,5.9626,5.9402,5.9261,5.9233,5.9486,5.943,5.9514,5.9317,5.9345,5.9654,5.2729,5.2729,5.2729,5.2729,5.2729,5.2729,5.2729,5.2729,5.2729,5.2883,5.3067,5.3129,5.3498,5.4083,5.3868,5.3714,5.3714,5.3437,5.3067,5.2852,5.3037,5.3345,5.3836,5.4753,5.5871,5.6901,5.7579,5.8462,5.9316,5.8871,5.9122,5.9758,6.0074,6.0297,6.0551,6.1662,6.1877,6.1346,6.1464,6.1379,6.0897,6.0794,6.0794,6.0578,5.9901,5.9047,5.8257,5.7614,5.7495,5.8026,5.815,5.8338,5.8963,6.0152,6.0949,6.1498,6.1524,6.1741,6.1837,6.1225,6.0677,6.0644,6.0644,6.0372,5.9848,5.9444,5.9,5.9152,5.8825,5.8783,5.8831,5.8793,5.8978,5.9316,5.9716,6.0055,6.0332,6.0086,5.9963,5.9963,5.9932,5.9963,5.9993,5.924,5.873,5.8226,5.729,5.6984,5.6594,5.6737,5.6932,5.7394,5.7997,5.8671,5.9121,5.9598,5.957,6.0188,6.0329,5.9935,5.9992,5.9514,5.9683,5.9851,5.9935,5.9964,5.9851,5.9851,6.0132,6.0245,6.002,5.9907,5.9823,5.9598,5.9879,5.2729,5.2729,5.2729,5.2729,5.2729,5.279,5.2883,5.2852,5.3006,5.3406,5.3868,5.3929,5.4483,5.4976,5.4699,5.4145,5.4114,5.3745,5.3345,5.3529,5.396,5.4483,5.4668,5.544,5.6182,5.68,5.6889,5.7665,5.8324,5.7545,5.729,5.8107,5.8133,5.7906,5.8634,5.9363,5.9818,6.0166,6.0691,6.0969,6.0794,6.0763,6.0701,6.0393,5.9285,5.8437,5.7735,5.7208,5.7306,5.8119,5.861,5.8928,5.9749,6.0913,6.1616,6.1816,6.1495,6.1238,6.0764,5.9928,5.9351,5.9575,5.9607,5.9143,5.9158,5.8971,5.8779,5.8892,5.8712,5.8665,5.8739,5.8793,5.8916,5.9039,5.9008,5.9131,5.9369,5.9193,5.8824,5.8978,5.907,5.9039,5.8858,5.8347,5.7752,5.7967,5.6926,5.6366,5.6386,5.6609,5.7259,5.7978,5.8615,5.9289,5.9654,5.9964,5.9683,5.9683,5.9823,5.9851,6.0526,6.0441,6.061,6.0638,6.0245,6.0357,6.0822,6.0963,6.0963,6.0709,6.0329,6.0484,6.0638,6.0273,6.0301,5.2729,5.2729,5.2729,5.2729,5.279,5.3252,5.3498,5.3529,5.4083,5.4607,5.5161,5.5253,5.5961,5.7008,5.6238,5.6115,5.5807,5.5191,5.5068,5.5222,5.6392,5.6854,5.673,5.673,5.6638,5.6946,5.7346,5.7715,5.7715,5.7346,5.71,5.7654,5.7685,5.7746,5.7931,5.8916,5.9778,5.9901,6.0424,6.0732,6.0794,6.0763,6.0517,5.9963,5.8731,5.803,5.7726,5.7521,5.7401,5.7653,5.784,5.8467,5.9317,6.0546,6.1399,6.1495,6.1584,6.1198,6.0344,5.9644,5.9484,6.038,6.0448,6.0897,6.1469,6.0674,6.0094,5.9725,5.9085,5.8807,5.8731,5.8793,5.8877,5.9092,5.8938,5.8705,5.8754,5.8757,5.9092,5.9768,6.0075,6.0463,6.0577,5.9518,5.8667,5.7712,5.6824,5.6072,5.6288,5.6676,5.7547,5.8474,5.9345,5.9992,6.0188,6.0329,5.9992,5.9654,5.9598,5.9724,6.0399,6.0497,6.0456,6.0301,6.0245,6.0681,6.126,6.1105,6.0907,6.0681,6.0539,6.0526,6.0512,6.0512,6.0497,5.2729,5.2729,5.2729,5.2883,5.3221,5.3591,5.3899,5.4268,5.4884,5.5561,5.6176,5.6515,5.71,5.7685,5.7069,5.6577,5.6238,5.593,5.6053,5.6607,5.7438,5.7715,5.7839,5.7777,5.7715,5.7685,5.7346,5.7438,5.75,5.7161,5.6915,5.7254,5.7315,5.7254,5.7408,5.8362,5.8947,5.9378,5.9993,6.0455,6.0732,6.0763,6.024,5.9378,5.8331,5.7654,5.7351,5.7428,5.7527,5.7652,5.7966,5.8751,5.9791,6.1055,6.1813,6.1906,6.1459,6.1225,6.0399,6.0152,6.0192,6.0677,6.1058,6.1119,6.1069,6.059,6.0048,5.9456,5.8978,5.8662,5.8258,5.8126,5.84,5.8491,5.8061,5.7691,5.8006,5.8134,5.8339,5.904,5.8624,5.8791,5.889,5.9014,5.8136,5.662,5.5652,5.5049,5.6767,5.7238,5.8081,5.9008,5.9992,6.061,6.0778,6.0722,6.0385,5.9992,5.9711,5.9724,6.0018,6.0018,5.978,6.0062,6.0512,6.0893,6.1303,6.109,6.1229,6.1342,6.1131,6.0693,6.0624,6.1288,6.1105,5.279,5.2883,5.2975,5.3406,5.3991,5.4206,5.4668,5.5284,5.5776,5.6577,5.7223,5.7839,5.8239,5.8146,5.7685,5.6884,5.6453,5.6577,5.7285,5.8023,5.8208,5.83,5.83,5.8362,5.8331,5.8485,5.7592,5.7346,5.7315,5.71,5.6823,5.6792,5.6792,5.6884,5.6977,5.7438,5.8239,5.8885,5.9562,6.0086,6.0486,6.0517,5.9901,5.8762,5.7931,5.7346,5.7043,5.7242,5.7527,5.7651,5.8751,5.9917,6.1023,6.1845,6.2543,6.2385,6.1655,6.1113,6.0604,6.0703,6.09,6.0611,6.1085,6.1294,6.0687,6.033,6.002,5.9501,5.9205,5.8746,5.7945,5.7888,5.7753,5.7618,5.6894,5.6835,5.7153,5.7363,5.7603,5.7738,5.8005,5.8148,5.7912,5.7722,5.6669,5.5621,5.4743,5.4569,5.6311,5.7631,5.8362,5.9008,5.9851,6.0132,6.0273,6.0329,6.0076,5.9964,5.9654,5.9792,5.9776,5.9776,5.9945,6.0652,6.1076,6.1317,6.157,6.1525,6.1651,6.1908,6.1565,6.0841,6.1269,6.2124,6.1627,5.3037,5.3591,5.4176,5.476,5.5407,5.5992,5.6577,5.7223,5.7346,5.8146,5.9131,5.9378,5.9686,5.9839,5.9562,5.8885,5.827,5.8362,5.8885,5.9255,5.9224,5.9162,5.8916,5.83,5.8023,5.7931,5.7531,5.7315,5.7038,5.6823,5.6761,5.6761,5.6761,5.6761,5.6946,5.7438,5.8023,5.8639,5.9316,5.9778,5.9901,5.9809,5.9316,5.8116,5.7408,5.6977,5.7047,5.7242,5.7745,5.8402,5.9474,6.0392,6.1026,6.1027,6.109,6.1249,6.1567,6.1217,6.0424,6.0899,6.1653,6.1979,6.1878,6.2254,6.2384,6.2156,6.1165,6.0586,5.9893,5.9183,5.9138,5.8196,5.7971,5.7892,5.7576,5.7247,5.6916,5.6747,5.691,5.7202,5.7386,5.7709,5.7465,5.7162,5.6594,5.605,5.5419,5.5355,5.6451,5.7519,5.825,5.8868,5.9458,5.9542,5.9542,5.9542,5.9458,5.9514,5.9373,5.9651,5.9663,5.9758,6.007,6.083,6.124,6.1394,6.1547,6.17,6.1767,6.1681,6.1307,6.084,6.127,6.1604,6.1508,5.3622,5.4299,5.4945,5.5838,5.673,5.7131,5.7654,5.83,5.867,5.9162,5.9747,6.0116,6.027,6.0209,5.9993,5.9593,5.9439,5.9193,5.947,5.9624,5.9439,5.9039,5.8824,5.8023,5.7592,5.7346,5.7223,5.7131,5.6792,5.6761,5.6761,5.6761,5.6761,5.6761,5.6823,5.7069,5.7654,5.827,5.8885,5.9255,5.9193,5.9008,5.83,5.7808,5.7161,5.6792,5.6954,5.759,5.8185,5.894,6.0013,6.0614,6.0803,6.0987,6.1176,6.1597,6.1597,6.1374,6.0924,6.1621,6.2104,6.2027,6.2019,6.2322,6.2426,6.1939,6.139,6.0532,5.9663,5.8456,5.7635,5.7254,5.6858,5.6485,5.6235,5.6041,5.5789,5.5451,5.5734,5.6214,5.6248,5.6536,5.7224,5.7025,5.6645,5.6322,5.5945,5.6226,5.6592,5.7154,5.7772,5.8671,5.9177,5.9149,5.9121,5.9121,5.9189,5.9217,5.9454,5.9578,5.9825,5.9948,6.0402,6.1056,6.1228,6.1307,6.1163,6.1228,6.1322,6.1444,6.127,6.1004,6.094,6.0933,6.1106,5.4483,5.5407,5.6023,5.7038,5.8054,5.8177,5.8577,5.9193,5.9593,5.9839,6.0055,6.0486,6.0486,6.0116,6.0024,5.9932,5.9778,5.9224,5.9316,5.9285,5.8885,5.827,5.7931,5.7562,5.7285,5.6946,5.6854,5.6761,5.6761,5.6761,5.6761,5.6761,5.6761,5.6761,5.6792,5.6854,5.7192,5.7746,5.8239,5.8547,5.8423,5.7962,5.7562,5.7562,5.7038,5.6761,5.6858,5.7619,5.8405,5.9096,5.9917,6.0518,6.0701,6.1027,6.1853,6.2802,6.1833,6.1649,6.1838,6.2405,6.2268,6.1774,6.2001,6.195,6.1545,6.0936,6.0028,5.9288,5.808,5.7078,5.609,5.5616,5.5275,5.4906,5.4317,5.3923,5.4457,5.4402,5.4262,5.4573,5.4765,5.5193,5.588,5.5909,5.5249,5.5249,5.4906,5.5608,5.6002,5.6395,5.7126,5.825,5.884,5.8812,5.8812,5.8992,5.8963,5.9059,5.9532,5.9948,6.0194,6.0438,6.0889,6.1068,6.1068,6.1091,6.101,6.0952,6.1218,6.1247,6.1251,6.1102,6.1039,6.1126,6.127,5.5715,5.7469,5.8116,5.8854,5.947,5.9532,5.9901,6.0393,6.0024,6.0147,6.0578,6.0732,6.0732,6.0609,6.0578,6.0301,5.987,5.947,5.9131,5.8824,5.8208,5.7839,5.7654,5.7131,5.7008,5.6761,5.6761,5.6761,5.6761,5.6761,5.6761,5.6761,5.6761,5.6761,5.6761,5.6761,5.71,5.7654,5.7839,5.79,5.7839,5.7315,5.7008,5.6915,5.6823,5.6823,5.7043,5.7673,5.8359,5.8975,5.9129,5.9989,6.1093,6.0435,6.1485,6.2612,6.2933,6.2259,6.2094,6.2353,6.2312,6.166,6.1433,6.1082,6.0524,5.9575,5.8731,5.87,5.679,5.5487,5.4902,5.4429,5.4036,5.381,5.3613,5.3445,5.3726,5.3581,5.3332,5.3304,5.3726,5.3782,5.4093,5.3979,5.3866,5.3894,5.4063,5.4793,5.558,5.6142,5.6676,5.7828,5.84,5.8372,5.8551,5.8636,5.8786,5.8786,5.9493,6.0051,6.0295,6.0508,6.0831,6.1102,6.1073,6.1073,6.1073,6.1073,6.1193,6.1193,6.1193,6.1193,6.1193,6.128,6.1367,5.7531,5.8393,5.907,5.9747,6.0332,6.0363,6.0517,6.0701,6.0486,6.0517,6.0763,6.0794,6.0794,6.0701,6.0424,6.0055,5.9655,5.9039,5.8516,5.8146,5.7592,5.7223,5.7131,5.6915,5.6761,5.6854,5.6761,5.6761,5.6792,5.6823,5.6761,5.6761,5.6792,5.6761,5.6854,5.6792,5.6915,5.7131,5.7223,5.7408,5.75,5.7161,5.6761,5.6761,5.6761,5.6977,5.7413,5.7824,5.8794,5.9632,6.0328,6.092,6.165,6.1733,6.2426,6.2217,6.2383,6.2198,6.2301,6.2198,6.1803,6.139,6.0813,6.0463,5.9588,5.8249,5.6983,5.6525,5.5233,5.4284,5.3831,5.3331,5.2994,5.277,5.2798,5.2742,5.2742,5.263,5.2489,5.2574,5.2658,5.2798,5.2995,5.3304,5.3416,5.3501,5.3726,5.4316,5.5383,5.6451,5.6957,5.7547,5.7809,5.7817,5.8051,5.8256,5.8497,5.8583,5.928,5.9927,6.0071,6.0398,6.0808,6.1073,6.1073,6.1193,6.1193,6.1193,6.1193,6.1193,6.1193,6.1193,6.1193,6.1193,6.1425,5.9285,5.9347,5.9839,6.0332,6.0794,6.0794,6.0794,6.0794,6.0763,6.0763,6.0732,6.064,6.0517,6.0393,5.9839,5.9408,5.9162,5.8239,5.7746,5.7408,5.7223,5.7131,5.7223,5.7161,5.7346,5.7254,5.7469,5.7438,5.7377,5.7315,5.7254,5.6823,5.7038,5.7038,5.71,5.7285,5.7438,5.7161,5.7161,5.7285,5.7346,5.7038,5.6823,5.6823,5.6946,5.7254,5.7814,5.8535,5.9446,6.0446,6.1177,6.1543,6.2022,6.2352,6.2341,6.2069,6.1915,6.1656,6.1532,6.1274,6.1059,6.0628,5.9961,5.9253,5.8368,5.6793,5.5557,5.5047,5.3884,5.3077,5.263,5.2489,5.2349,5.2096,5.1927,5.1815,5.1815,5.1983,5.2068,5.2124,5.2152,5.204,5.2321,5.277,5.2995,5.3107,5.3445,5.3894,5.4934,5.617,5.676,5.7069,5.6992,5.7231,5.7576,5.7871,5.799,5.8427,5.9123,5.9764,5.9966,6.049,6.0986,6.1193,6.1193,6.1193,6.1193,6.1193,6.1193,6.1193,6.1193,6.1193,6.1193,6.1193,6.1425,6.0671,6.0671,6.0671,6.0732,6.0794,6.0794,6.0794,6.0794,6.0794,6.0794,6.0701,6.0209,5.9932,5.9716,5.9224,5.8577,5.8023,5.7839,5.7562,5.7377,5.7377,5.7654,5.7839,5.8146,5.8485,5.8485,5.8331,5.8393,5.8547,5.827,5.7746,5.7008,5.75,5.7654,5.7839,5.8085,5.7962,5.7685,5.7562,5.7254,5.71,5.6854,5.6884,5.6977,5.7346,5.7746,5.7839,5.8924,6.0043,6.0846,6.1289,6.1753,6.2359,6.2421,6.2223,6.1871,6.1445,6.1094,6.0502,6.0213,5.9893,5.9387,5.8704,5.7825,5.7124,5.5371,5.4331,5.3949,5.293,5.2262,5.1955,5.1843,5.1899,5.1871,5.1787,5.1787,5.1787,5.1787,5.1871,5.1815,5.1787,5.1787,5.1787,5.2293,5.2405,5.2489,5.3023,5.3473,5.4147,5.5331,5.6091,5.6429,5.6148,5.6322,5.7071,5.742,5.7856,5.8377,5.8927,5.9478,5.9972,6.0555,6.1164,6.1193,6.1193,6.1193,6.1193,6.1193,6.1193,6.1193,6.1193,6.1193,6.1193,6.1193,6.1483,6.0794,6.0794,6.0794,6.0794,6.0794,6.0794,6.0794,6.0794,6.0794,6.0794,6.0763,6.0116,5.9778,5.9501,5.867,5.83,5.83,5.7931,5.7869,5.8054,5.827,5.8362,5.8547,5.8639,5.8762,5.8854,5.8824,5.8793,5.8731,5.8916,5.8639,5.8239,5.8331,5.8331,5.8547,5.867,5.8423,5.8023,5.7777,5.7438,5.7008,5.7223,5.7377,5.7438,5.8054,5.8608,5.9008,5.947,6.0363,6.1194,6.1717,6.2271,6.2671,6.2456,6.2148,6.1642,6.1019,6.0092,5.9529,5.9302,5.9168,5.8098,5.7363,5.6466,5.5677,5.4091,5.3267,5.2693,5.2283,5.1787,5.1787,5.1787,5.1815,5.1787,5.1787,5.1787,5.1787,5.1787,5.1787,5.1787,5.1787,5.1787,5.1787,5.1843,5.1843,5.1899,5.2517,5.3135,5.3951,5.4939,5.587,5.6637,5.6585,5.6702,5.7451,5.7627,5.783,5.8321,5.8842,5.9451,6.0032,6.07,6.1193,6.1193,6.1193,6.1193,6.1193,6.1193,6.1193,6.1193,6.1193,6.1193,6.1193,6.1193,6.1483,6.0794,6.0794,6.0794,6.0794,6.0794,6.0794,6.0794,6.0794,6.0794,6.0794,6.0732,6.0116,5.9778,5.9439,5.8701,5.8331,5.8547,5.8362,5.8454,5.8639,5.8885,5.9039,5.9131,5.9316,5.9562,5.9378,5.9378,5.947,5.9532,5.9408,5.9408,5.9408,5.9378,5.9347,5.9131,5.9255,5.9039,5.8547,5.83,5.8023,5.7592,5.7808,5.8085,5.8177,5.8731,5.9193,5.9624,6.0024,6.0855,6.1779,6.2456,6.2733,6.2825,6.2702,6.2196,6.1233,6.0229,5.9332,5.8662,5.8363,5.7851,5.6426,5.5677,5.4756,5.3888,5.3066,5.2414,5.2061,5.1787,5.1787,5.1787,5.1896,5.1896,5.2004,5.2004,5.2004,5.1896,5.1896,5.1787,5.1787,5.1787,5.1787,5.1787,5.1787,5.1787,5.2121,5.2992,5.3528,5.4008,5.5196,5.6475,5.7075,5.7391,5.7682,5.8118,5.8176,5.8378,5.8755,5.9248,5.9539,6.009,6.0758,6.1164,6.1193,6.1193,6.1193,6.1193,6.1193,6.1193,6.1193,6.1193,6.1193,6.1193,6.1193,6.1338,6.0794,6.0794,6.0794,6.0794,6.0794,6.0794,6.0794,6.0794,6.0794,6.0794,6.0701,6.0086,5.9778,5.9593,5.8947,5.8762,5.8885,5.8824,5.8885,5.9131,5.9562,5.9747,5.9963,6.0209,6.0332,6.0671,6.0517,6.0393,6.0578,6.0393,6.0486,6.0578,6.0455,6.0393,5.9901,6.0424,6.0363,5.9839,5.9686,5.9224,5.867,5.8639,5.8731,5.8916,5.9408,5.987,6.0024,6.0363,6.1225,6.2394,6.2548,6.2702,6.2794,6.2595,6.1661,5.9925,5.956,5.8308,5.6403,5.6338,5.5596,5.4699,5.411,5.3598,5.3001,5.2408,5.2004,5.1787,5.1787,5.1787,5.1896,5.2004,5.2004,5.2113,5.2004,5.2004,5.1896,5.1896,5.1787,5.1896,5.1787,5.1787,5.1787,5.1787,5.1787,5.229,5.3329,5.3978,5.429,5.5595,5.708,5.7768,5.8201,5.8548,5.8869,5.8869,5.8927,5.9277,5.9539,5.98,6.0177,6.0758,6.1048,6.1135,6.1193,6.1193,6.1193,6.1193,6.1193,6.1193,6.1193,6.1193,6.1193,6.1193,6.1309,6.0794,6.0794,6.0794,6.0794,6.0794,6.0794,6.0794,6.0794,6.0794,6.0794,6.064,6.0086,5.9778,5.9562,5.9255,5.907,5.9408,5.947,5.9562,6.0086,6.0301,6.0424,6.0547,6.0609,6.0794,6.0794,6.0794,6.0794,6.0732,6.0855,6.0824,6.0855,6.1286,6.1348,6.1225,6.1379,6.1132,6.0578,6.0332,5.9963,5.9039,5.9224,5.947,5.947,6.0086,6.0393,6.0363,6.0701,6.1471,6.2517,6.2548,6.2425,6.2472,6.2227,6.0758,5.9327,5.8654,5.6752,5.5163,5.4448,5.399,5.3423,5.3345,5.2943,5.2301,5.2221,5.2004,5.1896,5.1787,5.1787,5.1787,5.1896,5.1896,5.1896,5.1896,5.1896,5.1896,5.1787,5.1787,5.1896,5.2004,5.1896,5.1896,5.2004,5.2113,5.2481,5.3493,5.4059,5.44,5.6194,5.7801,5.8521,5.9071,5.9478,5.9622,5.9651,5.9478,5.9537,5.9829,6.0032,6.0438,6.0874,6.1048,6.1193,6.1193,6.1193,6.1193,6.1193,6.1193,6.1193,6.1193,6.1193,6.1193,6.1193,6.1222,6.0794,6.0794,6.0794,6.0794,6.0794,6.0794,6.0794,6.0794,6.0794,6.0794,6.0701,6.0332,6.0147,6.0024,5.9778,5.9624,6.0147,6.0147,6.024,6.0794,6.0763,6.0732,6.0732,6.0794,6.0794,6.0794,6.0794,6.0794,6.0824,6.104,6.1348,6.1686,6.1933,6.2271,6.2333,6.2302,6.184,6.1348,6.1071,6.0671,6.0024,5.9901,6.0116,6.024,6.0517,6.0763,6.0763,6.1009,6.1409,6.2179,6.2333,6.2148,6.2181,6.1399,6.0054,5.8922,5.7056,5.5507,5.4429,5.3599,5.3229,5.2622,5.3144,5.2894,5.2113,5.2004,5.1896,5.1896,5.1896,5.1896,5.1787,5.1896,5.2004,5.2004,5.1896,5.1896,5.1896,5.1896,5.2004,5.2113,5.225,5.2113,5.2113,5.225,5.2465,5.2977,5.3628,5.4166,5.4848,5.6708,5.8292,5.8957,5.9651,6.0204,6.0378,6.0555,6.0322,6.0003,6.0177,6.0438,6.0642,6.1048,6.1135,6.1193,6.1193,6.1193,6.1193,6.1193,6.1193,6.1193,6.1193,6.1193,6.1193,6.1193,6.1193,6.0794,6.0794,6.0794,6.0794,6.0794,6.0794,6.0794,6.0794,6.0794,6.0794,6.0763,6.0763,6.0671,6.0732,6.0701,6.0671,6.0671,6.0701,6.0732,6.0763,6.0794,6.0794,6.0794,6.0794,6.0794,6.0794,6.0794,6.0794,6.0886,6.1348,6.1963,6.261,6.2764,6.3164,6.3349,6.3256,6.2641,6.2086,6.1625,6.1163,6.0578,6.0578,6.0609,6.0671,6.0732,6.0794,6.0794,6.0886,6.1594,6.2086,6.2042,6.2226,6.2013,6.123,5.9727,5.7967,5.5674,5.4794,5.4394,5.3726,5.3045,5.2528,5.2414,5.2221,5.2113,5.2004,5.2004,5.1896,5.2004,5.1896,5.1896,5.2113,5.2358,5.225,5.2113,5.2113,5.2113,5.2221,5.2221,5.2358,5.2573,5.2573,5.2573,5.268,5.2816,5.3188,5.3869,5.4754,5.567,5.7484,5.8842,5.9161,6.0061,6.0903,6.1077,6.0961,6.0874,6.0526,6.07,6.0932,6.1106,6.1106,6.1164,6.1193,6.1193,6.1193,6.1193,6.1193,6.1193,6.1193,6.1193,6.1193,6.1193,6.1193,6.1193,6.0794,6.0794,6.0794,6.0794,6.0794,6.0794,6.0794,6.0794,6.0794,6.0794,6.0794,6.0794,6.0794,6.0794,6.0794,6.0794,6.0794,6.0794,6.0763,6.0794,6.0794,6.0794,6.0794,6.0794,6.0794,6.0794,6.0794,6.0824,6.0978,6.1532,6.2548,6.3349,6.3533,6.3964,6.4241,6.4364,6.3441,6.2671,6.2117,6.1502,6.0978,6.0794,6.0794,6.0794,6.0794,6.0794,6.0794,6.0855,6.1594,6.2288,6.0989,6.0714,6.1637,5.9666,5.7727,5.6991,5.5478,5.4509,5.4558,5.3719,5.3001,5.268,5.2573,5.2221,5.2113,5.2004,5.2004,5.2004,5.2004,5.2004,5.2004,5.2113,5.2221,5.2141,5.2113,5.2221,5.225,5.2443,5.2579,5.293,5.3144,5.2894,5.2894,5.2894,5.3087,5.3481,5.4136,5.5111,5.6379,5.8031,5.9248,5.9568,6.0206,6.1077,6.1193,6.1106,6.1135,6.1135,6.1193,6.1193,6.1164,6.1164,6.1164,6.1193,6.1193,6.1193,6.1193,6.1193,6.1193,6.1193,6.1193,6.1193,6.1193,6.1193,6.1193,6.0794,6.0794,6.0794,6.0794,6.0794,6.0794,6.0794,6.0794,6.0794,6.0794,6.0794,6.0794,6.0794,6.0794,6.0794,6.0794,6.0794,6.0794,6.0794,6.0794,6.0794,6.0794,6.0794,6.0794,6.0794,6.0794,6.0855,6.0978,6.1348,6.224,6.3287,6.4149,6.4241,6.4487,6.4641,6.4426,6.3749,6.301,6.2333,6.1686,6.1163,6.0794,6.0794,6.0794,6.0794,6.0794,6.0855,6.0948,6.1567,6.2089,6.0421,6.0265,6.0736,5.882,5.722,5.6422,5.528,5.468,5.4448,5.3582,5.3095,5.2787,5.268,5.2465,5.2221,5.2113,5.2113,5.2113,5.2113,5.2113,5.2113,5.2113,5.2004,5.2004,5.2113,5.225,5.2471,5.2801,5.3074,5.3452,5.3473,5.3271,5.3213,5.3242,5.3299,5.3666,5.4302,5.5365,5.6553,5.8116,5.9219,5.98,6.0467,6.1193,6.1164,6.1135,6.1193,6.1193,6.1193,6.1193,6.1193,6.1193,6.1193,6.1193,6.1193,6.1193,6.1193,6.1193,6.1193,6.1193,6.1193,6.1193,6.1193,6.1193,6.1193,6.0794,6.0794,6.0794,6.0794,6.0794,6.0794,6.0794,6.0794,6.0794,6.0794,6.0794,6.0794,6.0794,6.0794,6.0794,6.0794,6.0794,6.0794,6.0794,6.0794,6.0794,6.0794,6.0794,6.0794,6.0917,6.0886,6.1071,6.1471,6.221,6.2979,6.3841,6.4826,6.4826,6.4857,6.4795,6.4487,6.381,6.2979,6.2579,6.2117,6.1132,6.0794,6.0794,6.0794,6.0794,6.0794,6.0978,6.1199,6.1661,6.1195,6.0646,6.0245,5.9392,5.8566,5.7222,5.6363,5.5194,5.4848,5.4362,5.3611,5.2852,5.2573,5.2573,5.2465,5.2358,5.2221,5.2221,5.2221,5.225,5.225,5.2221,5.2221,5.2221,5.2221,5.2329,5.2573,5.2737,5.3238,5.3856,5.4128,5.4264,5.3926,5.3637,5.3801,5.383,5.3917,5.4546,5.5591,5.6955,5.8348,5.9045,5.9887,6.0642,6.1106,6.0961,6.0961,6.1135,6.1193,6.1193,6.1193,6.1193,6.1193,6.1193,6.1193,6.1193,6.1193,6.1193,6.1193,6.1193,6.1193,6.1193,6.1193,6.1193,6.1193,6.1193,6.0794,6.0794,6.0794,6.0794,6.0794,6.0794,6.0794,6.0794,6.0794,6.0794,6.0794,6.0794,6.0794,6.0794,6.0794,6.0794,6.0794,6.0794,6.0794,6.0794,6.0794,6.0794,6.0824,6.0886,6.1101,6.144,6.1748,6.2179,6.3041,6.3718,6.418,6.4826,6.4888,6.4888,6.4888,6.4549,6.4026,6.3041,6.2733,6.2179,6.1132,6.0824,6.0794,6.0794,6.0794,6.0794,6.0801,6.07,6.1122,6.1077,5.9546,5.86,5.7768,5.7138,5.6908,5.6536,5.5364,5.482,5.4333,5.3589,5.293,5.2787,5.2787,5.268,5.2573,5.2358,5.225,5.2358,5.2358,5.2358,5.2358,5.2358,5.2465,5.2573,5.268,5.2787,5.3001,5.3732,5.4525,5.467,5.4894,5.4633,5.4284,5.4197,5.4284,5.4546,5.4952,5.5881,5.7361,5.8668,5.8958,5.9742,6.0642,6.1019,6.0874,6.0903,6.1106,6.1193,6.1193,6.1193,6.1164,6.1193,6.1193,6.1193,6.1193,6.1193,6.1193,6.1193,6.1193,6.1193,6.1193,6.1193,6.1193,6.1193,6.1193,6.0586,6.0241,6.0241,6.0241,6.0241,6.0241,6.0241,6.0241,6.0241,6.0481,6.0794,6.0794,6.0794,6.0794,6.0794,6.0794,6.0794,6.0794,6.0794,6.0794,6.0794,6.0794,6.0855,6.1071,6.1409,6.1809,6.2548,6.3195,6.3841,6.4241,6.4611,6.4857,6.4888,6.4888,6.4888,6.4795,6.4364,6.3349,6.3041,6.224,6.1255,6.1009,6.0824,6.0794,6.0794,6.069,6.0502,6.0391,6.0535,6.0191,5.8726,5.7801,5.7025,5.668,5.6537,5.608,5.5366,5.4537,5.4194,5.3646,5.2844,5.268,5.2652,5.2437,5.2465,5.225,5.225,5.2358,5.2465,5.2573,5.2465,5.2437,5.268,5.2894,5.3058,5.3299,5.3492,5.3859,5.44,5.4633,5.4604,5.4313,5.4023,5.3907,5.4168,5.501,5.5445,5.6229,5.771,5.8726,5.9045,5.951,6.0351,6.0961,6.1019,6.1048,6.1135,6.1193,6.1048,6.1106,6.1077,6.1135,6.1193,6.1106,6.1106,6.1193,6.1193,6.1193,6.1193,6.1193,6.1193,6.1193,6.1193,6.1135,6.099,6.0136,5.9362,5.9362,5.9362,5.9362,5.9469,5.9606,5.9606,5.9683,6.0136,6.069,6.069,6.069,6.0794,6.0794,6.0794,6.0794,6.0794,6.0794,6.0794,6.0897,6.1155,6.1433,6.168,6.1976,6.2411,6.3101,6.3578,6.4087,6.4487,6.4764,6.4888,6.4888,6.4777,6.4777,6.4826,6.4316,6.3531,6.3009,6.2579,6.184,6.1163,6.0886,6.0794,6.069,6.0241,6.0213,6.0306,6.0274,5.9509,5.8519,5.7451,5.6823,5.6308,5.6193,5.5908,5.5026,5.4485,5.4087,5.3177,5.2693,5.2358,5.2221,5.2221,5.225,5.225,5.225,5.2358,5.2573,5.268,5.2573,5.268,5.2894,5.3136,5.3405,5.3762,5.3878,5.3994,5.4255,5.4546,5.4429,5.4197,5.3994,5.3849,5.4313,5.5184,5.6026,5.6955,5.7797,5.8406,5.89,5.9335,5.9945,6.0467,6.0642,6.0787,6.0671,6.0584,6.0438,6.0758,6.0932,6.0816,6.0787,6.0932,6.0961,6.0932,6.1106,6.1193,6.1193,6.1135,6.1193,6.1164,6.1106,6.1019,6.07,5.9285,5.8415,5.8415,5.8415,5.8525,5.9147,5.9499,5.9576,6.0136,6.069,6.0586,6.0241,6.0346,6.0794,6.0794,6.0794,6.0659,6.0794,6.0794,6.0794,6.1299,6.1814,6.2084,6.2069,6.273,6.3179,6.3537,6.3934,6.4236,6.4734,6.4888,6.4888,6.4777,6.4524,6.3932,6.4066,6.4359,6.3556,6.3377,6.3041,6.1994,6.1348,6.0886,6.0586,6.0136,6.0241,6.0471,6.0844,6.0663,5.9968,5.8782,5.7654,5.6764,5.6193,5.6077,5.5965,5.5083,5.4654,5.4112,5.3314,5.2858,5.2787,5.268,5.2465,5.2573,5.2573,5.2573,5.2573,5.268,5.2787,5.2787,5.2894,5.3107,5.3319,5.3559,5.3849,5.4081,5.4226,5.4429,5.4691,5.4865,5.4604,5.4342,5.4255,5.4255,5.501,5.5503,5.6432,5.7448,5.8087,5.8726,5.9074,5.951,5.9161,5.8987,5.9742,5.9829,5.9771,5.98,6.0032,6.0177,6.0235,6.0293,6.038,6.0496,6.0526,6.0729,6.0845,6.1048,6.1019,6.1135,6.1164,6.1077,6.0816,6.0467]},{"header":{"parameterUnit":"m.s-1","parameterCategory":1,"la1":31.0,"la2":29.5877,"lo1":-88.7671,"lo2":-86.6584,"dx":0.0162,"dy":0.0185,"nx":115,"ny":88,"refTime":"2023-01-05T18:00:00:Z","depth":0,"parameterNumber":3,"parameterNumberName":"V-component_of_WINDS"},"data":[0.0,0.0,0.0,0.0,0.0,0.0,0.0,0.0,0.0,0.0,0.0,0.0,0.0,0.0,0.0,0.0,0.0,0.0,0.0,0.0,0.0,0.0,0.0,0.0,0.0,0.0,0.0,0.0,0.0,0.0,0.0,0.0,0.0,0.0,0.0,0.0,0.0,0.0,0.0,0.0,0.0,0.0,0.0,0.0,0.0,0.0,0.0,0.0,0.0,0.0,0.0,0.0,0.0,0.0,0.0,0.0,0.0,0.0,0.0,0.0,0.0,0.0,0.0,0.0,0.0,0.0,0.0,0.0,0.0,0.0,0.0,0.0,0.0,0.0,0.0,0.0,0.0,0.0,0.0,0.0,0.0,0.0,0.0,0.0,0.0,0.0,0.0,0.0,0.0,0.0,0.0,0.0,0.0,0.0,0.0,0.0,0.0,0.0,0.0,0.0,0.0,0.0,0.0,0.0,0.0,0.0,0.0,0.0,0.0,0.0,0.0,0.0,0.0,0.0,0.0,0.0,0.0,0.0,0.0,0.0,0.0,0.0,0.0,0.0,0.0,0.0,0.0,0.0,0.0,0.0,0.0,0.0,0.0,0.0,0.0,0.0,0.0,0.0,0.0,0.0,0.0,0.0,0.0,0.0,0.0,0.0,0.0,0.0,0.0,0.0,0.0,0.0,0.0,0.0,0.0,0.0,0.0,0.0,0.0,0.0,0.0,0.0,0.0,0.0,0.0,0.0,0.0,0.0,0.0,0.0,0.0,0.0,0.0,0.0,0.0,0.0,0.0,0.0,0.0,0.0,0.0,0.0,0.0,0.0,0.0,0.0,0.0,0.0,0.0,0.0,0.0,0.0,0.0,0.0,0.0,0.0,0.0,0.0,0.0,0.0,0.0,0.0,0.0,0.0,0.0,0.0,0.0,0.0,0.0,0.0,0.0,0.0,0.0,0.0,0.0,0.0,0.0,0.0,0.0,0.0,0.0,0.0,0.0,0.0,0.0,0.0,0.0,0.0,0.0,0.0,0.0,0.0,0.0,0.0,0.0,0.0,0.0,0.0,0.0,0.0,0.0,0.0,0.0,0.0,0.0,0.0,0.0,0.0,0.0,0.0,0.0,0.0,0.0,0.0,0.0,0.0,0.0,0.0,0.0,0.0,0.0,0.0,0.0,0.0,0.0,0.0,0.0,0.0,0.0,0.0,0.0,0.0,0.0,0.0,0.0,0.0,0.0,0.0,0.0,0.0,0.0,0.0,0.0,0.0,0.0,0.0,0.0,0.0,0.0,0.0,0.0,0.0,0.0,0.0,0.0,0.0,0.0,0.0,0.0,0.0,0.0,0.0,0.0,0.0,0.0,0.0,0.0,0.0,0.0,0.0,0.0,0.0,0.0,0.0,0.0,0.0,0.0,0.0,0.0,0.0,0.0,0.0,0.0,0.0,0.0,0.0,0.0,0.0,0.0,0.0,0.0,0.0,0.0,0.0,0.0,0.0,0.0,0.0,0.0,0.0,0.0,0.0,0.0,0.0,0.0,0.0,0.0,0.0,0.0,0.0,0.0,0.0,0.0,0.0,0.0,0.0,0.0,0.0,0.0,0.0,0.0,0.0,0.0,0.0,0.0,0.0,0.0,0.0,0.0,0.0,0.0,0.0,0.0,0.0,0.0,0.0,0.0,0.0,0.0,0.0,0.0,0.0,0.0,0.0,0.0,0.0,0.0,0.0,0.0,0.0,0.0,0.0,0.0,0.0,0.0,0.0,0.0,0.0,0.0,0.0,0.0,0.0,0.0,0.0,0.0,0.0,0.0,0.0,0.0,0.0,0.0,0.0,0.0,0.0,0.0,0.0,0.0,0.0,0.0,0.0,0.0,0.0,0.0,0.0,0.0,0.0,0.0,0.0,0.0,0.0,0.0,0.0,0.0,0.0,0.0,0.0,0.0,0.0,0.0,0.0,0.0,0.0,0.0,0.0,0.0,0.0,0.0,0.0,0.0,0.0,0.0,0.0,0.0,0.0,0.0,0.0,0.0,0.0,0.0,0.0,0.0,0.0,0.0,0.0,0.0,0.0,0.0,0.0,0.0,0.0,0.0,0.0,0.0,0.0,0.0,0.0,0.0,0.0,0.0,0.0,0.0,0.0,0.0,0.0,0.0,0.0,0.0,0.0,0.0,0.0,0.0,0.0,0.0,0.0,0.0,0.0,0.0,0.0,0.0,0.0,0.0,0.0,0.0,0.0,0.0,0.0,0.0,0.0,0.0,0.0,0.0,0.0,0.0,0.0,0.0,0.0,0.0,0.0,0.0,0.0,0.0,0.0,0.0,0.0,0.0,0.0,0.0,0.0,0.0,0.0,0.0,0.0,0.0,0.0,0.0,0.0,0.0,0.0,0.0,0.0,0.0,0.0,0.0,0.0,0.0,0.0,0.0,0.0,0.0,0.0,0.0,0.0,0.0,0.0,0.0,0.0,0.0,0.0,0.0,0.0,0.0,0.0,0.0,0.0,0.0,0.0,0.0,0.0,0.0,0.0,0.0,0.0,0.0,0.0,0.0,0.0,0.0,0.0,0.0,0.0,0.0,0.0,0.0,0.0,0.0,0.0,0.0,0.0,0.0,0.0,0.0,0.0,0.0,0.0,0.0,0.0,0.0,0.0,0.0,0.0,0.0,0.0,0.0,0.0,0.0,0.0,0.0,0.0,0.0,0.0,0.0,0.0,0.0,0.0,0.0,0.0,0.0,0.0,0.0,0.0,0.0,0.0,0.0,0.0,0.0,0.0,0.0,0.0,0.0,0.0,0.0,0.0,0.0,0.0,0.0,0.0,0.0,0.0,0.0,0.0,0.0,0.0,0.0,0.0,0.0,0.0,0.0,0.0,0.0,0.0,0.0,0.0,0.0,0.0,0.0,0.0,0.0,0.0,0.0,0.0,0.0,0.0,0.0,0.0,0.0,0.0,0.0,0.0,0.0,0.0,0.0,0.0,0.0,0.0,0.0,0.0,0.0,0.0,0.0,0.0,0.0,0.0,0.0,0.0,0.0,0.0,0.0,0.0,0.0,0.0,0.0,0.0,0.0,0.0,0.0,0.0,0.0,0.0,0.0,0.0,0.0,0.0,0.0,0.0,0.0,0.0,0.0,0.0,0.0,0.0,0.0,0.0,0.0,0.0,0.0,0.0,0.0,0.0,0.0,0.0,0.0,0.0,0.0,0.0,0.0,0.0,0.0,0.0,0.0,0.0,0.0,0.0,0.0,0.0,0.0,0.0,0.0,0.0,0.0,0.0,0.0,0.0,0.0,0.0,0.0,0.0,0.0,0.0,0.0,0.0,0.0,0.0,0.0,0.0,0.0,0.0,0.0,0.0,0.0,0.0,0.0,0.0,0.0,0.0,0.0,0.0,0.0,0.0,0.0,0.0,0.0,0.0,0.0,0.0,0.0,0.0,0.0,0.0,0.0,0.0,0.0,0.0,0.0,0.0,0.0,0.0,0.0,0.0,0.0,0.0,0.0,0.0,0.0,0.0,0.0,0.0,0.0,0.0,0.0,0.0,0.0,0.0,0.0,0.0,0.0,0.0,0.0,0.0,0.0,0.0,0.0,0.0,0.0,0.0,0.0,0.0,0.0,0.0,0.0,0.0,0.0,0.0,0.0,0.0,0.0,0.0,0.0,0.0,0.0,0.0,0.0,0.0,0.0,0.0,0.0,0.0,0.0,0.0,0.0,0.0,0.0,0.0,0.0,0.0,0.0,0.0,0.0,0.0,0.0,0.0,0.0,0.0,0.0,0.0,0.0,0.0,0.0,0.0,0.0,0.0,0.0,0.0,0.0,0.0,0.0,0.0,0.0,0.0,0.0,0.0,0.0,0.0,0.0,0.0,0.0,0.0,0.0,0.0,0.0,0.0,0.0,0.0,0.0,0.0,0.0,0.0,0.0,0.0,0.0,0.0,0.0,0.0,0.0,0.0,0.0,0.0,0.0,0.0,0.0,0.0,0.0,0.0,0.0,0.0,0.0,0.0,0.0,0.0,0.0,0.0,0.0,0.0,0.0,0.0,0.0,0.0,0.0,0.0,0.0,0.0,0.0,0.0,0.0,0.0,0.0,0.0,0.0,0.0,0.0,0.0,0.0,0.0,0.0,0.0,0.0,0.0,0.0,0.0,0.0,0.0,0.0,0.0,0.0,0.0,0.0,0.0,0.0,0.0,0.0,0.0,0.0,0.0,0.0,0.0,0.0,0.0,0.0,0.0,0.0,0.0,0.0,0.0,-1.9959,0.0,0.0,0.0,-1.9869,0.0,0.0,0.0,0.0,0.0,0.0,0.0,0.0,0.0,0.0,0.0,0.0,0.0,0.0,0.0,0.0,0.0,0.0,0.0,0.0,0.0,0.0,0.0,0.0,0.0,0.0,0.0,0.0,0.0,0.0,0.0,0.0,0.0,0.0,0.0,0.0,0.0,0.0,0.0,0.0,0.0,0.0,0.0,0.0,0.0,0.0,0.0,0.0,0.0,0.0,0.0,0.0,0.0,0.0,0.0,0.0,0.0,0.0,0.0,0.0,0.0,0.0,0.0,0.0,0.0,0.0,0.0,0.0,0.0,0.0,0.0,0.0,0.0,0.0,0.0,0.0,0.0,0.0,0.0,0.0,0.0,0.0,0.0,0.0,0.0,0.0,0.0,0.0,0.0,0.0,0.0,0.0,0.0,0.0,0.0,0.0,0.0,0.0,0.0,0.0,0.0,0.0,0.0,0.0,0.0,0.0,0.0,0.0,0.0,0.0,-2.0228,-1.9301,-2.0528,-2.0767,-1.975,0.0,0.0,0.0,0.0,0.0,0.0,0.0,0.0,0.0,0.0,0.0,0.0,0.0,0.0,0.0,0.0,0.0,0.0,0.0,0.0,0.0,0.0,0.0,0.0,0.0,0.0,0.0,0.0,0.0,0.0,0.0,0.0,0.0,0.0,0.0,0.0,0.0,0.0,0.0,0.0,0.0,0.0,0.0,0.0,0.0,0.0,0.0,0.0,0.0,0.0,0.0,0.0,0.0,0.0,0.0,0.0,0.0,0.0,0.0,0.0,0.0,0.0,0.0,0.0,0.0,0.0,0.0,0.0,0.0,0.0,0.0,0.0,0.0,0.0,0.0,0.0,0.0,0.0,0.0,0.0,0.0,0.0,0.0,0.0,0.0,0.0,0.0,0.0,0.0,0.0,0.0,0.0,0.0,0.0,0.0,0.0,0.0,0.0,0.0,0.0,0.0,0.0,0.0,0.0,0.0,0.0,0.0,0.0,0.0,0.0,0.0,0.0,-2.0917,-2.1006,-1.9959,0.0,0.0,0.0,0.0,0.0,0.0,0.0,0.0,0.0,0.0,0.0,0.0,0.0,0.0,0.0,0.0,0.0,0.0,0.0,0.0,0.0,0.0,0.0,0.0,0.0,0.0,0.0,0.0,0.0,0.0,0.0,0.0,0.0,0.0,0.0,0.0,0.0,0.0,0.0,0.0,0.0,0.0,0.0,0.0,0.0,0.0,0.0,0.0,0.0,0.0,0.0,0.0,0.0,0.0,0.0,0.0,0.0,0.0,0.0,0.0,0.0,0.0,0.0,0.0,0.0,0.0,0.0,0.0,0.0,0.0,0.0,0.0,0.0,0.0,0.0,0.0,0.0,0.0,0.0,0.0,0.0,0.0,0.0,0.0,0.0,0.0,0.0,0.0,0.0,0.0,0.0,0.0,0.0,0.0,0.0,0.0,0.0,0.0,0.0,0.0,0.0,0.0,0.0,0.0,0.0,0.0,0.0,0.0,0.0,0.0,-2.0049,-2.0617,-2.0737,0.0,-2.0587,0.0,0.0,0.0,0.0,0.0,0.0,0.0,0.0,0.0,0.0,0.0,0.0,0.0,0.0,0.0,0.0,0.0,0.0,0.0,0.0,0.0,0.0,0.0,0.0,0.0,0.0,0.0,0.0,0.0,0.0,0.0,0.0,0.0,0.0,0.0,0.0,0.0,0.0,0.0,0.0,0.0,0.0,0.0,0.0,0.0,0.0,0.0,0.0,0.0,0.0,0.0,0.0,0.0,0.0,0.0,0.0,0.0,0.0,0.0,0.0,0.0,0.0,0.0,0.0,0.0,0.0,0.0,0.0,0.0,0.0,0.0,0.0,0.0,0.0,0.0,0.0,0.0,0.0,0.0,0.0,0.0,0.0,0.0,0.0,0.0,0.0,0.0,0.0,0.0,0.0,0.0,0.0,0.0,0.0,0.0,0.0,0.0,0.0,0.0,0.0,0.0,0.0,0.0,0.0,0.0,0.0,0.0,0.0,0.0,0.0,-2.0019,-2.0707,-2.0707,-2.0528,0.0,0.0,0.0,0.0,0.0,0.0,0.0,0.0,0.0,0.0,0.0,0.0,0.0,0.0,0.0,0.0,0.0,0.0,0.0,0.0,0.0,0.0,0.0,0.0,0.0,0.0,0.0,0.0,0.0,0.0,0.0,0.0,0.0,0.0,0.0,0.0,0.0,0.0,0.0,0.0,0.0,0.0,0.0,0.0,0.0,0.0,0.0,0.0,0.0,0.0,0.0,0.0,0.0,0.0,0.0,0.0,0.0,0.0,0.0,0.0,0.0,0.0,0.0,0.0,0.0,0.0,0.0,0.0,0.0,0.0,0.0,0.0,0.0,0.0,0.0,0.0,0.0,0.0,0.0,0.0,0.0,0.0,0.0,0.0,0.0,0.0,0.0,0.0,0.0,0.0,0.0,0.0,0.0,0.0,0.0,0.0,0.0,0.0,0.0,0.0,0.0,0.0,0.0,0.0,0.0,0.0,0.0,0.0,0.0,0.0,-2.0079,-2.0288,-2.0917,-2.0617,-2.0258,-1.9922,0.0,0.0,0.0,0.0,0.0,0.0,0.0,0.0,0.0,0.0,0.0,0.0,0.0,0.0,0.0,0.0,0.0,0.0,0.0,0.0,0.0,0.0,0.0,0.0,0.0,0.0,0.0,0.0,0.0,0.0,0.0,0.0,0.0,0.0,0.0,0.0,0.0,0.0,0.0,0.0,0.0,0.0,0.0,0.0,0.0,0.0,0.0,0.0,0.0,0.0,0.0,0.0,0.0,0.0,0.0,0.0,0.0,0.0,0.0,0.0,0.0,0.0,0.0,0.0,0.0,0.0,0.0,0.0,0.0,0.0,0.0,0.0,0.0,0.0,0.0,0.0,0.0,0.0,0.0,0.0,0.0,0.0,0.0,0.0,0.0,0.0,0.0,0.0,0.0,0.0,0.0,0.0,0.0,0.0,0.0,0.0,0.0,0.0,0.0,0.0,0.0,0.0,0.0,0.0,0.0,0.0,0.0,0.0,-2.1485,-2.0976,-2.0976,-2.1605,-2.0408,-1.9982,0.0,0.0,0.0,0.0,0.0,0.0,0.0,0.0,0.0,0.0,0.0,0.0,0.0,0.0,0.0,0.0,0.0,0.0,0.0,0.0,0.0,0.0,0.0,0.0,0.0,0.0,0.0,0.0,0.0,0.0,0.0,0.0,0.0,0.0,0.0,0.0,0.0,0.0,0.0,0.0,0.0,0.0,0.0,0.0,0.0,0.0,0.0,0.0,0.0,0.0,0.0,0.0,0.0,0.0,0.0,0.0,0.0,0.0,0.0,0.0,0.0,0.0,0.0,0.0,0.0,0.0,0.0,0.0,0.0,0.0,0.0,0.0,0.0,0.0,0.0,0.0,0.0,0.0,0.0,0.0,0.0,0.0,0.0,0.0,0.0,0.0,0.0,0.0,0.0,0.0,0.0,0.0,0.0,0.0,0.0,0.0,0.0,0.0,0.0,0.0,0.0,0.0,0.0,0.0,0.0,0.0,0.0,0.0,0.0,-2.0378,-2.0587,-2.1036,-2.1635,-2.0827,-2.0609,0.0,0.0,0.0,0.0,0.0,0.0,0.0,0.0,0.0,0.0,0.0,0.0,0.0,0.0,0.0,0.0,0.0,0.0,0.0,0.0,0.0,0.0,0.0,0.0,0.0,0.0,0.0,0.0,0.0,0.0,0.0,0.0,0.0,0.0,0.0,0.0,0.0,0.0,0.0,0.0,0.0,0.0,0.0,0.0,0.0,0.0,0.0,0.0,0.0,0.0,0.0,0.0,0.0,0.0,0.0,0.0,0.0,0.0,0.0,0.0,0.0,0.0,0.0,0.0,0.0,0.0,0.0,0.0,0.0,0.0,0.0,0.0,0.0,0.0,0.0,0.0,0.0,0.0,0.0,0.0,0.0,0.0,0.0,0.0,0.0,0.0,0.0,0.0,0.0,0.0,0.0,0.0,0.0,0.0,0.0,0.0,0.0,0.0,0.0,0.0,0.0,0.0,0.0,0.0,0.0,0.0,0.0,0.0,0.0,-2.0971,-2.117,-2.1737,-2.2566,-2.1345,-2.0837,0.0,0.0,0.0,0.0,0.0,0.0,0.0,0.0,0.0,0.0,0.0,0.0,0.0,0.0,0.0,0.0,0.0,0.0,0.0,0.0,0.0,0.0,0.0,0.0,0.0,0.0,0.0,0.0,0.0,0.0,0.0,0.0,0.0,0.0,0.0,0.0,0.0,0.0,0.0,0.0,0.0,0.0,0.0,0.0,0.0,0.0,0.0,0.0,0.0,0.0,0.0,0.0,0.0,0.0,0.0,0.0,0.0,0.0,0.0,0.0,0.0,0.0,0.0,0.0,0.0,0.0,0.0,0.0,0.0,0.0,0.0,0.0,0.0,0.0,0.0,0.0,0.0,0.0,0.0,0.0,0.0,0.0,0.0,0.0,0.0,0.0,0.0,0.0,0.0,0.0,0.0,0.0,0.0,0.0,0.0,0.0,0.0,0.0,0.0,0.0,0.0,0.0,0.0,0.0,0.0,0.0,0.0,0.0,-2.1639,-2.3367,-2.286,-2.3161,-2.446,-2.2002,-2.0667,0.0,0.0,0.0,0.0,0.0,0.0,0.0,0.0,0.0,0.0,0.0,0.0,0.0,0.0,0.0,0.0,0.0,0.0,0.0,0.0,0.0,0.0,0.0,0.0,0.0,0.0,0.0,0.0,0.0,0.0,0.0,0.0,0.0,0.0,0.0,0.0,0.0,0.0,0.0,0.0,0.0,0.0,0.0,0.0,0.0,0.0,0.0,0.0,0.0,0.0,0.0,0.0,0.0,0.0,0.0,0.0,0.0,0.0,0.0,0.0,0.0,0.0,0.0,0.0,0.0,0.0,0.0,0.0,0.0,0.0,0.0,0.0,0.0,0.0,0.0,0.0,0.0,0.0,0.0,0.0,0.0,0.0,0.0,0.0,0.0,0.0,0.0,0.0,0.0,0.0,0.0,0.0,0.0,0.0,0.0,0.0,0.0,0.0,0.0,0.0,0.0,0.0,0.0,0.0,0.0,0.0,0.0,0.0,0.0,-2.1805,-2.2797,-2.3742,-2.4531,-2.2526,-2.1572,0.0,0.0,0.0,0.0,0.0,0.0,0.0,0.0,0.0,0.0,0.0,0.0,0.0,0.0,0.0,0.0,0.0,0.0,0.0,0.0,0.0,0.0,0.0,0.0,0.0,0.0,0.0,0.0,0.0,0.0,0.0,0.0,0.0,0.0,0.0,0.0,0.0,0.0,0.0,0.0,0.0,0.0,0.0,0.0,0.0,0.0,0.0,0.0,0.0,0.0,0.0,0.0,0.0,0.0,0.0,0.0,0.0,0.0,0.0,0.0,0.0,0.0,0.0,0.0,0.0,0.0,0.0,0.0,0.0,0.0,0.0,0.0,0.0,0.0,0.0,0.0,0.0,0.0,0.0,0.0,0.0,0.0,0.0,0.0,0.0,0.0,0.0,0.0,0.0,0.0,0.0,0.0,0.0,0.0,0.0,0.0,0.0,0.0,0.0,0.0,0.0,0.0,0.0,0.0,0.0,0.0,0.0,0.0,0.0,-2.2371,-2.3797,-2.4969,-2.5684,-2.3232,-2.2135,-2.26,0.0,0.0,0.0,0.0,0.0,0.0,0.0,0.0,0.0,0.0,0.0,0.0,0.0,0.0,0.0,0.0,0.0,0.0,0.0,0.0,0.0,0.0,0.0,0.0,0.0,0.0,0.0,0.0,0.0,0.0,0.0,0.0,0.0,0.0,0.0,0.0,0.0,0.0,0.0,0.0,0.0,0.0,0.0,0.0,0.0,0.0,0.0,0.0,0.0,0.0,0.0,0.0,0.0,0.0,0.0,0.0,0.0,0.0,0.0,0.0,0.0,0.0,0.0,0.0,0.0,0.0,0.0,0.0,0.0,0.0,0.0,0.0,0.0,0.0,0.0,0.0,0.0,0.0,0.0,0.0,0.0,0.0,0.0,0.0,0.0,0.0,0.0,0.0,0.0,0.0,0.0,0.0,0.0,0.0,0.0,0.0,0.0,0.0,0.0,0.0,0.0,0.0,0.0,0.0,0.0,0.0,0.0,0.0,-2.4438,-2.5748,-2.6649,-2.713,-2.4082,-2.2464,0.0,0.0,0.0,0.0,0.0,0.0,0.0,0.0,0.0,0.0,0.0,0.0,0.0,0.0,0.0,0.0,0.0,0.0,0.0,0.0,0.0,0.0,0.0,0.0,0.0,0.0,0.0,0.0,0.0,0.0,0.0,0.0,0.0,0.0,0.0,0.0,0.0,0.0,0.0,0.0,0.0,0.0,0.0,0.0,0.0,0.0,0.0,0.0,0.0,0.0,0.0,0.0,0.0,0.0,0.0,0.0,0.0,0.0,0.0,0.0,0.0,0.0,0.0,0.0,0.0,0.0,0.0,0.0,0.0,0.0,0.0,0.0,0.0,0.0,0.0,0.0,0.0,0.0,0.0,0.0,0.0,0.0,0.0,0.0,0.0,0.0,0.0,0.0,0.0,0.0,0.0,0.0,0.0,0.0,0.0,0.0,0.0,0.0,0.0,0.0,0.0,0.0,0.0,0.0,0.0,0.0,0.0,0.0,0.0,-2.4963,-2.653,-2.7026,-2.644,-2.4606,-2.3374,0.0,0.0,0.0,0.0,0.0,0.0,0.0,0.0,0.0,0.0,0.0,0.0,0.0,0.0,0.0,0.0,0.0,0.0,0.0,0.0,0.0,0.0,0.0,0.0,0.0,0.0,0.0,0.0,0.0,0.0,0.0,0.0,0.0,0.0,0.0,0.0,0.0,0.0,0.0,0.0,0.0,0.0,0.0,0.0,0.0,0.0,0.0,0.0,0.0,0.0,0.0,0.0,0.0,0.0,0.0,0.0,0.0,0.0,0.0,0.0,0.0,0.0,0.0,0.0,0.0,0.0,0.0,0.0,0.0,0.0,0.0,0.0,0.0,0.0,0.0,0.0,0.0,0.0,0.0,0.0,0.0,0.0,0.0,0.0,0.0,0.0,0.0,0.0,0.0,0.0,0.0,0.0,0.0,0.0,0.0,0.0,0.0,0.0,0.0,0.0,0.0,0.0,0.0,0.0,0.0,0.0,0.0,0.0,-2.5358,-2.6013,-2.7216,-2.7464,-2.6587,-2.5203,-2.4028,0.0,0.0,0.0,0.0,0.0,0.0,0.0,0.0,0.0,0.0,0.0,0.0,0.0,0.0,0.0,0.0,0.0,0.0,0.0,0.0,0.0,0.0,0.0,0.0,0.0,0.0,0.0,0.0,0.0,0.0,0.0,0.0,0.0,0.0,0.0,0.0,0.0,0.0,0.0,0.0,0.0,0.0,0.0,0.0,0.0,0.0,0.0,0.0,0.0,0.0,0.0,0.0,0.0,0.0,0.0,0.0,0.0,0.0,0.0,0.0,0.0,0.0,0.0,0.0,0.0,0.0,0.0,0.0,0.0,0.0,0.0,0.0,0.0,0.0,0.0,0.0,0.0,0.0,0.0,0.0,0.0,0.0,0.0,0.0,0.0,0.0,0.0,0.0,0.0,0.0,0.0,0.0,0.0,0.0,0.0,0.0,0.0,0.0,0.0,0.0,0.0,0.0,0.0,0.0,0.0,0.0,0.0,0.0,-2.5762,-2.7318,-2.7846,-2.7871,-2.7344,-2.5837,-2.4657,0.0,0.0,0.0,0.0,0.0,0.0,0.0,0.0,0.0,0.0,0.0,0.0,0.0,0.0,0.0,0.0,0.0,0.0,0.0,0.0,0.0,0.0,0.0,0.0,0.0,0.0,0.0,0.0,0.0,0.0,0.0,0.0,0.0,0.0,0.0,0.0,0.0,0.0,0.0,0.0,0.0,0.0,0.0,0.0,0.0,0.0,0.0,0.0,0.0,0.0,0.0,0.0,0.0,0.0,0.0,0.0,0.0,0.0,0.0,0.0,0.0,0.0,0.0,0.0,0.0,0.0,0.0,0.0,0.0,0.0,0.0,0.0,0.0,0.0,0.0,0.0,0.0,0.0,0.0,0.0,0.0,0.0,0.0,0.0,0.0,0.0,0.0,0.0,0.0,0.0,0.0,0.0,0.0,0.0,0.0,0.0,0.0,0.0,0.0,0.0,0.0,0.0,0.0,0.0,0.0,0.0,0.0,0.0,-2.6691,-2.7896,-2.8047,-2.8047,-2.7946,-2.6766,-2.5169,0.0,0.0,0.0,0.0,0.0,0.0,0.0,0.0,0.0,0.0,0.0,0.0,0.0,0.0,0.0,0.0,0.0,0.0,0.0,0.0,0.0,0.0,0.0,0.0,0.0,0.0,0.0,0.0,0.0,0.0,0.0,0.0,0.0,0.0,0.0,0.0,0.0,0.0,0.0,0.0,0.0,0.0,0.0,0.0,0.0,0.0,0.0,0.0,-2.1741,0.0,0.0,0.0,0.0,0.0,0.0,0.0,0.0,0.0,0.0,0.0,0.0,0.0,0.0,0.0,0.0,0.0,0.0,0.0,0.0,0.0,0.0,0.0,0.0,0.0,0.0,0.0,0.0,0.0,0.0,0.0,0.0,0.0,0.0,0.0,0.0,0.0,0.0,0.0,0.0,0.0,0.0,0.0,0.0,0.0,0.0,0.0,0.0,0.0,0.0,0.0,0.0,0.0,0.0,0.0,0.0,0.0,0.0,0.0,-2.7645,-2.8473,-2.875,-2.8775,-2.8473,-2.7921,-2.6565,0.0,0.0,0.0,0.0,0.0,0.0,0.0,0.0,0.0,0.0,0.0,0.0,0.0,0.0,0.0,0.0,0.0,0.0,0.0,0.0,0.0,0.0,0.0,0.0,0.0,0.0,0.0,0.0,0.0,0.0,0.0,0.0,0.0,0.0,0.0,0.0,0.0,0.0,0.0,0.0,0.0,0.0,0.0,0.0,0.0,0.0,0.0,0.0,0.0,0.0,0.0,0.0,0.0,0.0,0.0,0.0,0.0,0.0,0.0,0.0,0.0,0.0,0.0,0.0,0.0,0.0,0.0,0.0,0.0,0.0,0.0,0.0,0.0,0.0,0.0,0.0,0.0,0.0,0.0,0.0,0.0,0.0,0.0,0.0,0.0,0.0,0.0,0.0,0.0,0.0,0.0,0.0,0.0,0.0,0.0,0.0,0.0,0.0,0.0,0.0,0.0,0.0,0.0,0.0,0.0,0.0,0.0,-2.7344,-2.8398,-2.895,-2.9451,-2.9476,-2.8925,-2.8825,-2.7776,-2.5745,0.0,0.0,0.0,0.0,0.0,0.0,0.0,0.0,0.0,0.0,0.0,0.0,0.0,0.0,0.0,0.0,0.0,0.0,0.0,0.0,0.0,0.0,0.0,0.0,0.0,0.0,0.0,0.0,0.0,0.0,0.0,0.0,0.0,0.0,0.0,0.0,0.0,0.0,-1.9585,-2.0769,0.0,0.0,0.0,0.0,0.0,0.0,0.0,0.0,-2.396,0.0,0.0,0.0,0.0,0.0,0.0,0.0,0.0,0.0,0.0,0.0,0.0,0.0,0.0,0.0,0.0,0.0,0.0,0.0,0.0,0.0,0.0,0.0,0.0,0.0,0.0,0.0,0.0,0.0,0.0,0.0,0.0,0.0,0.0,0.0,0.0,0.0,0.0,0.0,0.0,0.0,0.0,0.0,0.0,0.0,0.0,0.0,0.0,0.0,0.0,0.0,0.0,0.0,0.0,0.0,0.0,-2.6967,-2.7745,-2.8525,-2.9269,-2.9394,-2.9316,-2.9061,-2.8642,-2.7582,-2.5906,0.0,0.0,0.0,0.0,0.0,0.0,0.0,0.0,0.0,0.0,0.0,0.0,0.0,0.0,0.0,0.0,0.0,0.0,0.0,0.0,0.0,0.0,0.0,0.0,0.0,0.0,0.0,0.0,0.0,0.0,0.0,0.0,0.0,0.0,0.0,0.0,0.0,0.0,0.0,-2.1999,-2.256,0.0,0.0,0.0,0.0,0.0,0.0,0.0,0.0,-2.389,0.0,0.0,0.0,0.0,0.0,0.0,0.0,0.0,0.0,0.0,0.0,0.0,0.0,0.0,0.0,0.0,0.0,0.0,0.0,0.0,0.0,0.0,0.0,0.0,0.0,0.0,0.0,0.0,0.0,0.0,0.0,0.0,0.0,0.0,0.0,0.0,0.0,0.0,0.0,0.0,0.0,0.0,0.0,0.0,0.0,0.0,0.0,0.0,0.0,0.0,0.0,0.0,0.0,0.0,0.0,-2.7101,-2.8375,-2.9241,-2.9683,-2.9979,-2.9899,-2.9573,-2.9303,-2.8071,0.0,0.0,0.0,0.0,0.0,0.0,0.0,0.0,0.0,0.0,0.0,0.0,0.0,0.0,0.0,0.0,0.0,0.0,0.0,0.0,0.0,0.0,0.0,0.0,0.0,0.0,0.0,0.0,0.0,0.0,0.0,0.0,0.0,0.0,0.0,0.0,0.0,0.0,0.0,0.0,-2.2964,-2.4031,-2.5901,0.0,0.0,0.0,0.0,0.0,0.0,-2.6384,-2.535,0.0,0.0,0.0,0.0,0.0,0.0,0.0,0.0,0.0,0.0,0.0,0.0,0.0,0.0,0.0,0.0,0.0,0.0,0.0,0.0,0.0,0.0,0.0,0.0,0.0,0.0,0.0,0.0,0.0,0.0,0.0,0.0,0.0,0.0,0.0,0.0,0.0,0.0,0.0,0.0,0.0,0.0,0.0,0.0,0.0,0.0,0.0,0.0,0.0,0.0,0.0,0.0,0.0,0.0,0.0,-2.7207,-2.8987,-2.9991,-3.0033,-3.0449,-3.0391,-2.9951,-2.9854,-2.8529,0.0,0.0,0.0,0.0,0.0,0.0,0.0,0.0,0.0,0.0,0.0,0.0,0.0,0.0,0.0,0.0,0.0,0.0,0.0,0.0,0.0,0.0,0.0,0.0,0.0,0.0,0.0,0.0,0.0,0.0,0.0,0.0,0.0,0.0,0.0,0.0,0.0,0.0,0.0,0.0,0.0,-2.5379,-2.7244,-2.8139,0.0,0.0,0.0,0.0,-2.8518,-2.7681,0.0,0.0,0.0,0.0,0.0,0.0,0.0,0.0,0.0,0.0,0.0,0.0,0.0,0.0,0.0,0.0,0.0,0.0,0.0,0.0,0.0,0.0,0.0,0.0,0.0,0.0,0.0,0.0,0.0,0.0,0.0,0.0,0.0,0.0,0.0,0.0,0.0,0.0,0.0,0.0,0.0,0.0,0.0,0.0,0.0,0.0,0.0,0.0,0.0,0.0,0.0,0.0,0.0,0.0,0.0,0.0,-2.7729,-2.9316,-3.0244,-3.0323,-3.0396,-3.0313,-3.0073,-2.9615,-2.8578,0.0,0.0,0.0,0.0,0.0,0.0,0.0,0.0,0.0,0.0,0.0,0.0,0.0,0.0,0.0,0.0,0.0,0.0,0.0,0.0,0.0,0.0,0.0,0.0,0.0,0.0,0.0,0.0,0.0,0.0,0.0,0.0,0.0,0.0,0.0,0.0,0.0,0.0,0.0,0.0,0.0,-2.5995,-2.6809,-2.7868,-2.8573,0.0,0.0,-2.9399,-2.9345,-2.8774,0.0,0.0,0.0,0.0,0.0,0.0,0.0,0.0,0.0,0.0,0.0,0.0,0.0,0.0,0.0,0.0,0.0,0.0,0.0,0.0,0.0,0.0,0.0,0.0,0.0,0.0,0.0,0.0,0.0,0.0,0.0,0.0,0.0,0.0,0.0,0.0,0.0,0.0,0.0,0.0,0.0,0.0,0.0,0.0,0.0,0.0,0.0,0.0,0.0,0.0,0.0,0.0,0.0,0.0,0.0,-2.6747,-2.8366,-2.9878,-3.0785,-3.1148,-3.1172,-3.0941,-3.0543,-3.0302,-2.9316,0.0,0.0,0.0,0.0,0.0,0.0,0.0,0.0,0.0,0.0,0.0,0.0,0.0,0.0,0.0,0.0,0.0,0.0,0.0,0.0,0.0,0.0,0.0,0.0,0.0,0.0,0.0,0.0,0.0,0.0,0.0,0.0,0.0,0.0,0.0,0.0,0.0,0.0,0.0,0.0,0.0,0.0,-2.8139,-2.936,0.0,0.0,0.0,-3.0771,-3.012,0.0,0.0,0.0,0.0,0.0,0.0,0.0,0.0,0.0,0.0,0.0,0.0,0.0,0.0,0.0,0.0,0.0,0.0,0.0,0.0,0.0,0.0,0.0,0.0,0.0,0.0,0.0,0.0,0.0,0.0,0.0,0.0,0.0,0.0,0.0,0.0,0.0,0.0,0.0,0.0,0.0,0.0,0.0,0.0,0.0,0.0,0.0,0.0,0.0,0.0,0.0,0.0,0.0,0.0,0.0,0.0,0.0,-2.8979,-3.0713,-3.1689,-3.1865,-3.1865,-3.1625,-3.1096,-3.0951,0.0,0.0,0.0,0.0,0.0,0.0,0.0,0.0,0.0,0.0,0.0,0.0,0.0,0.0,0.0,0.0,0.0,0.0,0.0,0.0,0.0,0.0,0.0,0.0,0.0,0.0,0.0,-1.917,0.0,0.0,0.0,0.0,0.0,0.0,0.0,0.0,0.0,0.0,0.0,0.0,0.0,0.0,-2.7868,-2.9496,-3.0608,-3.1314,0.0,0.0,-3.1639,-3.0771,-3.0635,-3.0473,0.0,0.0,0.0,0.0,0.0,0.0,0.0,0.0,0.0,0.0,0.0,0.0,0.0,0.0,0.0,0.0,0.0,0.0,0.0,0.0,0.0,0.0,0.0,0.0,0.0,0.0,0.0,0.0,0.0,0.0,0.0,0.0,0.0,0.0,0.0,0.0,0.0,0.0,0.0,0.0,0.0,0.0,0.0,0.0,0.0,0.0,0.0,0.0,0.0,0.0,0.0,0.0,0.0,0.0,-2.8986,-2.9561,-3.2059,-3.3059,-3.2466,-3.2442,-3.2178,-3.1625,-3.1144,-3.0591,0.0,0.0,0.0,0.0,0.0,0.0,0.0,0.0,0.0,0.0,0.0,0.0,0.0,0.0,0.0,0.0,0.0,0.0,0.0,0.0,0.0,0.0,0.0,0.0,0.0,0.0,0.0,0.0,0.0,0.0,0.0,0.0,0.0,0.0,0.0,0.0,0.0,0.0,0.0,0.0,0.0,-2.8926,-3.0174,-3.088,-3.1314,0.0,-3.1314,-3.1314,-3.126,-3.1232,-3.1205,-3.1178,0.0,0.0,0.0,0.0,0.0,0.0,0.0,0.0,0.0,0.0,0.0,0.0,0.0,0.0,0.0,0.0,0.0,0.0,0.0,0.0,0.0,0.0,0.0,0.0,0.0,0.0,0.0,0.0,0.0,0.0,0.0,0.0,0.0,0.0,0.0,0.0,0.0,0.0,0.0,0.0,0.0,0.0,0.0,0.0,0.0,0.0,0.0,0.0,0.0,0.0,0.0,0.0,0.0,-2.9745,-3.093,-3.2599,-3.3425,-3.3428,-3.314,-3.2731,-3.2202,-3.2298,-3.1961,0.0,0.0,0.0,0.0,0.0,0.0,0.0,0.0,0.0,0.0,0.0,0.0,0.0,0.0,0.0,0.0,0.0,0.0,0.0,0.0,0.0,0.0,0.0,0.0,0.0,0.0,0.0,0.0,-2.283,-2.2785,-2.2844,0.0,0.0,0.0,0.0,0.0,0.0,0.0,0.0,0.0,0.0,-3.0554,-3.1368,-3.2019,0.0,0.0,-3.2453,-3.2806,-3.2426,-3.2671,-3.2915,-3.2915,-3.2942,0.0,0.0,0.0,0.0,0.0,0.0,0.0,0.0,0.0,0.0,0.0,0.0,0.0,0.0,0.0,0.0,0.0,0.0,0.0,0.0,0.0,0.0,0.0,0.0,0.0,0.0,0.0,0.0,0.0,0.0,0.0,0.0,0.0,0.0,0.0,0.0,0.0,0.0,0.0,0.0,0.0,0.0,0.0,0.0,0.0,0.0,0.0,0.0,0.0,0.0,0.0,0.0,-3.0639,-3.1913,-3.3116,-3.3837,-3.403,-3.3693,-3.326,-3.2779,-3.3092,-3.2923,0.0,0.0,0.0,0.0,0.0,0.0,0.0,0.0,0.0,0.0,0.0,0.0,0.0,0.0,0.0,0.0,0.0,0.0,0.0,0.0,0.0,0.0,0.0,0.0,0.0,0.0,0.0,0.0,-2.4539,-2.4664,-2.4369,0.0,0.0,0.0,0.0,0.0,0.0,0.0,0.0,0.0,0.0,-3.2046,-3.2616,-3.305,-3.3186,-3.2752,-3.3566,-3.4054,-3.3647,-3.4082,-3.4543,-3.4706,0.0,0.0,0.0,0.0,0.0,0.0,0.0,0.0,0.0,0.0,0.0,0.0,0.0,0.0,0.0,0.0,0.0,0.0,0.0,0.0,0.0,0.0,0.0,0.0,0.0,0.0,0.0,-1.8204,0.0,0.0,-1.8983,0.0,0.0,0.0,0.0,0.0,0.0,0.0,0.0,0.0,0.0,0.0,0.0,0.0,0.0,0.0,0.0,0.0,0.0,0.0,0.0,0.0,0.0,-3.1913,-3.2491,-3.3982,-3.4535,-3.4078,-3.403,-3.3789,-3.3308,-3.3284,-3.3284,-3.3236,0.0,0.0,0.0,0.0,0.0,0.0,0.0,0.0,0.0,0.0,0.0,0.0,0.0,0.0,0.0,0.0,0.0,0.0,0.0,0.0,0.0,0.0,0.0,0.0,0.0,0.0,-2.2442,-2.5006,-2.6602,0.0,0.0,0.0,0.0,0.0,0.0,0.0,0.0,0.0,-3.3436,-3.3376,-3.3268,-3.3837,-3.3869,-3.3973,-3.3842,-3.4356,-3.4841,-3.4814,-3.5303,-3.5873,0.0,0.0,0.0,0.0,0.0,0.0,0.0,0.0,0.0,0.0,0.0,0.0,0.0,0.0,0.0,0.0,0.0,0.0,0.0,0.0,0.0,0.0,0.0,0.0,0.0,0.0,0.0,-2.1694,-2.2046,0.0,0.0,0.0,0.0,0.0,0.0,0.0,0.0,0.0,0.0,0.0,-2.796,-2.8585,0.0,0.0,0.0,0.0,0.0,0.0,0.0,0.0,0.0,0.0,0.0,0.0,-3.2996,-3.3549,-3.439,-3.4727,-3.4583,-3.4583,-3.4318,-3.3813,-3.3743,-3.3575,-3.322,0.0,0.0,0.0,0.0,0.0,0.0,0.0,0.0,0.0,0.0,0.0,0.0,0.0,0.0,0.0,0.0,0.0,0.0,0.0,0.0,0.0,0.0,0.0,0.0,0.0,-2.3529,0.0,0.0,0.0,0.0,0.0,0.0,0.0,0.0,0.0,0.0,-3.1667,-3.3213,-3.4302,-3.4706,-3.5031,-3.5628,-3.571,-3.5574,0.0,0.0,0.0,0.0,0.0,0.0,0.0,0.0,0.0,0.0,0.0,0.0,0.0,-3.5924,-3.5091,-3.398,-3.3916,-3.379,-3.3003,0.0,0.0,0.0,0.0,0.0,0.0,0.0,0.0,0.0,0.0,0.0,0.0,0.0,0.0,-2.4506,-2.4833,-2.4858,0.0,0.0,0.0,0.0,0.0,0.0,0.0,0.0,-2.9132,-2.99,-3.0434,-3.0965,-3.1192,-3.1192,-3.1023,-2.9677,0.0,0.0,0.0,0.0,0.0,0.0,0.0,0.0,-3.3789,-3.4318,-3.4847,-3.5112,-3.5112,-3.528,-3.5208,-3.4871,-3.4623,-3.4261,-3.374,-3.2158,-3.1391,0.0,0.0,0.0,0.0,0.0,0.0,0.0,0.0,0.0,0.0,0.0,0.0,0.0,0.0,0.0,0.0,0.0,0.0,0.0,0.0,0.0,0.0,0.0,-2.638,0.0,0.0,0.0,0.0,0.0,0.0,0.0,0.0,0.0,-3.1775,-3.3274,-3.4787,-3.5357,-3.5981,-3.6551,-3.7148,0.0,0.0,0.0,0.0,0.0,0.0,0.0,-3.921,-3.883,-3.8912,-3.883,-3.8233,-3.8152,-3.8152,-3.8152,0.0,0.0,-3.6184,-3.6031,-3.5913,-3.5149,-3.4566,-3.4668,-3.5953,-3.5875,-3.6101,0.0,0.0,0.0,0.0,-2.6515,0.0,0.0,0.0,-2.671,-2.6666,0.0,-2.6716,0.0,0.0,0.0,0.0,-2.8082,-2.9499,0.0,0.0,-3.2398,-3.3029,-3.3489,-3.3353,-3.3308,-3.3308,-3.2803,-3.2539,-3.2418,-3.0975,0.0,0.0,0.0,0.0,0.0,0.0,-3.4342,-3.4847,-3.5376,-3.5641,-3.5665,-3.6122,-3.6285,-3.6261,-3.5805,-3.5278,-3.475,-3.2908,-3.2043,-3.2424,-2.9192,0.0,0.0,0.0,0.0,0.0,0.0,0.0,0.0,0.0,0.0,0.0,0.0,0.0,0.0,0.0,0.0,0.0,0.0,0.0,0.0,-2.7776,0.0,0.0,0.0,0.0,0.0,0.0,0.0,0.0,0.0,-3.4651,-3.4059,-3.5031,-3.5981,-3.6605,0.0,0.0,0.0,0.0,-3.8695,-3.9237,-3.9834,-4.0187,-4.016,-4.073,-4.111,-4.1082,0.0,0.0,-3.9454,-3.9346,-3.9373,-3.9346,-3.9346,-3.8993,-3.7881,-3.7865,-3.7813,-3.6878,-3.7345,-3.7702,-3.7097,-3.7667,-3.8369,-2.998,0.0,0.0,0.0,0.0,-2.9252,-2.9478,-2.998,-2.998,-3.0127,-3.0343,-3.0343,0.0,0.0,0.0,0.0,0.0,0.0,-3.1807,-3.234,-3.1642,-3.2276,-3.3813,-3.3029,-3.3217,-3.4366,-3.4222,-3.4174,-3.415,-3.3693,-3.3164,-3.2635,0.0,0.0,0.0,0.0,-3.5232,-3.54,-3.5905,-3.617,-3.617,-3.5931,-3.5385,-3.4657,-3.452,-3.4326,-3.4202,-3.37,-3.3082,-3.2604,-3.149,0.0,0.0,0.0,0.0,0.0,0.0,0.0,0.0,0.0,0.0,0.0,0.0,0.0,0.0,0.0,0.0,0.0,0.0,0.0,-2.7138,-3.0514,-3.2537,0.0,0.0,0.0,0.0,0.0,0.0,0.0,0.0,0.0,-3.6469,-3.6415,-3.6877,0.0,0.0,-3.9183,-4.0187,-4.035,-4.0404,-4.0567,-4.0757,0.0,-4.0838,-4.1354,-4.1598,-4.1191,-4.0974,-4.0784,-4.0621,-4.0594,-4.0594,-4.0594,-4.0594,-4.0485,-4.0133,-3.9435,-3.8951,-3.8586,-3.8755,-3.906,-3.9129,-3.9481,-3.9943,-3.2322,-3.2386,-3.158,-3.1386,-3.1612,-3.173,-3.2047,-3.2546,-3.2461,-3.2549,-3.2698,-3.2785,-3.2117,-3.0913,-3.0893,0.0,0.0,0.0,-3.2408,-3.2748,-3.206,-3.2456,-3.362,-3.3449,-3.3926,-3.5112,-3.4919,-3.504,-3.5449,-3.5232,-3.504,-3.4823,0.0,-3.4607,-3.5136,-3.5449,-3.5713,-3.5954,-3.6459,-3.6723,-3.6723,-3.6629,-3.6132,-3.5271,-3.5143,-3.5121,-3.4941,-3.43,-3.397,-3.3815,-3.2724,-3.1852,0.0,0.0,0.0,0.0,0.0,0.0,0.0,0.0,0.0,0.0,0.0,-2.3039,-2.2847,0.0,0.0,0.0,-2.736,-2.9272,-3.0662,-3.2874,0.0,0.0,0.0,0.0,0.0,0.0,0.0,-3.533,-3.6442,-3.7555,-3.8152,-3.8125,-3.8342,-3.9183,-3.9726,-4.0458,-4.1652,0.0,-4.1978,-4.2466,-4.2548,-4.2548,-4.2548,-4.2846,-4.2955,-4.2602,-4.2548,-4.2548,-4.2548,-4.2548,-4.2548,-4.2548,-4.2548,-4.2629,-4.2846,-4.2276,-4.1435,-4.0567,-4.0377,-4.0567,-4.1137,-4.1435,-4.1896,-3.3711,-3.3875,-3.2835,-3.2732,-3.3283,-3.3607,-3.3925,-3.4396,-3.4213,-3.4121,-3.4121,-3.4304,-3.4033,-3.3359,-3.3044,0.0,-3.3659,-3.2795,-3.2835,-3.3346,-3.3292,-3.3415,-3.3515,-3.4331,-3.511,-3.5665,-3.5086,-3.5349,-3.6338,-3.5705,-3.5968,-3.7132,-3.5541,-3.5086,-3.5713,-3.5833,-3.6074,-3.6459,-3.7036,-3.73,-3.7172,-3.7474,-3.7474,-3.6892,-3.6916,-3.6701,-3.6279,-3.4932,-3.4653,-3.5442,-3.3258,-3.2297,-3.2842,0.0,0.0,0.0,0.0,0.0,0.0,0.0,0.0,0.0,0.0,0.0,0.0,0.0,0.0,-2.8065,-3.0964,0.0,-3.5009,-3.473,0.0,0.0,0.0,-3.7468,-3.8213,-3.8836,-3.8979,-3.8526,0.0,0.0,-3.9373,-3.9997,-4.0214,-3.9726,-4.0594,-4.1707,-4.2873,-4.3036,-4.3443,-4.4501,-4.4746,-4.4773,-4.4719,-4.4773,-4.4773,-4.4746,-4.4854,-4.4773,-4.4773,-4.4773,-4.4827,-4.4773,-4.4827,-4.4963,-4.5533,-4.5424,-4.499,-4.2873,-4.2439,-4.2548,-4.3118,-4.3606,-4.4122,-3.3966,-3.3998,-3.4114,-3.4527,-3.5021,-3.5075,-3.5199,-3.5322,-3.5227,-3.5132,-3.4942,-3.5132,-3.5153,-3.4936,-3.3911,-3.3911,-3.475,-3.3941,-3.4146,-3.4928,-3.4597,-3.4862,-3.5622,-3.509,-3.5263,-3.6093,-3.5137,-3.5207,-3.6285,-3.4474,-3.4831,-3.698,-3.5043,-3.4949,-3.6819,-3.7637,-3.7709,-3.7012,-3.795,-3.781,-3.6526,-3.5841,-3.5205,-3.4661,-3.491,-3.5084,-3.5017,-3.5482,-3.5594,-3.553,-3.4975,-3.4745,-3.4844,-3.3573,0.0,0.0,0.0,0.0,0.0,0.0,0.0,0.0,0.0,-2.8546,-2.8017,0.0,-3.0855,0.0,-3.2575,-3.3853,-3.4283,-3.4917,0.0,0.0,-3.7039,-3.7165,-3.862,-3.8475,-3.8449,-3.878,-3.9392,-3.9997,-4.0621,-4.1598,-4.2358,-4.2656,-4.2548,-4.29,-4.4067,-4.4284,-4.4529,-4.5234,-4.5451,-4.5533,-4.6021,-4.6048,-4.6075,-4.6048,-4.6048,-4.6048,-4.6048,-4.6048,-4.6048,-4.6048,-4.6048,-4.613,-4.6292,-4.6265,-4.6319,-4.6048,-4.5723,-4.5451,-4.5614,-4.5723,-4.5994,-3.4795,-3.4749,-3.526,-3.5673,-3.5916,-3.5527,-3.5428,-3.5428,-3.5428,-3.5332,-3.5235,-3.5866,-3.6306,-3.6431,-3.5719,-3.562,-3.5866,-3.498,-3.4816,-3.5247,-3.4889,-3.482,-3.4901,-3.4797,-3.4946,-3.5465,-3.4374,-3.4502,-3.5336,-3.3866,-3.3888,-3.5663,-3.5235,-3.5561,-3.6756,-3.7474,-3.7902,-3.8262,-3.8383,-3.7965,-3.7143,-3.641,-3.6162,-3.6251,-3.6132,-3.6219,-3.6718,-3.5939,-3.5756,-3.6168,-3.5362,-3.5371,-3.6549,-3.536,-3.5103,0.0,0.0,0.0,0.0,0.0,0.0,0.0,0.0,0.0,0.0,0.0,-3.3164,-3.3404,-3.4438,-3.5088,-3.5088,-3.5833,-3.6719,-3.7519,-3.791,-3.8463,-3.9498,-3.9777,-4.0129,-4.0421,-4.1528,-4.222,-4.2422,-4.3579,-4.4719,-4.5288,-4.5098,-4.5126,-4.5723,-4.5885,-4.6102,-4.6672,-4.6998,-4.7378,-4.7948,-4.8056,-4.8056,-4.8056,-4.8056,-4.8056,-4.8056,-4.8056,-4.8056,-4.8056,-4.8056,-4.8138,-4.8382,-4.8436,-4.8572,-4.8762,-4.868,-4.8165,-4.7432,-4.7269,-4.7432,-3.5912,-3.5761,-3.6218,-3.6411,-3.6338,-3.5622,-3.5332,-3.5332,-3.5332,-3.5332,-3.5454,-3.6382,-3.7072,-3.7518,-3.7343,-3.7118,-3.6715,-3.5718,-3.5225,-3.5121,-3.505,-3.4525,-3.3501,-3.429,-3.4549,-3.4292,-3.3378,-3.3508,-3.4292,-3.3486,-3.3528,-3.4207,-3.5545,-3.6386,-3.6703,-3.6564,-3.7493,-3.9465,-3.8515,-3.7953,-3.7846,-3.7905,-3.8091,-3.8549,-3.7981,-3.7973,-3.857,-3.6294,-3.564,-3.6811,-3.5101,-3.523,-3.7402,-3.6826,-3.6564,0.0,-3.593,0.0,0.0,0.0,0.0,0.0,0.0,0.0,0.0,-3.3885,-3.5256,-3.5761,-3.6242,-3.6555,-3.6699,-3.7132,-3.7421,-3.7726,-3.9055,-4.0059,-4.0516,-4.1621,-4.2396,-4.2577,-4.3873,-4.4586,-4.444,-4.5765,-4.6808,-4.7378,-4.7568,-4.7731,-4.7893,-4.7731,-4.7758,-4.8463,-4.9087,-4.9576,-5.001,-5.02,-5.02,-5.02,-5.0173,-5.0254,-5.0173,-5.02,-5.0227,-5.02,-5.0173,-5.0363,-5.0932,-5.096,-5.096,-5.0878,-5.0824,-5.0308,-4.8924,-4.849,-4.8653,-3.6266,-3.6266,-3.6362,-3.6411,-3.6386,-3.6194,-3.6199,-3.6199,-3.6199,-3.6323,-3.6524,-3.6722,-3.702,-3.7218,-3.6159,-3.6057,-3.6739,-3.5864,-3.597,-3.6749,-3.6619,-3.6237,-3.5545,-3.5246,-3.4756,-3.4336,-3.3268,-3.3289,-3.4336,-3.3268,-3.3979,-3.6314,-3.5848,-3.6983,-3.9419,0.0,0.0,0.0,-3.8713,-3.8032,-3.6974,-3.7169,-3.6543,-3.5222,-3.5625,0.0,-3.5468,-3.5736,-3.6044,-3.6254,-3.5653,0.0,0.0,0.0,0.0,0.0,0.0,0.0,0.0,0.0,0.0,0.0,-3.5497,-3.5256,-3.4366,-3.5376,-3.6338,-3.6843,-3.6988,-3.7397,-3.8262,-3.8455,-3.8887,-3.9922,-3.9843,-4.0087,-4.1255,-4.1622,-4.2175,-4.3393,-4.4411,-4.5262,-4.5953,-4.6702,-4.7622,-4.8543,-4.9196,-4.9901,-5.0797,-4.9684,-4.925,-5.02,-5.0851,-5.1312,-5.1448,-5.1475,-5.1502,-5.1502,-5.1502,-5.1502,-5.1557,-5.1529,-5.1502,-5.1529,-5.1475,-5.1529,-5.1692,-5.1665,-5.1747,-5.1665,-5.1665,-5.1258,-4.9983,-4.9684,-4.9711,-3.718,-3.718,-3.718,-3.718,0.0,-3.718,-3.718,-3.7156,-3.6729,-3.686,-3.7409,-3.7409,-3.7555,-3.7697,-3.7052,-3.7116,-3.7799,-3.7038,-3.6861,-3.712,-3.6703,-3.5824,-3.4469,-3.4146,-3.3591,-3.2975,-3.254,-3.2437,-3.2644,-3.2209,-3.2881,-3.4536,-3.4601,-3.5854,-3.8225,-3.7798,-3.7853,-3.8407,-3.8323,-3.7895,-3.6878,-3.698,-3.6655,-3.5845,-3.5893,0.0,0.0,0.0,0.0,0.0,0.0,0.0,0.0,-3.6293,0.0,-3.7038,-3.6696,-3.6578,-3.6763,-3.6787,-3.6645,-3.6407,-3.7092,-3.7132,-3.6074,-3.6988,-3.7709,-3.7974,-3.8238,-3.8623,-3.9152,-3.9681,-4.0314,-4.0891,-4.1063,-4.1613,-4.2609,-4.2772,-4.3223,-4.4155,-4.5078,-4.6047,-4.71,-4.798,-4.8766,-4.9595,-5.0344,-5.0972,-5.1347,-5.0883,-5.0824,-5.1638,-5.2018,-5.2371,-5.2642,-5.2696,-5.2832,-5.3049,-5.313,-5.3266,-5.3565,-5.3592,-5.3592,-5.3619,-5.3592,-5.3592,-5.3592,-5.3592,-5.351,-5.3239,-5.3158,-5.2859,-5.1936,-5.1339,-5.0905,-3.8142,-3.8142,-3.8334,-3.8286,-3.8142,-3.8214,-3.8166,-3.7926,-3.7266,0.0,0.0,-3.8093,-3.8209,-3.8582,-3.8388,-3.8451,-3.8623,-3.819,-3.7547,-3.6851,-3.631,-3.4869,-3.2685,-3.2539,-3.2165,-3.1486,-3.1681,-3.1519,-3.0956,-3.1584,-3.2154,-3.249,-3.3835,-3.5233,-3.6534,-3.7548,-3.7916,-3.7798,-3.8107,-3.7833,-3.6944,-3.7387,-3.7465,-3.706,-3.6679,-3.6655,-3.7144,-3.5603,-3.5044,-3.5916,-3.5091,-3.5179,-3.6499,-3.6275,-3.6541,-3.7489,-3.6209,-3.564,-3.639,-3.652,-3.6473,-3.6403,-3.8013,-3.8575,-3.7685,-3.8455,-3.9032,-3.9224,-3.9633,-3.9946,-4.0138,-4.0932,-4.1461,-4.1461,-4.223,-4.3117,-4.3806,-4.4048,-4.4388,-4.5147,-4.6155,-4.7129,-4.8069,-4.8956,-4.9719,-5.0168,-5.059,-5.1148,-5.1149,-5.1642,-5.2262,-5.2723,-5.2832,-5.3022,-5.3429,-5.3537,-5.3836,-5.4243,-5.4297,-5.4596,-5.5193,-5.5328,-5.5301,-5.5193,-5.541,-5.5328,-5.5355,-5.5247,-5.522,-5.4758,-5.465,-5.4514,-5.3972,-5.3158,-5.2452,-3.8695,-3.8767,-3.9681,-3.9537,-3.8743,-3.92,-3.8839,-3.7998,-3.7829,-3.8683,-3.9961,-3.8586,-3.8538,-3.9345,-3.8514,-3.8046,-3.8094,-3.8022,-3.7358,-3.626,-3.558,-3.4296,-3.2727,-3.1936,-3.1388,-3.0996,-3.1073,-3.1053,-3.1092,-3.2972,-3.405,-3.4316,-3.631,-3.7477,-3.7761,-3.7868,-3.7655,-3.7118,-3.8579,-3.8213,-3.6038,-3.8544,-3.839,-3.5375,-3.6315,-3.6543,-3.5615,-3.4887,-3.4803,-3.5445,-3.491,-3.4926,-3.5625,-3.6122,-3.6369,-3.6524,-3.7077,-3.7284,-3.7049,-3.7026,-3.6951,-3.7143,-3.8561,-3.9417,-3.9296,-3.9417,-3.9874,-4.0715,-4.086,-4.1341,-4.2182,-4.2375,-4.2423,-4.2495,-4.2663,-4.3048,-4.3578,-4.4014,-4.4719,-4.6043,-4.7622,-4.8314,-4.8564,-4.9031,-4.9456,-4.9876,-4.961,-4.9161,-5.059,-5.2152,-5.332,-5.3456,-5.3483,-5.351,-5.3565,-5.3592,-5.3863,-5.4406,-5.408,-5.4216,-5.5247,-5.5057,-5.4948,-5.5328,-5.541,-5.541,-5.541,-5.541,-5.5355,-5.522,-5.5193,-5.5166,-5.503,-5.4813,-5.446,-3.8359,-3.8431,-3.8888,-3.8815,-3.8383,-3.8623,-3.8623,-3.8407,-3.8118,-3.8383,-3.8984,-3.8286,-3.8262,-3.8671,-3.819,-3.8142,-3.8431,-3.7476,-3.6587,-3.5603,-3.4367,-3.3122,-3.1828,-3.1309,-3.1074,-3.0898,-3.1556,-3.1556,-3.1112,-3.3233,-3.4447,-3.458,-3.7053,-3.8251,-3.7833,-3.7833,-3.7284,-3.634,-3.7469,-3.7471,-3.6352,-3.7725,-3.7632,-3.5886,-3.6608,-3.6521,-3.5627,-3.5408,-3.5413,-3.5732,-3.5533,-3.5535,-3.5759,-3.596,-3.6185,-3.616,-3.6297,-3.6455,-3.6589,-3.7427,-3.8318,-3.9098,-3.9628,-3.977,-3.9426,-3.977,-4.0302,-4.1124,-4.0942,-4.0993,-4.187,-4.2158,-4.2327,-4.2351,-4.2808,-4.3241,-4.3529,-4.401,-4.4543,-4.528,-4.5995,-4.6736,-4.7529,-4.7841,-4.8135,-4.8621,-4.8723,-4.9619,-5.1022,-5.2581,-5.3456,-5.3239,-5.3402,-5.3592,-5.3592,-5.3592,-5.3863,-5.4379,-5.427,-5.446,-5.5247,-5.5111,-5.5138,-5.5328,-5.541,-5.541,-5.541,-5.541,-5.541,-5.541,-5.541,-5.541,-5.541,-5.541,-5.5193,-3.8286,-3.8166,-3.8431,-3.8455,-3.831,-3.807,-3.8238,-3.8575,-3.8166,-3.7974,-3.7974,-3.7974,-3.8118,-3.831,-3.8094,-3.8107,-3.7987,-3.6874,-3.5645,-3.4588,-3.3287,-3.2227,-3.1344,-3.1344,-3.146,-3.1808,-3.2789,-3.283,-3.2275,-3.4146,-3.5335,-3.5714,-3.7542,-3.8295,-3.7747,-3.7406,-3.6693,-3.5682,-3.6538,-3.6951,-3.6738,-3.7081,-3.7331,-3.7466,-3.7605,-3.7372,-3.667,-3.6465,-3.6238,-3.6151,-3.6129,-3.6085,-3.5976,-3.5954,-3.6011,-3.6001,-3.5615,-3.5615,-3.6115,-3.7565,-3.892,-3.9918,-3.9873,-3.9709,-3.9382,-3.9825,-4.0411,-4.0993,-4.0901,-4.0996,-4.1705,-4.2134,-4.2375,-4.2519,-4.3192,-4.3697,-4.3746,-4.4178,-4.4515,-4.4539,-4.4736,-4.5524,-4.6266,-4.6662,-4.6984,-4.7383,-4.8807,-5.0435,-5.1593,-5.2661,-5.3064,-5.2995,-5.3212,-5.3565,-5.3592,-5.3592,-5.3863,-5.4379,-5.4324,-5.4596,-5.5084,-5.5328,-5.5301,-5.5328,-5.541,-5.541,-5.541,-5.541,-5.541,-5.541,-5.541,-5.541,-5.541,-5.5573,-5.5545,-3.9152,-3.8912,-3.9681,-3.9898,-3.9272,-3.8383,-3.8022,-3.807,-3.7998,-3.7974,-3.7974,-3.7974,-3.8527,-3.9248,-3.8407,-3.7489,-3.6564,-3.6254,-3.5046,-3.3203,-3.282,-3.2571,-3.2477,-3.2477,-3.3119,-3.3974,-3.468,-3.4761,-3.4668,-3.6431,-3.7947,-3.8888,-3.8241,-3.7724,-3.7543,-3.6511,-3.5736,-3.5333,-3.6531,-3.7035,-3.6824,-3.8146,-3.8953,-3.9047,-3.9574,-3.9476,-3.8685,-3.7846,-3.7068,-3.6675,-3.6653,-3.6435,-3.6063,-3.5976,-3.5954,-3.6027,-3.5889,-3.6027,-3.6143,-3.7223,-3.7748,-3.7311,-3.825,-3.8943,-3.929,-3.9847,-4.0333,-4.0928,-4.1542,-4.2136,-4.3144,-4.3265,-4.3385,-4.3721,-4.4034,-4.4275,-4.4251,-4.4732,-4.5068,-4.5068,-4.589,-4.6882,-4.6105,-4.6339,-4.6761,-4.701,-4.8968,-5.0454,-5.088,-5.2098,-5.2968,-5.2886,-5.3239,-5.3565,-5.3592,-5.3592,-5.3836,-5.427,-5.4026,-5.4243,-5.4813,-5.4867,-5.4704,-5.4976,-5.5247,-5.522,-5.5274,-5.541,-5.5328,-5.5138,-5.5193,-5.5355,-5.5464,-5.5735,-5.5871,-3.9008,-3.8839,-3.8936,-3.8839,-3.8575,-3.8142,-3.7974,-3.7974,-3.7974,-3.7974,-3.7974,-3.7974,-3.8238,-3.8623,-3.7392,-3.6989,-3.7096,-3.5772,-3.467,-3.3685,-3.3027,-3.2809,-3.3058,-3.3058,-3.3874,-3.5277,-3.561,-3.5698,-3.5742,-3.6378,-3.7771,-3.9569,-3.8068,-3.7295,-3.7688,-3.6531,-3.5521,-3.4892,-3.5422,-3.6562,-3.8248,-3.953,-4.0347,-4.0676,-4.0964,-4.06,-3.9623,-3.9054,-3.8631,-3.7964,-3.7964,-3.7745,-3.7265,-3.7221,-3.6981,-3.6457,-3.6391,-3.664,-3.7399,-3.787,-3.8082,-3.8222,-3.8676,-3.8948,-3.9209,-3.9606,-4.0136,-4.0866,-4.1469,-4.2257,-4.3024,-4.3072,-4.3168,-4.3409,-4.3673,-4.3866,-4.3866,-4.4347,-4.4659,-4.4683,-4.5202,-4.5473,-4.5271,-4.5919,-4.6836,-4.7583,-4.9502,-5.0933,-5.1398,-5.2447,-5.3064,-5.3266,-5.3456,-5.3565,-5.3592,-5.3592,-5.3727,-5.3836,-5.3782,-5.3944,-5.4134,-5.4189,-5.408,-5.4351,-5.446,-5.446,-5.427,-5.4351,-5.4351,-5.446,-5.4406,-5.4433,-5.4786,-5.5355,-5.5654,-3.8839,-3.8551,-3.8142,-3.7974,-3.7974,-3.7974,-3.807,-3.8166,-3.8046,-3.8142,-3.8407,-3.8286,-3.831,-3.8275,-3.7402,-3.7223,-3.7439,-3.6002,-3.5178,-3.484,-3.3955,-3.401,-3.4538,-3.4675,-3.5424,-3.6767,-3.7176,-3.7081,-3.6938,-3.6867,-3.7766,-3.9036,-3.7392,-3.6724,-3.7202,-3.6268,-3.5449,-3.4975,-3.552,-3.7244,-3.9493,-4.108,-4.2028,-4.2441,-4.232,-4.183,-4.0842,-4.0468,-4.0025,-3.9286,-3.916,-3.8816,-3.8335,-3.8313,-3.7986,-3.7374,-3.7385,-3.778,-3.8376,-3.8752,-3.9084,-3.9349,-3.9299,-3.9377,-3.9568,-4.0073,-4.0773,-4.1299,-4.2239,-4.3187,-4.288,-4.2976,-4.3024,-4.3192,-4.3553,-4.3746,-4.3794,-4.413,-4.4371,-4.4347,-4.4419,-4.4519,-4.5108,-4.6266,-4.7508,-4.8611,-5.0318,-5.154,-5.2086,-5.2929,-5.3565,-5.3592,-5.3592,-5.3592,-5.3592,-5.3592,-5.3592,-5.3592,-5.3592,-5.3592,-5.3592,-5.3619,-5.3619,-5.3944,-5.3809,-5.3917,-5.4243,-5.408,-5.4134,-5.4107,-5.4134,-5.427,-5.4813,-5.5274,-5.5871,-3.896,-3.8118,-3.7998,-3.8046,-3.7998,-3.8022,-3.831,-3.8743,-3.8262,-3.8575,-3.932,-3.8984,-3.9056,-3.9441,-3.8899,-3.8115,-3.7234,-3.7402,-3.6883,-3.5945,-3.5851,-3.6493,-3.7588,-3.7588,-3.8199,-3.9196,-3.9712,-3.9612,-3.8938,-3.8889,-3.8461,-3.7528,-3.6473,-3.5976,-3.6163,-3.538,-3.5034,-3.5559,-3.7624,-3.9496,-4.0342,-4.2706,-4.3955,-4.3931,-4.3606,-4.3161,-4.2958,-4.1843,-4.1002,-4.0554,-3.9897,-3.9296,-3.8859,-3.8794,-3.8728,-3.8663,-3.9184,-3.933,-3.9023,-3.973,-4.0122,-3.9787,-3.9682,-3.9875,-4.0405,-4.1466,-4.2063,-4.235,-4.4026,-4.4618,-4.3719,-4.3673,-4.3818,-4.4227,-4.4299,-4.4347,-4.4323,-4.4395,-4.4347,-4.4395,-4.4371,-4.4836,-4.6266,-4.7482,-4.8435,-4.9543,-5.108,-5.2139,-5.2289,-5.3078,-5.347,-5.3592,-5.3592,-5.3592,-5.3592,-5.3592,-5.3592,-5.3592,-5.3592,-5.3646,-5.3619,-5.3592,-5.3619,-5.3782,-5.4189,-5.4433,-5.4541,-5.4758,-5.503,-5.5111,-5.5057,-5.5193,-5.5491,-5.5925,-5.6549,-3.9705,-3.9032,-3.9032,-3.9008,-3.9008,-3.9032,-3.9152,-3.9296,-3.9128,-3.9224,-3.9537,-3.9393,-3.9441,-3.9633,-3.9777,-3.9411,-3.8658,-3.8129,-3.7497,-3.7155,-3.7155,-3.7542,-3.8206,-3.8344,-3.9125,-4.0482,-4.0812,-4.0266,-3.9239,-3.868,-3.8111,-3.7465,-3.5992,-3.561,-3.6412,-3.5699,-3.5351,-3.5877,-3.7728,-3.9106,-4.0322,-4.2016,-4.3451,-4.4223,-4.4075,-4.3701,-4.3326,-4.242,-4.1715,-4.1046,-4.0405,-3.9799,-3.934,-3.8991,-3.8816,-3.8838,-3.9088,-3.922,-3.9379,-3.9704,-4.0201,-4.064,-4.095,-4.1236,-4.1455,-4.2204,-4.2691,-4.2753,-4.3265,-4.3854,-4.4498,-4.4792,-4.5116,-4.5309,-4.5357,-4.5309,-4.5285,-4.5068,-4.4852,-4.4804,-4.4587,-4.4905,-4.6402,-4.7326,-4.8334,-5.0001,-5.1315,-5.2165,-5.2956,-5.3349,-5.3592,-5.3592,-5.3592,-5.3592,-5.3592,-5.3592,-5.3592,-5.3592,-5.3646,-5.389,-5.3944,-5.4134,-5.4189,-5.4569,-5.4921,-5.5111,-5.522,-5.5328,-5.5627,-5.56,-5.5573,-5.598,-5.6414,-5.6685,-5.7391,-4.0042,-3.985,-3.9681,-3.9609,-3.9609,-3.9609,-3.9705,-3.9826,-3.9681,-3.9777,-4.0042,-3.9946,-3.9946,-4.0162,-4.0499,-4.0475,-4.0026,-3.9302,-3.8938,-3.8938,-3.8914,-3.9125,-3.9405,-3.9452,-3.9985,-4.1033,-4.0877,-4.0082,-3.8799,-3.7885,-3.7441,-3.7023,-3.5691,-3.5732,-3.6777,-3.6324,-3.6172,-3.6661,-3.8274,-3.9726,-4.0782,-4.2495,-4.3726,-4.4386,-4.4611,-4.4117,-4.3326,-4.2673,-4.2038,-4.1315,-4.0669,-4.0126,-3.9799,-3.9471,-3.9296,-3.9318,-3.9471,-3.9668,-4.0017,-4.0301,-4.0891,-4.1834,-4.2037,-4.2238,-4.2393,-4.2816,-4.2906,-4.2861,-4.3643,-4.44,-4.4921,-4.593,-4.6295,-4.603,-4.5934,-4.5934,-4.591,-4.5597,-4.5405,-4.5381,-4.5309,-4.5821,-4.6932,-4.7622,-4.871,-5.041,-5.1194,-5.1944,-5.2465,-5.2956,-5.3078,-5.3227,-5.347,-5.3592,-5.37,-5.3809,-5.3727,-5.3727,-5.3999,-5.4216,-5.446,-5.4623,-5.4921,-5.5328,-5.56,-5.5762,-5.5898,-5.5952,-5.5952,-5.5925,-5.617,-5.6522,-5.6956,-5.7336,-5.7798,-3.997,-4.0306,-3.9826,-3.9729,-3.9753,-3.9777,-3.997,-4.0282,-3.9898,-4.0258,-4.086,-4.0595,-4.0643,-4.1028,-4.1076,-4.1124,-4.1052,-4.0889,-4.0889,-4.0913,-4.0937,-4.0937,-4.0985,-4.0985,-4.0894,-4.1038,-4.0243,-3.9228,-3.7928,-3.7276,-3.6432,-3.5751,-3.5877,-3.6289,-3.6779,-3.7073,-3.7187,-3.7868,-3.9993,-4.1368,-4.1993,-4.4193,-4.5446,-4.5188,-4.5092,-4.4475,-4.3373,-4.2696,-4.2038,-4.1421,-4.0647,-4.0279,-4.0214,-4.017,-4.0236,-4.0279,-4.0672,-4.0935,-4.1087,-4.1743,-4.2386,-4.3061,-4.2764,-4.2742,-4.315,-4.3466,-4.3467,-4.3264,-4.4658,-4.6013,-4.5794,-4.6537,-4.6885,-4.6175,-4.6126,-4.6126,-4.6054,-4.5958,-4.5934,-4.5958,-4.615,-4.6997,-4.7942,-4.8244,-4.8903,-4.9977,-5.0461,-5.0842,-5.122,-5.1944,-5.2068,-5.2465,-5.3105,-5.3619,-5.3836,-5.4026,-5.3944,-5.3917,-5.4324,-5.4623,-5.4948,-5.5166,-5.5491,-5.5871,-5.617,-5.6359,-5.6577,-5.6631,-5.6712,-5.6766,-5.6956,-5.7011,-5.7363,-5.7662,-5.7716,-4.0787,-4.0908,-4.0763,-4.0691,-4.0691,-4.0691,-4.0812,-4.0932,-4.0739,-4.0884,-4.1124,-4.1004,-4.1028,-4.1148,-4.1196,-4.1196,-4.1196,-4.1196,-4.1196,-4.1196,-4.1196,-4.1196,-4.1196,-4.1196,-4.0877,-4.022,-3.9039,-3.808,-3.7445,-3.712,-3.6679,-3.6091,-3.625,-3.668,-3.723,-3.7226,-3.7707,-3.8902,-4.0665,-4.2015,-4.308,-4.4984,-4.5838,-4.5669,-4.5333,-4.4642,-4.3843,-4.3262,-4.2696,-4.1911,-4.1293,-4.0799,-4.0409,-4.0279,-4.0432,-4.0738,-4.0913,-4.135,-4.1918,-4.2223,-4.2689,-4.3228,-4.3454,-4.3476,-4.3476,-4.4096,-4.4279,-4.3871,-4.4891,-4.5773,-4.6107,-4.6422,-4.6775,-4.704,-4.7016,-4.6944,-4.6872,-4.668,-4.6487,-4.6439,-4.6295,-4.6617,-4.7385,-4.7734,-4.8182,-4.9361,-4.9668,-4.9925,-5.132,-5.1819,-5.2439,-5.2956,-5.3498,-5.37,-5.3944,-5.427,-5.4406,-5.4487,-5.4786,-5.5138,-5.5437,-5.579,-5.6115,-5.6359,-5.6658,-5.6875,-5.7092,-5.7174,-5.7174,-5.7174,-5.7092,-5.7309,-5.7662,-5.777,-5.7743,-4.1196,-4.1196,-4.1196,-4.1196,-4.1196,-4.1196,-4.1196,-4.1196,-4.1196,-4.1196,-4.1196,-4.1172,-4.1196,-4.1196,-4.1196,-4.1196,-4.1196,-4.1196,-4.1196,-4.1196,-4.1196,-4.1196,-4.122,-4.1413,-4.1256,-4.0642,-3.9756,-3.9045,-3.8765,-3.8442,-3.8249,-3.818,-3.8371,-3.8876,-3.9146,-3.933,-3.9951,-4.0901,-4.2294,-4.3377,-4.4469,-4.5681,-4.6415,-4.6199,-4.5718,-4.4952,-4.4206,-4.3584,-4.2949,-4.2061,-4.1293,-4.0669,-4.0431,-4.0454,-4.0826,-4.1353,-4.1596,-4.1926,-4.2478,-4.25,-4.2676,-4.31,-4.3144,-4.3259,-4.3144,-4.3962,-4.4143,-4.4074,-4.4619,-4.5388,-4.6224,-4.6405,-4.6674,-4.7364,-4.7449,-4.7497,-4.7449,-4.7209,-4.704,-4.6944,-4.6752,-4.6896,-4.7185,-4.7281,-4.7767,-4.9102,-4.9282,-4.9797,-5.1445,-5.2068,-5.2588,-5.3105,-5.3349,-5.366,-5.408,-5.4433,-5.4867,-5.5084,-5.5328,-5.5681,-5.6007,-5.6387,-5.6712,-5.6794,-5.7011,-5.7011,-5.7174,-5.7174,-5.7174,-5.7174,-5.7174,-5.7309,-5.7499,-5.7553,-5.7553,-4.1196,-4.1196,-4.1196,-4.1196,-4.1196,-4.1196,-4.1196,-4.1196,-4.1196,-4.1196,-4.1196,-4.1196,-4.122,-4.1244,-4.1317,-4.1317,-4.1244,-4.1293,-4.1244,-4.1196,-4.1196,-4.122,-4.1341,-4.1444,-4.1496,-4.1686,-4.1253,-4.1319,-4.1309,-4.0408,-4.0672,-4.1012,-4.1121,-4.1695,-4.1834,-4.2609,-4.2644,-4.3156,-4.4482,-4.5163,-4.5457,-4.6736,-4.7233,-4.6752,-4.6247,-4.5486,-4.4475,-4.3655,-4.2696,-4.155,-4.1035,-4.0777,-4.0605,-4.087,-4.1353,-4.2013,-4.2393,-4.2482,-4.2705,-4.2616,-4.2594,-4.2638,-4.2257,-4.1968,-4.2772,-4.3107,-4.3487,-4.3804,-4.4409,-4.5105,-4.6123,-4.6328,-4.6618,-4.7293,-4.7449,-4.7473,-4.7497,-4.7473,-4.7401,-4.7425,-4.7473,-4.7497,-4.7497,-4.7581,-4.8502,-4.954,-4.9668,-5.0308,-5.1445,-5.2068,-5.2245,-5.2775,-5.3781,-5.4553,-5.522,-5.5735,-5.617,-5.6549,-5.6522,-5.6468,-5.6522,-5.6766,-5.7038,-5.7119,-5.7282,-5.7255,-5.7201,-5.7201,-5.7201,-5.7174,-5.7174,-5.7174,-5.7255,-5.7363,-5.7553,-4.1196,-4.1196,-4.1196,-4.1196,-4.1196,-4.1196,-4.1196,-4.1196,-4.1196,-4.1196,-4.1196,-4.1196,-4.1437,-4.1749,-4.1749,-4.1774,-4.1725,-4.1725,-4.1509,-4.122,-4.1196,-4.1437,-4.1468,-4.0928,-4.1038,-4.1545,-4.1024,-4.0551,-4.1306,-4.0757,-4.0826,-4.159,-4.1859,-4.1965,-4.2333,-4.2886,-4.3565,-4.4573,-4.5005,-4.5978,-4.6808,-4.7208,-4.7449,-4.7281,-4.6752,-4.6093,-4.5286,-4.4049,-4.2949,-4.2166,-4.2443,-4.2316,-4.1723,-4.1656,-4.1948,-4.2415,-4.2148,-4.2122,-4.232,-4.2235,-4.1946,-4.1946,-4.1859,-4.1946,-4.2616,-4.328,-4.3745,-4.441,-4.5089,-4.5657,-4.593,-4.6001,-4.6405,-4.6765,-4.7185,-4.7401,-4.7449,-4.7497,-4.7497,-4.7497,-4.7449,-4.7401,-4.7533,-4.8036,-4.8713,-4.9361,-4.9977,-5.0614,-5.1872,-5.2448,-5.2678,-5.4029,-5.5041,-5.5925,-5.6577,-5.7092,-5.7608,-5.8096,-5.796,-5.7418,-5.7201,-5.6956,-5.7092,-5.7174,-5.7499,-5.7581,-5.7363,-5.7228,-5.7201,-5.7445,-5.7391,-5.7472,-5.7282,-5.7309,-5.7608,-4.1196,-4.1196,-4.1196,-4.1196,-4.1196,-4.1196,-4.1196,-4.1196,-4.1196,-4.1317,-4.1461,-4.1509,-4.1798,-4.2254,-4.2086,-4.1966,-4.1966,-4.1749,-4.1461,-4.1293,-4.1437,-4.1677,-4.1873,-4.1447,-4.1911,-4.249,-4.1834,-4.228,-4.2898,-4.2381,-4.2366,-4.302,-4.3049,-4.3208,-4.359,-4.4186,-4.4956,-4.5809,-4.6107,-4.6674,-4.7364,-4.7497,-4.7497,-4.7329,-4.68,-4.5926,-4.4904,-4.401,-4.3326,-4.2546,-4.2443,-4.2385,-4.2252,-4.1924,-4.2282,-4.2862,-4.2482,-4.2235,-4.2301,-4.1882,-4.1507,-4.1485,-4.1485,-4.1881,-4.2492,-4.3188,-4.3857,-4.4372,-4.4934,-4.531,-4.5758,-4.5934,-4.6078,-4.6343,-4.6655,-4.692,-4.7136,-4.6944,-4.6848,-4.6848,-4.6824,-4.6848,-4.6872,-4.7758,-4.8629,-4.9292,-5.0021,-5.1309,-5.2775,-5.2908,-5.3557,-5.4943,-5.6007,-5.6658,-5.7092,-5.7553,-5.7526,-5.8123,-5.8259,-5.7879,-5.7933,-5.7472,-5.7635,-5.7798,-5.7879,-5.7906,-5.7798,-5.7798,-5.8069,-5.8178,-5.796,-5.7852,-5.777,-5.7553,-5.7825,-4.1196,-4.1196,-4.1196,-4.1196,-4.1196,-4.1244,-4.1317,-4.1293,-4.1413,-4.1725,-4.2086,-4.2134,-4.2567,-4.2952,-4.2735,-4.2303,-4.2279,-4.199,-4.1677,-4.1822,-4.2158,-4.2567,-4.2711,-4.312,-4.3501,-4.3979,-4.4247,-4.4649,-4.4753,-4.4356,-4.4559,-4.4587,-4.4809,-4.5038,-4.4991,-4.5964,-4.6525,-4.6586,-4.6992,-4.7208,-4.7497,-4.7473,-4.7425,-4.7185,-4.6319,-4.5247,-4.4302,-4.3897,-4.3576,-4.242,-4.1806,-4.2033,-4.2226,-4.206,-4.2348,-4.2883,-4.2661,-4.2482,-4.2548,-4.1767,-4.1365,-4.1522,-4.1544,-4.1798,-4.2784,-4.3437,-4.3893,-4.4782,-4.4243,-4.5015,-4.5686,-4.5934,-4.603,-4.6126,-4.6102,-4.6199,-4.6593,-4.6247,-4.5958,-4.6078,-4.615,-4.6126,-4.6609,-4.7248,-4.846,-5.0612,-5.1256,-5.2332,-5.3509,-5.3955,-5.4575,-5.5745,-5.6604,-5.7255,-5.7608,-5.7906,-5.7635,-5.7635,-5.777,-5.7798,-5.8449,-5.8367,-5.853,-5.8557,-5.8178,-5.8286,-5.8479,-5.8614,-5.8614,-5.8371,-5.7752,-5.8154,-5.8557,-5.8205,-5.8232,-4.1196,-4.1196,-4.1196,-4.1196,-4.1244,-4.1605,-4.1798,-4.1822,-4.2254,-4.2663,-4.3096,-4.3168,-4.3721,-4.4539,-4.3938,-4.3842,-4.3601,-4.312,-4.3024,-4.3144,-4.4058,-4.4419,-4.4323,-4.4323,-4.4251,-4.4491,-4.4804,-4.5092,-4.5092,-4.4804,-4.4611,-4.5044,-4.5068,-4.5116,-4.5261,-4.603,-4.6704,-4.68,-4.7209,-4.7449,-4.7497,-4.7473,-4.7281,-4.6848,-4.5886,-4.5134,-4.4697,-4.3938,-4.3451,-4.3051,-4.2995,-4.287,-4.3096,-4.279,-4.2594,-4.2661,-4.2325,-4.206,-4.2058,-4.1763,-4.1651,-4.2279,-4.2523,-4.3038,-4.4455,-4.4285,-4.4874,-4.5622,-4.5749,-4.5534,-4.5886,-4.5934,-4.6207,-4.6376,-4.6255,-4.6488,-4.7366,-4.6737,-4.6376,-4.6906,-4.7147,-4.7665,-4.9273,-4.9941,-5.0998,-5.2193,-5.2758,-5.3443,-5.412,-5.4731,-5.5573,-5.6468,-5.7309,-5.7933,-5.8123,-5.8259,-5.7933,-5.7608,-5.7553,-5.7423,-5.8073,-5.8422,-5.8127,-5.8232,-5.8178,-5.8344,-5.8643,-5.824,-5.8051,-5.7836,-5.7701,-5.7941,-5.8181,-5.8181,-5.8422,-4.1196,-4.1196,-4.1196,-4.1317,-4.1581,-4.187,-4.211,-4.2399,-4.288,-4.3409,-4.389,-4.4154,-4.4611,-4.5068,-4.4587,-4.4202,-4.3938,-4.3697,-4.3794,-4.4227,-4.4876,-4.5092,-4.5188,-4.514,-4.5092,-4.5068,-4.4804,-4.4876,-4.4924,-4.4659,-4.4467,-4.4732,-4.478,-4.4732,-4.4852,-4.5597,-4.6054,-4.6391,-4.6872,-4.7233,-4.7449,-4.7473,-4.7064,-4.6391,-4.5573,-4.5044,-4.4607,-4.3867,-4.3349,-4.3247,-4.3285,-4.3275,-4.3242,-4.295,-4.2682,-4.2547,-4.2438,-4.1882,-4.1705,-4.1924,-4.2343,-4.328,-4.3351,-4.4405,-4.5396,-4.5451,-4.5455,-4.6036,-4.6078,-4.6038,-4.6548,-4.6651,-4.6871,-4.6944,-4.7227,-4.7557,-4.7604,-4.7076,-4.6822,-4.7384,-4.7898,-4.8248,-4.9414,-5.1075,-5.1661,-5.1883,-5.2124,-5.2929,-5.4581,-5.5274,-5.6088,-5.6984,-5.7933,-5.853,-5.8693,-5.8639,-5.8313,-5.7933,-5.7662,-5.7423,-5.7455,-5.7455,-5.7477,-5.7748,-5.8181,-5.8292,-5.8429,-5.7972,-5.7598,-5.7705,-5.7758,-5.7596,-5.7782,-5.816,-5.824,-4.1244,-4.1317,-4.1389,-4.1725,-4.2182,-4.2351,-4.2711,-4.3192,-4.3577,-4.4202,-4.4708,-4.5188,-4.5501,-4.5429,-4.5068,-4.4443,-4.4106,-4.4202,-4.4756,-4.5333,-4.5477,-4.5549,-4.5549,-4.5597,-4.5573,-4.5694,-4.4996,-4.4804,-4.478,-4.4611,-4.4395,-4.4371,-4.4371,-4.4443,-4.4515,-4.4876,-4.5501,-4.6006,-4.6535,-4.6944,-4.7257,-4.7281,-4.68,-4.591,-4.5261,-4.4804,-4.4367,-4.3725,-4.3349,-4.3443,-4.3275,-4.3134,-4.2927,-4.2704,-4.2584,-4.2676,-4.2772,-4.2594,-4.2436,-4.2703,-4.3439,-4.4239,-4.4585,-4.5355,-4.6357,-4.6502,-4.6264,-4.6487,-4.6674,-4.6938,-4.7555,-4.7932,-4.8033,-4.8134,-4.8807,-4.8756,-4.8383,-4.8134,-4.8335,-4.8234,-4.8888,-4.9444,-4.99,-5.1068,-5.1249,-5.1641,-5.1949,-5.2696,-5.4379,-5.5654,-5.6359,-5.6984,-5.7798,-5.8069,-5.8205,-5.8259,-5.8015,-5.7906,-5.7608,-5.7239,-5.6973,-5.6973,-5.7135,-5.7809,-5.8213,-5.8187,-5.7919,-5.7625,-5.749,-5.773,-5.741,-5.6984,-5.7384,-5.8185,-5.7973,-4.1437,-4.187,-4.2327,-4.2784,-4.3289,-4.3746,-4.4202,-4.4708,-4.4804,-4.5429,-4.6199,-4.6391,-4.6631,-4.6752,-4.6535,-4.6006,-4.5525,-4.5597,-4.6006,-4.6295,-4.6271,-4.6223,-4.603,-4.5549,-4.5333,-4.5261,-4.4948,-4.478,-4.4563,-4.4395,-4.4347,-4.4347,-4.4347,-4.4347,-4.4491,-4.4876,-4.5333,-4.5814,-4.6343,-4.6704,-4.68,-4.6728,-4.6343,-4.5405,-4.4852,-4.4515,-4.417,-4.3725,-4.3514,-4.381,-4.3808,-4.3877,-4.3933,-4.3731,-4.3575,-4.3487,-4.3511,-4.3465,-4.37,-4.4043,-4.4999,-4.6071,-4.6206,-4.6487,-4.7223,-4.7265,-4.7146,-4.7762,-4.8069,-4.8571,-4.8749,-4.9267,-4.9951,-5.0103,-5.005,-5.0426,-5.0799,-5.0871,-5.0571,-4.9944,-5.0327,-5.061,-5.1064,-5.1695,-5.2315,-5.2727,-5.3052,-5.3456,-5.4514,-5.5545,-5.6251,-5.6848,-5.7418,-5.7499,-5.7499,-5.7499,-5.7418,-5.7472,-5.7336,-5.7104,-5.6866,-5.6708,-5.7004,-5.7223,-5.7358,-5.725,-5.7143,-5.7035,-5.6847,-5.6768,-5.6424,-5.624,-5.6637,-5.7196,-5.7357,-4.1894,-4.2423,-4.2928,-4.3625,-4.4323,-4.4635,-4.5044,-4.5549,-4.5838,-4.6223,-4.668,-4.6968,-4.7088,-4.704,-4.6872,-4.6559,-4.6439,-4.6247,-4.6463,-4.6583,-4.6439,-4.6126,-4.5958,-4.5333,-4.4996,-4.4804,-4.4708,-4.4635,-4.4371,-4.4347,-4.4347,-4.4347,-4.4347,-4.4347,-4.4395,-4.4587,-4.5044,-4.5525,-4.6006,-4.6295,-4.6247,-4.6102,-4.5549,-4.5164,-4.4659,-4.4371,-4.4099,-4.32,-4.3055,-4.3414,-4.3402,-4.3636,-4.4176,-4.4718,-4.4856,-4.4344,-4.4344,-4.4386,-4.4671,-4.4976,-4.6165,-4.6529,-4.6735,-4.7176,-4.7685,-4.7742,-4.7748,-4.8582,-4.9401,-4.9926,-5.0101,-5.0654,-5.0747,-5.0637,-5.0856,-5.1128,-5.1345,-5.1709,-5.152,-5.1286,-5.1768,-5.2033,-5.2207,-5.2713,-5.352,-5.3916,-5.4026,-5.4297,-5.465,-5.5193,-5.579,-5.6658,-5.7146,-5.7119,-5.7092,-5.7092,-5.6909,-5.6936,-5.6915,-5.6785,-5.6524,-5.6394,-5.608,-5.5947,-5.6106,-5.6424,-5.6292,-5.6106,-5.5945,-5.5812,-5.5654,-5.5656,-5.5842,-5.608,-5.6239,-4.2567,-4.3289,-4.377,-4.4563,-4.5357,-4.5453,-4.5766,-4.6247,-4.6559,-4.6752,-4.692,-4.7257,-4.7257,-4.6968,-4.6896,-4.6824,-4.6704,-4.6271,-4.6343,-4.6319,-4.6006,-4.5525,-4.5261,-4.4972,-4.4756,-4.4491,-4.4419,-4.4347,-4.4347,-4.4347,-4.4347,-4.4347,-4.4347,-4.4347,-4.4371,-4.4419,-4.4683,-4.5116,-4.5501,-4.5742,-4.5645,-4.5285,-4.4972,-4.4972,-4.4563,-4.4347,-4.4223,-4.3616,-4.3415,-4.3729,-4.3732,-4.3969,-4.4712,-4.5779,-4.5978,-4.5211,-4.5546,-4.5203,-4.5341,-4.5757,-4.6923,-4.7187,-4.7147,-4.7536,-4.7868,-4.7823,-4.7962,-4.8874,-4.9825,-5.0499,-5.0725,-5.1186,-5.1096,-5.0977,-5.132,-5.162,-5.1228,-5.14,-5.1718,-5.2015,-5.2886,-5.2836,-5.2337,-5.2364,-5.289,-5.289,-5.3022,-5.37,-5.408,-5.446,-5.5166,-5.6251,-5.6821,-5.6794,-5.6794,-5.6719,-5.6692,-5.6536,-5.6493,-5.6394,-5.6132,-5.5868,-5.5551,-5.547,-5.547,-5.5735,-5.5418,-5.5365,-5.5363,-5.5389,-5.5151,-5.5258,-5.5444,-5.5523,-5.5654,-4.3529,-4.49,-4.5405,-4.5982,-4.6463,-4.6511,-4.68,-4.7185,-4.6896,-4.6992,-4.7329,-4.7449,-4.7449,-4.7353,-4.7329,-4.7112,-4.6776,-4.6463,-4.6199,-4.5958,-4.5477,-4.5188,-4.5044,-4.4635,-4.4539,-4.4347,-4.4347,-4.4347,-4.4347,-4.4347,-4.4347,-4.4347,-4.4347,-4.4347,-4.4347,-4.4347,-4.4611,-4.5044,-4.5188,-4.5237,-4.5188,-4.478,-4.4539,-4.4467,-4.4395,-4.4395,-4.4367,-4.4254,-4.4579,-4.5253,-4.5372,-4.624,-4.7303,-4.7005,-4.7179,-4.7181,-4.7209,-4.7129,-4.7218,-4.72,-4.7383,-4.7528,-4.7566,-4.7508,-4.7714,-4.8028,-4.8199,-4.8174,-4.9585,-5.0401,-5.0751,-5.1201,-5.1502,-5.1512,-5.1323,-5.1611,-5.1431,-5.0847,-5.1278,-5.1475,-5.1882,-5.1936,-5.1782,-5.19,-5.2018,-5.2045,-5.2208,-5.2913,-5.3673,-5.4216,-5.4731,-5.5844,-5.6151,-5.6124,-5.605,-5.6131,-5.603,-5.603,-5.5965,-5.5998,-5.5736,-5.5446,-5.5498,-5.5258,-5.5232,-5.5232,-5.5232,-5.5232,-5.5099,-5.5099,-5.5099,-5.5099,-5.5099,-5.5177,-5.5255,-4.4948,-4.5621,-4.615,-4.668,-4.7136,-4.7161,-4.7281,-4.7425,-4.7257,-4.7281,-4.7473,-4.7497,-4.7497,-4.7425,-4.7209,-4.692,-4.6607,-4.6126,-4.5718,-4.5429,-4.4996,-4.4708,-4.4635,-4.4467,-4.4347,-4.4419,-4.4347,-4.4347,-4.4371,-4.4395,-4.4347,-4.4347,-4.4371,-4.4347,-4.4419,-4.4371,-4.4467,-4.4635,-4.4708,-4.4852,-4.4924,-4.4659,-4.4347,-4.4347,-4.4347,-4.4515,-4.4655,-4.457,-4.4911,-4.5551,-4.5667,-4.6115,-4.7092,-4.7369,-4.7685,-4.7957,-4.7869,-4.7726,-4.759,-4.7726,-4.7853,-4.7748,-4.7726,-4.7665,-4.7824,-4.823,-4.8884,-4.9353,-5.039,-5.0842,-5.0639,-5.1053,-5.0953,-5.096,-5.0987,-5.0932,-5.0932,-5.0824,-5.0688,-5.077,-5.0851,-5.0987,-5.1177,-5.1475,-5.1584,-5.1665,-5.1882,-5.2452,-5.3483,-5.4514,-5.5003,-5.5573,-5.5582,-5.5348,-5.5329,-5.5283,-5.5029,-5.5109,-5.5279,-5.5154,-5.5287,-5.5103,-5.5234,-5.5232,-5.5232,-5.5099,-5.5099,-5.5099,-5.5099,-5.5099,-5.5099,-5.5099,-5.5099,-5.5099,-5.5308,-4.6319,-4.6367,-4.6752,-4.7136,-4.7497,-4.7497,-4.7497,-4.7497,-4.7473,-4.7473,-4.7449,-4.7377,-4.7281,-4.7185,-4.6752,-4.6415,-4.6223,-4.5501,-4.5116,-4.4852,-4.4708,-4.4635,-4.4708,-4.4659,-4.4804,-4.4732,-4.49,-4.4876,-4.4828,-4.478,-4.4732,-4.4395,-4.4563,-4.4563,-4.4611,-4.4756,-4.4876,-4.4659,-4.4659,-4.4756,-4.4804,-4.4563,-4.4395,-4.4395,-4.4491,-4.4732,-4.4966,-4.5119,-4.5409,-4.5964,-4.61,-4.6587,-4.7377,-4.7845,-4.8052,-4.8276,-4.8156,-4.8171,-4.8074,-4.8088,-4.7919,-4.7581,-4.7482,-4.7555,-4.7902,-4.8506,-4.9153,-4.9782,-5.0468,-5.081,-5.0824,-5.0688,-5.0553,-5.0308,-5.0146,-5.0037,-5.0037,-5.02,-5.0281,-5.0335,-5.0363,-5.0254,-5.0525,-5.096,-5.1177,-5.1285,-5.1611,-5.2045,-5.3049,-5.4243,-5.4813,-5.5111,-5.4797,-5.4548,-5.4638,-5.444,-5.4313,-5.4246,-5.4414,-5.4524,-5.4708,-5.4945,-5.5153,-5.5099,-5.5099,-5.5099,-5.5099,-5.5099,-5.5099,-5.5099,-5.5099,-5.5099,-5.5099,-5.5099,-5.5308,-4.7401,-4.7401,-4.7401,-4.7449,-4.7497,-4.7497,-4.7497,-4.7497,-4.7497,-4.7497,-4.7425,-4.704,-4.6824,-4.6655,-4.6271,-4.5766,-4.5333,-4.5188,-4.4972,-4.4828,-4.4828,-4.5044,-4.5188,-4.5429,-4.5694,-4.5694,-4.5573,-4.5621,-4.5742,-4.5525,-4.5116,-4.4539,-4.4924,-4.5044,-4.5188,-4.5381,-4.5285,-4.5068,-4.4972,-4.4732,-4.4611,-4.4419,-4.4443,-4.4515,-4.4804,-4.5116,-4.5188,-4.583,-4.649,-4.7112,-4.7241,-4.7599,-4.8284,-4.8332,-4.8396,-4.8339,-4.8439,-4.8379,-4.8558,-4.8543,-4.8069,-4.745,-4.7115,-4.7455,-4.7933,-4.8773,-4.9351,-4.9652,-5.0228,-5.0249,-5.0173,-5.0064,-5.0118,-5.0091,-5.001,-5.001,-5.001,-5.001,-5.0091,-5.0037,-5.001,-5.001,-5.001,-5.0498,-5.0607,-5.0688,-5.1204,-5.1638,-5.2289,-5.32,-5.3931,-5.4256,-5.3985,-5.3916,-5.3922,-5.3779,-5.3482,-5.3493,-5.376,-5.4026,-5.4236,-5.4524,-5.5072,-5.5099,-5.5099,-5.5099,-5.5099,-5.5099,-5.5099,-5.5099,-5.5099,-5.5099,-5.5099,-5.5099,-5.536,-4.7497,-4.7497,-4.7497,-4.7497,-4.7497,-4.7497,-4.7497,-4.7497,-4.7497,-4.7497,-4.7473,-4.6968,-4.6704,-4.6487,-4.5838,-4.5549,-4.5549,-4.5261,-4.5213,-4.5357,-4.5525,-4.5597,-4.5742,-4.5814,-4.591,-4.5982,-4.5958,-4.5934,-4.5886,-4.603,-4.5814,-4.5501,-4.5573,-4.5573,-4.5742,-4.5838,-4.5645,-4.5333,-4.514,-4.4876,-4.4539,-4.4708,-4.4828,-4.4876,-4.5357,-4.579,-4.6102,-4.6463,-4.7161,-4.781,-4.8219,-4.8652,-4.8964,-4.8796,-4.8555,-4.8377,-4.8537,-4.8879,-4.9072,-4.9102,-4.8774,-4.8534,-4.7708,-4.738,-4.8186,-4.8917,-4.9239,-4.9569,-4.9832,-5.001,-5.001,-5.001,-5.0037,-5.001,-5.001,-5.001,-5.001,-5.001,-5.001,-5.001,-5.001,-5.001,-5.001,-5.0064,-5.0064,-5.0118,-5.0715,-5.1312,-5.1873,-5.2593,-5.3484,-5.3982,-5.3697,-5.3573,-5.3574,-5.327,-5.276,-5.2975,-5.3214,-5.353,-5.4053,-5.4654,-5.5099,-5.5099,-5.5099,-5.5099,-5.5099,-5.5099,-5.5099,-5.5099,-5.5099,-5.5099,-5.5099,-5.5099,-5.536,-4.7497,-4.7497,-4.7497,-4.7497,-4.7497,-4.7497,-4.7497,-4.7497,-4.7497,-4.7497,-4.7449,-4.6968,-4.6704,-4.6439,-4.5862,-4.5573,-4.5742,-4.5597,-4.5669,-4.5814,-4.6006,-4.6126,-4.6199,-4.6343,-4.6535,-4.6391,-4.6391,-4.6463,-4.6511,-4.6415,-4.6415,-4.6415,-4.6391,-4.6367,-4.6199,-4.6295,-4.6126,-4.5742,-4.5549,-4.5333,-4.4996,-4.5164,-4.5381,-4.5453,-4.5886,-4.6247,-4.6583,-4.6896,-4.7545,-4.8267,-4.8796,-4.9012,-4.9084,-4.8988,-4.8811,-4.8707,-4.8772,-4.9127,-4.9442,-4.919,-4.9191,-4.9051,-4.8186,-4.8231,-4.8734,-4.9054,-4.9522,-4.9837,-5.001,-5.001,-5.001,-4.9897,-4.9897,-4.9783,-4.9783,-4.9783,-4.9897,-4.9897,-5.001,-5.001,-5.001,-5.001,-5.001,-5.001,-5.001,-5.0113,-5.0729,-5.1242,-5.1701,-5.2379,-5.3359,-5.369,-5.3753,-5.3555,-5.3255,-5.3308,-5.326,-5.3136,-5.3347,-5.3609,-5.4105,-5.4707,-5.5072,-5.5099,-5.5099,-5.5099,-5.5099,-5.5099,-5.5099,-5.5099,-5.5099,-5.5099,-5.5099,-5.5099,-5.5229,-4.7497,-4.7497,-4.7497,-4.7497,-4.7497,-4.7497,-4.7497,-4.7497,-4.7497,-4.7497,-4.7425,-4.6944,-4.6704,-4.6559,-4.6054,-4.591,-4.6006,-4.5958,-4.6006,-4.6199,-4.6535,-4.668,-4.6848,-4.704,-4.7136,-4.7401,-4.7281,-4.7185,-4.7329,-4.7185,-4.7257,-4.7329,-4.7233,-4.7185,-4.68,-4.7209,-4.7161,-4.6752,-4.6631,-4.6271,-4.5838,-4.5814,-4.5886,-4.603,-4.6415,-4.6776,-4.6896,-4.7161,-4.7834,-4.8748,-4.8868,-4.8988,-4.906,-4.9125,-4.9047,-4.896,-4.9097,-4.9799,-5.0786,-4.9625,-4.9404,-4.9468,-4.8721,-4.8472,-4.8779,-4.9301,-4.9783,-5.001,-5.001,-5.001,-4.9897,-4.9783,-4.9783,-4.967,-4.9783,-4.9783,-4.9897,-4.9897,-5.001,-4.9897,-5.001,-5.001,-5.001,-5.001,-5.001,-5.0276,-5.0829,-5.1223,-5.1519,-5.2299,-5.3228,-5.3635,-5.38,-5.3885,-5.3708,-5.3708,-5.376,-5.3608,-5.3609,-5.3844,-5.4184,-5.4707,-5.4968,-5.5046,-5.5099,-5.5099,-5.5099,-5.5099,-5.5099,-5.5099,-5.5099,-5.5099,-5.5099,-5.5099,-5.5203,-4.7497,-4.7497,-4.7497,-4.7497,-4.7497,-4.7497,-4.7497,-4.7497,-4.7497,-4.7497,-4.7377,-4.6944,-4.6704,-4.6535,-4.6295,-4.615,-4.6415,-4.6463,-4.6535,-4.6944,-4.7112,-4.7209,-4.7305,-4.7353,-4.7497,-4.7497,-4.7497,-4.7497,-4.7449,-4.7545,-4.7521,-4.7545,-4.7882,-4.793,-4.7834,-4.7954,-4.7762,-4.7329,-4.7136,-4.6848,-4.6126,-4.6271,-4.6463,-4.6463,-4.6944,-4.7185,-4.7161,-4.7425,-4.8026,-4.8844,-4.8868,-4.8772,-4.9028,-4.9276,-4.9421,-4.9561,-4.9874,-5.11,-5.1216,-5.0552,-5.0126,-4.9818,-4.9097,-4.8726,-4.9415,-4.9556,-4.9783,-4.9897,-5.001,-5.001,-5.001,-4.9897,-4.9897,-4.9897,-4.9897,-4.9897,-4.9897,-5.001,-5.001,-4.9897,-4.9783,-4.9897,-4.9897,-4.9783,-4.967,-5.002,-5.0542,-5.0853,-5.1174,-5.2173,-5.3197,-5.3625,-5.3892,-5.4026,-5.4157,-5.4183,-5.4026,-5.3843,-5.387,-5.4053,-5.4419,-5.4811,-5.4968,-5.5099,-5.5099,-5.5099,-5.5099,-5.5099,-5.5099,-5.5099,-5.5099,-5.5099,-5.5099,-5.5099,-5.5125,-4.7497,-4.7497,-4.7497,-4.7497,-4.7497,-4.7497,-4.7497,-4.7497,-4.7497,-4.7497,-4.7425,-4.7136,-4.6992,-4.6896,-4.6704,-4.6583,-4.6992,-4.6992,-4.7064,-4.7497,-4.7473,-4.7449,-4.7449,-4.7497,-4.7497,-4.7497,-4.7497,-4.7497,-4.7521,-4.769,-4.793,-4.8195,-4.8387,-4.8652,-4.87,-4.8676,-4.8315,-4.793,-4.7714,-4.7401,-4.6896,-4.68,-4.6968,-4.7064,-4.7281,-4.7473,-4.7473,-4.7666,-4.7978,-4.8579,-4.87,-4.8555,-4.902,-4.9499,-4.9725,-5.0102,-5.0701,-5.1535,-5.1201,-5.0201,-4.9854,-5.0155,-4.8912,-4.8895,-4.967,-4.9783,-4.9897,-4.9897,-4.9897,-4.9897,-5.001,-4.9897,-4.9783,-4.9783,-4.9897,-4.9897,-4.9897,-4.9897,-4.9783,-4.967,-4.9583,-4.967,-4.967,-4.9583,-4.9354,-4.9836,-5.0228,-5.051,-5.0924,-5.2192,-5.3181,-5.3553,-5.4183,-5.4446,-5.4603,-5.4524,-5.4314,-5.4027,-5.4184,-5.4419,-5.4602,-5.4968,-5.5046,-5.5099,-5.5099,-5.5099,-5.5099,-5.5099,-5.5099,-5.5099,-5.5099,-5.5099,-5.5099,-5.5099,-5.5099,-4.7497,-4.7497,-4.7497,-4.7497,-4.7497,-4.7497,-4.7497,-4.7497,-4.7497,-4.7497,-4.7473,-4.7473,-4.7401,-4.7449,-4.7425,-4.7401,-4.7401,-4.7425,-4.7449,-4.7473,-4.7497,-4.7497,-4.7497,-4.7497,-4.7497,-4.7497,-4.7497,-4.7497,-4.7569,-4.793,-4.8411,-4.8916,-4.9036,-4.9349,-4.9493,-4.9421,-4.894,-4.8507,-4.8147,-4.7786,-4.7329,-4.7329,-4.7353,-4.7401,-4.7449,-4.7497,-4.7497,-4.7569,-4.8122,-4.8507,-4.8691,-4.8836,-4.9107,-4.9583,-5.0117,-5.0612,-5.1239,-5.1096,-5.0724,-4.9664,-4.9249,-4.963,-4.9522,-4.9556,-4.967,-4.9783,-4.9783,-4.9897,-4.9783,-4.9897,-4.9897,-4.967,-4.9469,-4.9583,-4.967,-4.967,-4.967,-4.9556,-4.9556,-4.9469,-4.924,-4.924,-4.924,-4.9125,-4.9037,-4.9382,-4.9796,-5.0393,-5.1012,-5.2444,-5.3214,-5.3503,-5.4079,-5.4837,-5.4994,-5.4889,-5.4811,-5.4497,-5.4654,-5.4863,-5.502,-5.502,-5.5072,-5.5099,-5.5099,-5.5099,-5.5099,-5.5099,-5.5099,-5.5099,-5.5099,-5.5099,-5.5099,-5.5099,-5.5099,-4.7497,-4.7497,-4.7497,-4.7497,-4.7497,-4.7497,-4.7497,-4.7497,-4.7497,-4.7497,-4.7497,-4.7497,-4.7497,-4.7497,-4.7497,-4.7497,-4.7497,-4.7497,-4.7473,-4.7497,-4.7497,-4.7497,-4.7497,-4.7497,-4.7497,-4.7497,-4.7497,-4.7521,-4.7642,-4.8074,-4.8868,-4.9493,-4.9638,-4.9974,-5.0191,-5.0287,-4.9565,-4.8964,-4.8531,-4.805,-4.7642,-4.7497,-4.7497,-4.7497,-4.7497,-4.7497,-4.7497,-4.7545,-4.8122,-4.8884,-4.8949,-4.9166,-5.0136,-5.0735,-5.1298,-5.1767,-5.1508,-5.083,-5.0433,-4.9441,-4.8779,-4.9125,-4.924,-4.9556,-4.967,-4.9783,-4.9783,-4.9783,-4.9783,-4.9783,-4.9783,-4.967,-4.9556,-4.9697,-4.967,-4.9556,-4.9583,-4.9549,-4.9462,-4.9143,-4.8912,-4.8895,-4.8895,-4.8895,-4.8859,-4.9007,-4.939,-5.006,-5.0987,-5.2481,-5.3347,-5.3635,-5.421,-5.4994,-5.5099,-5.502,-5.5046,-5.5046,-5.5099,-5.5099,-5.5072,-5.5072,-5.5072,-5.5099,-5.5099,-5.5099,-5.5099,-5.5099,-5.5099,-5.5099,-5.5099,-5.5099,-5.5099,-5.5099,-5.5099,-4.7497,-4.7497,-4.7497,-4.7497,-4.7497,-4.7497,-4.7497,-4.7497,-4.7497,-4.7497,-4.7497,-4.7497,-4.7497,-4.7497,-4.7497,-4.7497,-4.7497,-4.7497,-4.7497,-4.7497,-4.7497,-4.7497,-4.7497,-4.7497,-4.7497,-4.7497,-4.7545,-4.7642,-4.793,-4.8628,-4.9445,-5.0119,-5.0191,-5.0383,-5.0503,-5.0335,-4.9806,-4.9229,-4.87,-4.8195,-4.7786,-4.7497,-4.7497,-4.7497,-4.7497,-4.7497,-4.7545,-4.7617,-4.8536,-4.9388,-4.9587,-4.99,-5.0738,-5.1357,-5.1747,-5.2156,-5.1549,-5.099,-5.0552,-4.9531,-4.908,-4.901,-4.9125,-4.9354,-4.9556,-4.967,-4.967,-4.967,-4.967,-4.967,-4.967,-4.967,-4.9783,-4.9783,-4.967,-4.9583,-4.9576,-4.9454,-4.9276,-4.898,-4.8784,-4.86,-4.8548,-4.8574,-4.8626,-4.8746,-4.9324,-5.007,-5.1145,-5.2328,-5.3321,-5.3844,-5.4445,-5.5099,-5.5072,-5.5046,-5.5099,-5.5099,-5.5099,-5.5099,-5.5099,-5.5099,-5.5099,-5.5099,-5.5099,-5.5099,-5.5099,-5.5099,-5.5099,-5.5099,-5.5099,-5.5099,-5.5099,-5.5099,-5.5099,-4.7497,-4.7497,-4.7497,-4.7497,-4.7497,-4.7497,-4.7497,-4.7497,-4.7497,-4.7497,-4.7497,-4.7497,-4.7497,-4.7497,-4.7497,-4.7497,-4.7497,-4.7497,-4.7497,-4.7497,-4.7497,-4.7497,-4.7497,-4.7497,-4.7593,-4.7569,-4.7714,-4.8026,-4.8603,-4.9205,-4.9878,-5.0648,-5.0648,-5.0672,-5.0624,-5.0383,-4.9854,-4.9205,-4.8892,-4.8531,-4.7762,-4.7497,-4.7497,-4.7497,-4.7497,-4.7497,-4.7642,-4.8246,-4.9047,-4.9998,-5.0663,-5.0776,-5.1175,-5.1588,-5.1977,-5.1874,-5.1469,-5.0924,-5.0472,-4.9558,-4.9285,-4.924,-4.924,-4.9354,-4.9469,-4.9556,-4.9556,-4.9556,-4.9583,-4.9583,-4.9556,-4.9556,-4.9556,-4.9556,-4.9442,-4.924,-4.9178,-4.9213,-4.935,-4.9167,-4.9075,-4.8983,-4.872,-4.8655,-4.8682,-4.876,-4.9113,-5.0054,-5.1282,-5.2537,-5.3164,-5.3922,-5.4602,-5.502,-5.4889,-5.4889,-5.5046,-5.5099,-5.5099,-5.5099,-5.5099,-5.5099,-5.5099,-5.5099,-5.5099,-5.5099,-5.5099,-5.5099,-5.5099,-5.5099,-5.5099,-5.5099,-5.5099,-5.5099,-5.5099,-4.7497,-4.7497,-4.7497,-4.7497,-4.7497,-4.7497,-4.7497,-4.7497,-4.7497,-4.7497,-4.7497,-4.7497,-4.7497,-4.7497,-4.7497,-4.7497,-4.7497,-4.7497,-4.7497,-4.7497,-4.7497,-4.7497,-4.7521,-4.7569,-4.7738,-4.8002,-4.8243,-4.8579,-4.9253,-4.9782,-5.0143,-5.0648,-5.0696,-5.0696,-5.0696,-5.0431,-5.0022,-4.9253,-4.9012,-4.8579,-4.7762,-4.7521,-4.7497,-4.7497,-4.7497,-4.7497,-4.7931,-4.8935,-4.9717,-5.0572,-5.1535,-5.1845,-5.2014,-5.2128,-5.2147,-5.2033,-5.1402,-5.0897,-5.0445,-4.9754,-4.9143,-4.901,-4.901,-4.9125,-4.924,-4.9469,-4.9583,-4.9469,-4.9469,-4.9469,-4.9469,-4.9469,-4.9354,-4.924,-4.9125,-4.901,-4.8779,-4.9021,-4.9311,-4.9442,-4.9427,-4.9191,-4.8878,-4.8799,-4.8878,-4.9113,-4.9479,-5.0315,-5.1648,-5.2825,-5.3086,-5.3792,-5.4602,-5.4942,-5.4811,-5.4837,-5.502,-5.5099,-5.5099,-5.5099,-5.5072,-5.5099,-5.5099,-5.5099,-5.5099,-5.5099,-5.5099,-5.5099,-5.5099,-5.5099,-5.5099,-5.5099,-5.5099,-5.5099,-5.5099,-4.7762,-4.8133,-4.8133,-4.8133,-4.8133,-4.8133,-4.8133,-4.8133,-4.8133,-4.7894,-4.7497,-4.7497,-4.7497,-4.7497,-4.7497,-4.7497,-4.7497,-4.7497,-4.7497,-4.7497,-4.7497,-4.7497,-4.7545,-4.7714,-4.7978,-4.8291,-4.8868,-4.9373,-4.9878,-5.0191,-5.0479,-5.0672,-5.0696,-5.0696,-5.0696,-5.0624,-5.0287,-4.9493,-4.9253,-4.8628,-4.7858,-4.7666,-4.7521,-4.7497,-4.7497,-4.763,-4.8558,-4.9562,-5.0795,-5.1864,-5.311,-5.2734,-5.2713,-5.2395,-5.2492,-5.2295,-5.1629,-5.0857,-5.0537,-4.9807,-4.9063,-4.9125,-4.9098,-4.9328,-4.9354,-4.9583,-4.9583,-4.9469,-4.9354,-4.924,-4.9354,-4.9328,-4.9125,-4.8895,-4.8832,-4.8626,-4.8589,-4.8708,-4.8982,-4.9191,-4.9165,-4.8904,-4.8643,-4.8538,-4.8773,-4.9531,-4.9923,-5.0629,-5.1962,-5.2877,-5.3164,-5.3583,-5.4341,-5.4889,-5.4942,-5.4968,-5.5046,-5.5099,-5.4968,-5.502,-5.4994,-5.5046,-5.5099,-5.502,-5.502,-5.5099,-5.5099,-5.5099,-5.5099,-5.5099,-5.5099,-5.5099,-5.5099,-5.5046,-5.4916,-4.8264,-4.9152,-4.9152,-4.9152,-4.9152,-4.9023,-4.8918,-4.8918,-4.8763,-4.8264,-4.763,-4.763,-4.763,-4.7497,-4.7497,-4.7497,-4.7497,-4.7497,-4.7497,-4.7497,-4.7364,-4.7351,-4.7566,-4.7758,-4.8204,-4.898,-4.9745,-4.9897,-5.007,-5.0383,-5.06,-5.0696,-5.0696,-5.0837,-5.0837,-5.0648,-5.0475,-5.0084,-4.9673,-4.8892,-4.8315,-4.7786,-4.7569,-4.7497,-4.763,-4.8133,-4.8977,-5.0156,-5.1707,-5.2881,-5.3858,-5.3574,-5.2988,-5.2738,-5.2861,-5.2593,-5.1763,-5.1255,-5.088,-5.0024,-4.9569,-4.9469,-4.9556,-4.9556,-4.9583,-4.9583,-4.9583,-4.9469,-4.924,-4.9125,-4.924,-4.9125,-4.8895,-4.869,-4.851,-4.8407,-4.8512,-4.8616,-4.8852,-4.9113,-4.9008,-4.8799,-4.8616,-4.8486,-4.8904,-4.9688,-5.0446,-5.1282,-5.204,-5.2589,-5.3034,-5.3426,-5.3975,-5.4445,-5.4602,-5.4733,-5.4628,-5.455,-5.4419,-5.4707,-5.4863,-5.4759,-5.4733,-5.4863,-5.4889,-5.4863,-5.502,-5.5099,-5.5099,-5.5046,-5.5099,-5.5072,-5.502,-5.4942,-5.4654,-4.9307,-5.0334,-5.0334,-5.0334,-5.0206,-4.9411,-4.9047,-4.8893,-4.8264,-4.763,-4.7762,-4.8133,-4.8002,-4.7497,-4.7497,-4.7497,-4.7606,-4.7497,-4.7497,-4.7497,-4.7036,-4.7005,-4.7424,-4.8276,-4.8571,-4.9583,-5.0767,-5.1084,-5.064,-5.0576,-5.0696,-5.0696,-5.0837,-5.1095,-5.1771,-5.1419,-5.0737,-5.0555,-4.9963,-4.9253,-4.8435,-4.793,-4.7569,-4.7762,-4.8264,-4.8133,-4.8533,-4.9934,-5.1129,-5.2359,-5.3629,-5.3528,-5.3165,-5.2861,-5.2983,-5.2647,-5.1817,-5.1189,-5.0682,-4.9934,-4.9507,-4.901,-4.9125,-4.9354,-4.924,-4.924,-4.924,-4.924,-4.9125,-4.901,-4.901,-4.8895,-4.8663,-4.8431,-4.8224,-4.8486,-4.8695,-4.8826,-4.9008,-4.9244,-4.9401,-4.9165,-4.893,-4.8852,-4.8852,-4.9531,-4.9976,-5.0812,-5.1727,-5.2302,-5.2877,-5.3191,-5.3583,-5.3269,-5.3112,-5.3792,-5.387,-5.3818,-5.3844,-5.4053,-5.4184,-5.4236,-5.4288,-5.4367,-5.4471,-5.4497,-5.468,-5.4785,-5.4968,-5.4942,-5.5046,-5.5072,-5.4994,-5.4759,-5.4445]}]]